<?xml version="1.0" encoding="UTF-8" standalone="no" ?>
<gpx xmlns="http://www.topografix.com/GPX/1/1" xmlns:xsi="http://www.w3.org/2001/XMLSchema-instance" xsi:schemaLocation="http://www.topografix.com/GPX/1/1 http://www.topografix.com/GPX/1/1/gpx.xsd" version="1.1" creator="VisuGPX - https://www.visugpx.com">
  <metadata>
    <name>Randonnée sur ESPANES du 04-11-2018</name>
    <desc><![CDATA[Rando sur Espanes , Goyrans et Clermont le Fort.]]></desc>
  </metadata>
  <trk>
    <name><![CDATA[Randonnée sur ESPANES du 04-11-2018_1]]></name>
    <trkseg>
      <trkpt lat="43.46089" lon="1.46791">
        <ele>266</ele>
        <time>2018-11-04T09:24:56Z</time>
      </trkpt>
      <trkpt lat="43.46093" lon="1.46794">
        <ele>264</ele>
        <time>2018-11-04T09:24:56Z</time>
      </trkpt>
      <trkpt lat="43.46095" lon="1.46797">
        <ele>264</ele>
        <time>2018-11-04T09:24:56Z</time>
      </trkpt>
      <trkpt lat="43.46097" lon="1.468">
        <ele>264</ele>
        <time>2018-11-04T09:24:56Z</time>
      </trkpt>
      <trkpt lat="43.461" lon="1.46803">
        <ele>264</ele>
        <time>2018-11-04T09:25:12Z</time>
      </trkpt>
      <trkpt lat="43.46103" lon="1.46806">
        <ele>264</ele>
        <time>2018-11-04T09:25:12Z</time>
      </trkpt>
      <trkpt lat="43.46106" lon="1.46808">
        <ele>264</ele>
        <time>2018-11-04T09:25:12Z</time>
      </trkpt>
      <trkpt lat="43.46109" lon="1.4681">
        <ele>264</ele>
        <time>2018-11-04T09:25:12Z</time>
      </trkpt>
      <trkpt lat="43.46113" lon="1.46813">
        <ele>264</ele>
        <time>2018-11-04T09:25:28Z</time>
      </trkpt>
      <trkpt lat="43.46118" lon="1.46817">
        <ele>264</ele>
        <time>2018-11-04T09:25:28Z</time>
      </trkpt>
      <trkpt lat="43.4612" lon="1.4682">
        <ele>264</ele>
        <time>2018-11-04T09:25:28Z</time>
      </trkpt>
      <trkpt lat="43.46122" lon="1.46824">
        <ele>264</ele>
        <time>2018-11-04T09:25:28Z</time>
      </trkpt>
      <trkpt lat="43.46123" lon="1.46829">
        <ele>264</ele>
        <time>2018-11-04T09:25:44Z</time>
      </trkpt>
      <trkpt lat="43.46125" lon="1.4683">
        <ele>271</ele>
        <time>2018-11-04T09:25:44Z</time>
      </trkpt>
      <trkpt lat="43.46128" lon="1.46832">
        <ele>271</ele>
        <time>2018-11-04T09:25:44Z</time>
      </trkpt>
      <trkpt lat="43.46131" lon="1.46837">
        <ele>271</ele>
        <time>2018-11-04T09:25:44Z</time>
      </trkpt>
      <trkpt lat="43.46134" lon="1.46843">
        <ele>271</ele>
        <time>2018-11-04T09:26:00Z</time>
      </trkpt>
      <trkpt lat="43.46137" lon="1.46848">
        <ele>271</ele>
        <time>2018-11-04T09:26:00Z</time>
      </trkpt>
      <trkpt lat="43.4614" lon="1.46851">
        <ele>271</ele>
        <time>2018-11-04T09:26:00Z</time>
      </trkpt>
      <trkpt lat="43.46141" lon="1.46856">
        <ele>271</ele>
        <time>2018-11-04T09:26:00Z</time>
      </trkpt>
      <trkpt lat="43.46143" lon="1.46862">
        <ele>271</ele>
        <time>2018-11-04T09:26:16Z</time>
      </trkpt>
      <trkpt lat="43.46145" lon="1.46869">
        <ele>271</ele>
        <time>2018-11-04T09:26:16Z</time>
      </trkpt>
      <trkpt lat="43.46146" lon="1.46876">
        <ele>274</ele>
        <time>2018-11-04T09:26:16Z</time>
      </trkpt>
      <trkpt lat="43.46147" lon="1.46883">
        <ele>274</ele>
        <time>2018-11-04T09:26:16Z</time>
      </trkpt>
      <trkpt lat="43.46147" lon="1.4689">
        <ele>274</ele>
        <time>2018-11-04T09:26:32Z</time>
      </trkpt>
      <trkpt lat="43.46149" lon="1.46897">
        <ele>274</ele>
        <time>2018-11-04T09:26:32Z</time>
      </trkpt>
      <trkpt lat="43.46149" lon="1.46903">
        <ele>274</ele>
        <time>2018-11-04T09:26:32Z</time>
      </trkpt>
      <trkpt lat="43.4615" lon="1.4691">
        <ele>274</ele>
        <time>2018-11-04T09:26:32Z</time>
      </trkpt>
      <trkpt lat="43.46151" lon="1.46918">
        <ele>274</ele>
        <time>2018-11-04T09:26:48Z</time>
      </trkpt>
      <trkpt lat="43.46152" lon="1.46926">
        <ele>274</ele>
        <time>2018-11-04T09:26:48Z</time>
      </trkpt>
      <trkpt lat="43.46154" lon="1.46934">
        <ele>274</ele>
        <time>2018-11-04T09:26:48Z</time>
      </trkpt>
      <trkpt lat="43.46155" lon="1.46941">
        <ele>274</ele>
        <time>2018-11-04T09:26:48Z</time>
      </trkpt>
      <trkpt lat="43.46157" lon="1.46949">
        <ele>274</ele>
        <time>2018-11-04T09:27:04Z</time>
      </trkpt>
      <trkpt lat="43.46159" lon="1.46956">
        <ele>274</ele>
        <time>2018-11-04T09:27:04Z</time>
      </trkpt>
      <trkpt lat="43.46161" lon="1.46961">
        <ele>276</ele>
        <time>2018-11-04T09:27:04Z</time>
      </trkpt>
      <trkpt lat="43.46164" lon="1.46969">
        <ele>276</ele>
        <time>2018-11-04T09:27:04Z</time>
      </trkpt>
      <trkpt lat="43.46173" lon="1.46977">
        <ele>276</ele>
        <time>2018-11-04T09:27:40Z</time>
      </trkpt>
      <trkpt lat="43.46174" lon="1.46977">
        <ele>276</ele>
        <time>2018-11-04T09:27:40Z</time>
      </trkpt>
      <trkpt lat="43.46179" lon="1.46974">
        <ele>276</ele>
        <time>2018-11-04T09:27:40Z</time>
      </trkpt>
      <trkpt lat="43.46185" lon="1.46972">
        <ele>276</ele>
        <time>2018-11-04T09:27:40Z</time>
      </trkpt>
      <trkpt lat="43.46192" lon="1.4697">
        <ele>276</ele>
        <time>2018-11-04T09:27:40Z</time>
      </trkpt>
      <trkpt lat="43.46199" lon="1.46969">
        <ele>276</ele>
        <time>2018-11-04T09:27:56Z</time>
      </trkpt>
      <trkpt lat="43.46205" lon="1.46969">
        <ele>276</ele>
        <time>2018-11-04T09:27:56Z</time>
      </trkpt>
      <trkpt lat="43.46211" lon="1.4697">
        <ele>270</ele>
        <time>2018-11-04T09:27:56Z</time>
      </trkpt>
      <trkpt lat="43.46218" lon="1.4697">
        <ele>270</ele>
        <time>2018-11-04T09:27:56Z</time>
      </trkpt>
      <trkpt lat="43.46224" lon="1.46971">
        <ele>270</ele>
        <time>2018-11-04T09:28:12Z</time>
      </trkpt>
      <trkpt lat="43.46231" lon="1.46971">
        <ele>270</ele>
        <time>2018-11-04T09:28:12Z</time>
      </trkpt>
      <trkpt lat="43.46237" lon="1.46973">
        <ele>270</ele>
        <time>2018-11-04T09:28:12Z</time>
      </trkpt>
      <trkpt lat="43.46243" lon="1.46973">
        <ele>270</ele>
        <time>2018-11-04T09:28:12Z</time>
      </trkpt>
      <trkpt lat="43.46249" lon="1.46975">
        <ele>270</ele>
        <time>2018-11-04T09:28:28Z</time>
      </trkpt>
      <trkpt lat="43.46255" lon="1.46976">
        <ele>270</ele>
        <time>2018-11-04T09:28:28Z</time>
      </trkpt>
      <trkpt lat="43.4626" lon="1.46977">
        <ele>270</ele>
        <time>2018-11-04T09:28:28Z</time>
      </trkpt>
      <trkpt lat="43.46265" lon="1.46978">
        <ele>270</ele>
        <time>2018-11-04T09:28:28Z</time>
      </trkpt>
      <trkpt lat="43.46273" lon="1.4698">
        <ele>270</ele>
        <time>2018-11-04T09:28:44Z</time>
      </trkpt>
      <trkpt lat="43.46279" lon="1.46981">
        <ele>270</ele>
        <time>2018-11-04T09:28:44Z</time>
      </trkpt>
      <trkpt lat="43.46284" lon="1.46983">
        <ele>270</ele>
        <time>2018-11-04T09:28:44Z</time>
      </trkpt>
      <trkpt lat="43.46289" lon="1.46982">
        <ele>270</ele>
        <time>2018-11-04T09:28:44Z</time>
      </trkpt>
      <trkpt lat="43.46288" lon="1.46981">
        <ele>270</ele>
        <time>2018-11-04T09:29:00Z</time>
      </trkpt>
      <trkpt lat="43.46291" lon="1.46983">
        <ele>270</ele>
        <time>2018-11-04T09:29:00Z</time>
      </trkpt>
      <trkpt lat="43.46295" lon="1.46986">
        <ele>262</ele>
        <time>2018-11-04T09:29:00Z</time>
      </trkpt>
      <trkpt lat="43.463" lon="1.4699">
        <ele>262</ele>
        <time>2018-11-04T09:29:00Z</time>
      </trkpt>
      <trkpt lat="43.46306" lon="1.46993">
        <ele>262</ele>
        <time>2018-11-04T09:29:16Z</time>
      </trkpt>
      <trkpt lat="43.4631" lon="1.46997">
        <ele>262</ele>
        <time>2018-11-04T09:29:16Z</time>
      </trkpt>
      <trkpt lat="43.46315" lon="1.47">
        <ele>262</ele>
        <time>2018-11-04T09:29:16Z</time>
      </trkpt>
      <trkpt lat="43.46321" lon="1.47003">
        <ele>262</ele>
        <time>2018-11-04T09:29:16Z</time>
      </trkpt>
      <trkpt lat="43.46327" lon="1.47007">
        <ele>262</ele>
        <time>2018-11-04T09:29:32Z</time>
      </trkpt>
      <trkpt lat="43.46332" lon="1.47008">
        <ele>262</ele>
        <time>2018-11-04T09:29:32Z</time>
      </trkpt>
      <trkpt lat="43.46338" lon="1.47011">
        <ele>262</ele>
        <time>2018-11-04T09:29:32Z</time>
      </trkpt>
      <trkpt lat="43.46343" lon="1.47014">
        <ele>262</ele>
        <time>2018-11-04T09:29:32Z</time>
      </trkpt>
      <trkpt lat="43.46347" lon="1.47017">
        <ele>262</ele>
        <time>2018-11-04T09:29:48Z</time>
      </trkpt>
      <trkpt lat="43.46351" lon="1.4702">
        <ele>262</ele>
        <time>2018-11-04T09:29:48Z</time>
      </trkpt>
      <trkpt lat="43.46357" lon="1.47024">
        <ele>262</ele>
        <time>2018-11-04T09:29:48Z</time>
      </trkpt>
      <trkpt lat="43.46362" lon="1.47027">
        <ele>262</ele>
        <time>2018-11-04T09:29:48Z</time>
      </trkpt>
      <trkpt lat="43.46367" lon="1.4703">
        <ele>262</ele>
        <time>2018-11-04T09:30:04Z</time>
      </trkpt>
      <trkpt lat="43.46371" lon="1.47034">
        <ele>262</ele>
        <time>2018-11-04T09:30:04Z</time>
      </trkpt>
      <trkpt lat="43.46377" lon="1.47038">
        <ele>260</ele>
        <time>2018-11-04T09:30:04Z</time>
      </trkpt>
      <trkpt lat="43.46382" lon="1.47043">
        <ele>261</ele>
        <time>2018-11-04T09:30:04Z</time>
      </trkpt>
      <trkpt lat="43.46387" lon="1.47046">
        <ele>261</ele>
        <time>2018-11-04T09:30:20Z</time>
      </trkpt>
      <trkpt lat="43.46392" lon="1.47049">
        <ele>261</ele>
        <time>2018-11-04T09:30:20Z</time>
      </trkpt>
      <trkpt lat="43.46396" lon="1.47051">
        <ele>261</ele>
        <time>2018-11-04T09:30:20Z</time>
      </trkpt>
      <trkpt lat="43.46401" lon="1.47052">
        <ele>261</ele>
        <time>2018-11-04T09:30:20Z</time>
      </trkpt>
      <trkpt lat="43.46407" lon="1.47056">
        <ele>261</ele>
        <time>2018-11-04T09:30:48Z</time>
      </trkpt>
      <trkpt lat="43.46409" lon="1.47056">
        <ele>261</ele>
        <time>2018-11-04T09:30:48Z</time>
      </trkpt>
      <trkpt lat="43.46413" lon="1.47055">
        <ele>261</ele>
        <time>2018-11-04T09:30:48Z</time>
      </trkpt>
      <trkpt lat="43.4642" lon="1.47054">
        <ele>261</ele>
        <time>2018-11-04T09:30:48Z</time>
      </trkpt>
      <trkpt lat="43.46424" lon="1.47053">
        <ele>261</ele>
        <time>2018-11-04T09:30:48Z</time>
      </trkpt>
      <trkpt lat="43.46433" lon="1.47051">
        <ele>261</ele>
        <time>2018-11-04T09:31:04Z</time>
      </trkpt>
      <trkpt lat="43.4644" lon="1.47049">
        <ele>261</ele>
        <time>2018-11-04T09:31:04Z</time>
      </trkpt>
      <trkpt lat="43.46449" lon="1.47047">
        <ele>261</ele>
        <time>2018-11-04T09:31:04Z</time>
      </trkpt>
      <trkpt lat="43.46456" lon="1.47046">
        <ele>261</ele>
        <time>2018-11-04T09:31:04Z</time>
      </trkpt>
      <trkpt lat="43.46463" lon="1.47044">
        <ele>261</ele>
        <time>2018-11-04T09:31:20Z</time>
      </trkpt>
      <trkpt lat="43.46467" lon="1.47042">
        <ele>261</ele>
        <time>2018-11-04T09:31:20Z</time>
      </trkpt>
      <trkpt lat="43.46471" lon="1.47038">
        <ele>259</ele>
        <time>2018-11-04T09:31:20Z</time>
      </trkpt>
      <trkpt lat="43.46474" lon="1.47037">
        <ele>259</ele>
        <time>2018-11-04T09:31:20Z</time>
      </trkpt>
      <trkpt lat="43.46478" lon="1.47035">
        <ele>259</ele>
        <time>2018-11-04T09:31:36Z</time>
      </trkpt>
      <trkpt lat="43.46484" lon="1.47033">
        <ele>259</ele>
        <time>2018-11-04T09:31:36Z</time>
      </trkpt>
      <trkpt lat="43.46489" lon="1.47031">
        <ele>259</ele>
        <time>2018-11-04T09:31:36Z</time>
      </trkpt>
      <trkpt lat="43.46495" lon="1.47031">
        <ele>259</ele>
        <time>2018-11-04T09:31:36Z</time>
      </trkpt>
      <trkpt lat="43.46499" lon="1.4703">
        <ele>259</ele>
        <time>2018-11-04T09:31:52Z</time>
      </trkpt>
      <trkpt lat="43.465" lon="1.47025">
        <ele>259</ele>
        <time>2018-11-04T09:31:52Z</time>
      </trkpt>
      <trkpt lat="43.46505" lon="1.47022">
        <ele>259</ele>
        <time>2018-11-04T09:31:52Z</time>
      </trkpt>
      <trkpt lat="43.46509" lon="1.47019">
        <ele>259</ele>
        <time>2018-11-04T09:31:52Z</time>
      </trkpt>
      <trkpt lat="43.46515" lon="1.47016">
        <ele>259</ele>
        <time>2018-11-04T09:32:08Z</time>
      </trkpt>
      <trkpt lat="43.46519" lon="1.47013">
        <ele>259</ele>
        <time>2018-11-04T09:32:08Z</time>
      </trkpt>
      <trkpt lat="43.46526" lon="1.47012">
        <ele>259</ele>
        <time>2018-11-04T09:32:08Z</time>
      </trkpt>
      <trkpt lat="43.46532" lon="1.47011">
        <ele>259</ele>
        <time>2018-11-04T09:32:08Z</time>
      </trkpt>
      <trkpt lat="43.46539" lon="1.4701">
        <ele>259</ele>
        <time>2018-11-04T09:32:24Z</time>
      </trkpt>
      <trkpt lat="43.46545" lon="1.4701">
        <ele>261</ele>
        <time>2018-11-04T09:32:24Z</time>
      </trkpt>
      <trkpt lat="43.46553" lon="1.47008">
        <ele>261</ele>
        <time>2018-11-04T09:32:24Z</time>
      </trkpt>
      <trkpt lat="43.46559" lon="1.47007">
        <ele>261</ele>
        <time>2018-11-04T09:32:24Z</time>
      </trkpt>
      <trkpt lat="43.46564" lon="1.47004">
        <ele>261</ele>
        <time>2018-11-04T09:32:40Z</time>
      </trkpt>
      <trkpt lat="43.46569" lon="1.47002">
        <ele>261</ele>
        <time>2018-11-04T09:32:40Z</time>
      </trkpt>
      <trkpt lat="43.46574" lon="1.47">
        <ele>261</ele>
        <time>2018-11-04T09:32:40Z</time>
      </trkpt>
      <trkpt lat="43.4658" lon="1.46997">
        <ele>261</ele>
        <time>2018-11-04T09:32:40Z</time>
      </trkpt>
      <trkpt lat="43.46585" lon="1.46995">
        <ele>261</ele>
        <time>2018-11-04T09:32:56Z</time>
      </trkpt>
      <trkpt lat="43.4659" lon="1.46992">
        <ele>261</ele>
        <time>2018-11-04T09:32:56Z</time>
      </trkpt>
      <trkpt lat="43.46595" lon="1.46989">
        <ele>261</ele>
        <time>2018-11-04T09:32:56Z</time>
      </trkpt>
      <trkpt lat="43.46602" lon="1.46988">
        <ele>261</ele>
        <time>2018-11-04T09:32:56Z</time>
      </trkpt>
      <trkpt lat="43.46606" lon="1.46986">
        <ele>261</ele>
        <time>2018-11-04T09:33:16Z</time>
      </trkpt>
      <trkpt lat="43.4661" lon="1.46984">
        <ele>261</ele>
        <time>2018-11-04T09:33:16Z</time>
      </trkpt>
      <trkpt lat="43.46612" lon="1.46985">
        <ele>261</ele>
        <time>2018-11-04T09:33:16Z</time>
      </trkpt>
      <trkpt lat="43.46614" lon="1.46984">
        <ele>261</ele>
        <time>2018-11-04T09:33:16Z</time>
      </trkpt>
      <trkpt lat="43.46618" lon="1.46982">
        <ele>261</ele>
        <time>2018-11-04T09:33:16Z</time>
      </trkpt>
      <trkpt lat="43.46623" lon="1.4698">
        <ele>261</ele>
        <time>2018-11-04T09:33:32Z</time>
      </trkpt>
      <trkpt lat="43.46627" lon="1.46978">
        <ele>263</ele>
        <time>2018-11-04T09:33:32Z</time>
      </trkpt>
      <trkpt lat="43.46631" lon="1.46976">
        <ele>263</ele>
        <time>2018-11-04T09:33:32Z</time>
      </trkpt>
      <trkpt lat="43.46638" lon="1.46973">
        <ele>263</ele>
        <time>2018-11-04T09:33:32Z</time>
      </trkpt>
      <trkpt lat="43.46643" lon="1.46969">
        <ele>263</ele>
        <time>2018-11-04T09:33:48Z</time>
      </trkpt>
      <trkpt lat="43.4665" lon="1.46969">
        <ele>263</ele>
        <time>2018-11-04T09:33:48Z</time>
      </trkpt>
      <trkpt lat="43.46657" lon="1.46967">
        <ele>263</ele>
        <time>2018-11-04T09:33:48Z</time>
      </trkpt>
      <trkpt lat="43.46664" lon="1.46964">
        <ele>263</ele>
        <time>2018-11-04T09:33:48Z</time>
      </trkpt>
      <trkpt lat="43.46668" lon="1.4696">
        <ele>263</ele>
        <time>2018-11-04T09:34:04Z</time>
      </trkpt>
      <trkpt lat="43.46673" lon="1.46957">
        <ele>260</ele>
        <time>2018-11-04T09:34:04Z</time>
      </trkpt>
      <trkpt lat="43.46677" lon="1.46953">
        <ele>260</ele>
        <time>2018-11-04T09:34:04Z</time>
      </trkpt>
      <trkpt lat="43.46684" lon="1.4695">
        <ele>260</ele>
        <time>2018-11-04T09:34:04Z</time>
      </trkpt>
      <trkpt lat="43.46688" lon="1.46948">
        <ele>260</ele>
        <time>2018-11-04T09:34:20Z</time>
      </trkpt>
      <trkpt lat="43.46693" lon="1.46946">
        <ele>260</ele>
        <time>2018-11-04T09:34:20Z</time>
      </trkpt>
      <trkpt lat="43.46699" lon="1.46942">
        <ele>260</ele>
        <time>2018-11-04T09:34:20Z</time>
      </trkpt>
      <trkpt lat="43.46704" lon="1.46938">
        <ele>260</ele>
        <time>2018-11-04T09:34:20Z</time>
      </trkpt>
      <trkpt lat="43.4671" lon="1.46936">
        <ele>259</ele>
        <time>2018-11-04T09:34:36Z</time>
      </trkpt>
      <trkpt lat="43.46714" lon="1.46934">
        <ele>259</ele>
        <time>2018-11-04T09:34:36Z</time>
      </trkpt>
      <trkpt lat="43.46718" lon="1.46932">
        <ele>259</ele>
        <time>2018-11-04T09:34:36Z</time>
      </trkpt>
      <trkpt lat="43.46723" lon="1.4693">
        <ele>259</ele>
        <time>2018-11-04T09:34:36Z</time>
      </trkpt>
      <trkpt lat="43.46727" lon="1.46926">
        <ele>259</ele>
        <time>2018-11-04T09:34:52Z</time>
      </trkpt>
      <trkpt lat="43.46729" lon="1.46923">
        <ele>259</ele>
        <time>2018-11-04T09:34:52Z</time>
      </trkpt>
      <trkpt lat="43.46733" lon="1.46921">
        <ele>259</ele>
        <time>2018-11-04T09:34:52Z</time>
      </trkpt>
      <trkpt lat="43.46737" lon="1.46918">
        <ele>259</ele>
        <time>2018-11-04T09:34:52Z</time>
      </trkpt>
      <trkpt lat="43.46743" lon="1.46917">
        <ele>259</ele>
        <time>2018-11-04T09:35:08Z</time>
      </trkpt>
      <trkpt lat="43.46748" lon="1.46914">
        <ele>259</ele>
        <time>2018-11-04T09:35:08Z</time>
      </trkpt>
      <trkpt lat="43.46755" lon="1.46912">
        <ele>259</ele>
        <time>2018-11-04T09:35:08Z</time>
      </trkpt>
      <trkpt lat="43.46763" lon="1.4691">
        <ele>259</ele>
        <time>2018-11-04T09:35:08Z</time>
      </trkpt>
      <trkpt lat="43.46769" lon="1.46908">
        <ele>259</ele>
        <time>2018-11-04T09:35:24Z</time>
      </trkpt>
      <trkpt lat="43.46775" lon="1.46908">
        <ele>259</ele>
        <time>2018-11-04T09:35:24Z</time>
      </trkpt>
      <trkpt lat="43.46781" lon="1.46906">
        <ele>259</ele>
        <time>2018-11-04T09:35:24Z</time>
      </trkpt>
      <trkpt lat="43.46787" lon="1.46904">
        <ele>259</ele>
        <time>2018-11-04T09:35:24Z</time>
      </trkpt>
      <trkpt lat="43.46792" lon="1.46904">
        <ele>258</ele>
        <time>2018-11-04T09:35:40Z</time>
      </trkpt>
      <trkpt lat="43.46796" lon="1.46903">
        <ele>258</ele>
        <time>2018-11-04T09:35:40Z</time>
      </trkpt>
      <trkpt lat="43.46801" lon="1.469">
        <ele>258</ele>
        <time>2018-11-04T09:35:40Z</time>
      </trkpt>
      <trkpt lat="43.46803" lon="1.46899">
        <ele>258</ele>
        <time>2018-11-04T09:35:40Z</time>
      </trkpt>
      <trkpt lat="43.46807" lon="1.46896">
        <ele>258</ele>
        <time>2018-11-04T09:35:56Z</time>
      </trkpt>
      <trkpt lat="43.4681" lon="1.46893">
        <ele>258</ele>
        <time>2018-11-04T09:35:56Z</time>
      </trkpt>
      <trkpt lat="43.46815" lon="1.46892">
        <ele>258</ele>
        <time>2018-11-04T09:35:56Z</time>
      </trkpt>
      <trkpt lat="43.46821" lon="1.46891">
        <ele>258</ele>
        <time>2018-11-04T09:35:56Z</time>
      </trkpt>
      <trkpt lat="43.46824" lon="1.46889">
        <ele>258</ele>
        <time>2018-11-04T09:36:12Z</time>
      </trkpt>
      <trkpt lat="43.46829" lon="1.46888">
        <ele>258</ele>
        <time>2018-11-04T09:36:12Z</time>
      </trkpt>
      <trkpt lat="43.46832" lon="1.46885">
        <ele>258</ele>
        <time>2018-11-04T09:36:12Z</time>
      </trkpt>
      <trkpt lat="43.46839" lon="1.46881">
        <ele>258</ele>
        <time>2018-11-04T09:36:12Z</time>
      </trkpt>
      <trkpt lat="43.46845" lon="1.46879">
        <ele>258</ele>
        <time>2018-11-04T09:36:28Z</time>
      </trkpt>
      <trkpt lat="43.4685" lon="1.46878">
        <ele>258</ele>
        <time>2018-11-04T09:36:28Z</time>
      </trkpt>
      <trkpt lat="43.46855" lon="1.46874">
        <ele>258</ele>
        <time>2018-11-04T09:36:28Z</time>
      </trkpt>
      <trkpt lat="43.46858" lon="1.4687">
        <ele>258</ele>
        <time>2018-11-04T09:36:28Z</time>
      </trkpt>
      <trkpt lat="43.46862" lon="1.46867">
        <ele>258</ele>
        <time>2018-11-04T09:36:44Z</time>
      </trkpt>
      <trkpt lat="43.46868" lon="1.46862">
        <ele>258</ele>
        <time>2018-11-04T09:36:44Z</time>
      </trkpt>
      <trkpt lat="43.46873" lon="1.46859">
        <ele>258</ele>
        <time>2018-11-04T09:36:44Z</time>
      </trkpt>
      <trkpt lat="43.46878" lon="1.46855">
        <ele>255</ele>
        <time>2018-11-04T09:36:44Z</time>
      </trkpt>
      <trkpt lat="43.46883" lon="1.46854">
        <ele>255</ele>
        <time>2018-11-04T09:37:00Z</time>
      </trkpt>
      <trkpt lat="43.46884" lon="1.46854">
        <ele>255</ele>
        <time>2018-11-04T09:37:00Z</time>
      </trkpt>
      <trkpt lat="43.46887" lon="1.46854">
        <ele>255</ele>
        <time>2018-11-04T09:37:00Z</time>
      </trkpt>
      <trkpt lat="43.46892" lon="1.46851">
        <ele>255</ele>
        <time>2018-11-04T09:37:00Z</time>
      </trkpt>
      <trkpt lat="43.46894" lon="1.46846">
        <ele>255</ele>
        <time>2018-11-04T09:37:16Z</time>
      </trkpt>
      <trkpt lat="43.46898" lon="1.46843">
        <ele>255</ele>
        <time>2018-11-04T09:37:16Z</time>
      </trkpt>
      <trkpt lat="43.46901" lon="1.46839">
        <ele>255</ele>
        <time>2018-11-04T09:37:16Z</time>
      </trkpt>
      <trkpt lat="43.46905" lon="1.46835">
        <ele>255</ele>
        <time>2018-11-04T09:37:16Z</time>
      </trkpt>
      <trkpt lat="43.46909" lon="1.4683">
        <ele>255</ele>
        <time>2018-11-04T09:37:32Z</time>
      </trkpt>
      <trkpt lat="43.46913" lon="1.46827">
        <ele>255</ele>
        <time>2018-11-04T09:37:32Z</time>
      </trkpt>
      <trkpt lat="43.46918" lon="1.46824">
        <ele>255</ele>
        <time>2018-11-04T09:37:32Z</time>
      </trkpt>
      <trkpt lat="43.46924" lon="1.46822">
        <ele>255</ele>
        <time>2018-11-04T09:37:32Z</time>
      </trkpt>
      <trkpt lat="43.46928" lon="1.4682">
        <ele>255</ele>
        <time>2018-11-04T09:37:48Z</time>
      </trkpt>
      <trkpt lat="43.46933" lon="1.46817">
        <ele>255</ele>
        <time>2018-11-04T09:37:48Z</time>
      </trkpt>
      <trkpt lat="43.46937" lon="1.46812">
        <ele>255</ele>
        <time>2018-11-04T09:37:48Z</time>
      </trkpt>
      <trkpt lat="43.4694" lon="1.4681">
        <ele>255</ele>
        <time>2018-11-04T09:37:48Z</time>
      </trkpt>
      <trkpt lat="43.46943" lon="1.46807">
        <ele>255</ele>
        <time>2018-11-04T09:38:04Z</time>
      </trkpt>
      <trkpt lat="43.46947" lon="1.46803">
        <ele>255</ele>
        <time>2018-11-04T09:38:04Z</time>
      </trkpt>
      <trkpt lat="43.4695" lon="1.46799">
        <ele>255</ele>
        <time>2018-11-04T09:38:04Z</time>
      </trkpt>
      <trkpt lat="43.46954" lon="1.46794">
        <ele>255</ele>
        <time>2018-11-04T09:38:04Z</time>
      </trkpt>
      <trkpt lat="43.46959" lon="1.46792">
        <ele>242</ele>
        <time>2018-11-04T09:38:20Z</time>
      </trkpt>
      <trkpt lat="43.46965" lon="1.46789">
        <ele>243</ele>
        <time>2018-11-04T09:38:20Z</time>
      </trkpt>
      <trkpt lat="43.46968" lon="1.46784">
        <ele>243</ele>
        <time>2018-11-04T09:38:20Z</time>
      </trkpt>
      <trkpt lat="43.46969" lon="1.46779">
        <ele>243</ele>
        <time>2018-11-04T09:38:20Z</time>
      </trkpt>
      <trkpt lat="43.46973" lon="1.46774">
        <ele>243</ele>
        <time>2018-11-04T09:38:36Z</time>
      </trkpt>
      <trkpt lat="43.46977" lon="1.46769">
        <ele>243</ele>
        <time>2018-11-04T09:38:36Z</time>
      </trkpt>
      <trkpt lat="43.46981" lon="1.46765">
        <ele>243</ele>
        <time>2018-11-04T09:38:36Z</time>
      </trkpt>
      <trkpt lat="43.46985" lon="1.4676">
        <ele>243</ele>
        <time>2018-11-04T09:38:36Z</time>
      </trkpt>
      <trkpt lat="43.46988" lon="1.46753">
        <ele>243</ele>
        <time>2018-11-04T09:38:52Z</time>
      </trkpt>
      <trkpt lat="43.46988" lon="1.46746">
        <ele>243</ele>
        <time>2018-11-04T09:38:52Z</time>
      </trkpt>
      <trkpt lat="43.4699" lon="1.4674">
        <ele>243</ele>
        <time>2018-11-04T09:38:52Z</time>
      </trkpt>
      <trkpt lat="43.46993" lon="1.46736">
        <ele>243</ele>
        <time>2018-11-04T09:38:52Z</time>
      </trkpt>
      <trkpt lat="43.46997" lon="1.46735">
        <ele>243</ele>
        <time>2018-11-04T09:39:08Z</time>
      </trkpt>
      <trkpt lat="43.47" lon="1.46735">
        <ele>243</ele>
        <time>2018-11-04T09:39:08Z</time>
      </trkpt>
      <trkpt lat="43.47003" lon="1.46731">
        <ele>243</ele>
        <time>2018-11-04T09:39:08Z</time>
      </trkpt>
      <trkpt lat="43.47005" lon="1.46726">
        <ele>243</ele>
        <time>2018-11-04T09:39:08Z</time>
      </trkpt>
      <trkpt lat="43.47008" lon="1.4672">
        <ele>243</ele>
        <time>2018-11-04T09:39:24Z</time>
      </trkpt>
      <trkpt lat="43.47011" lon="1.46715">
        <ele>243</ele>
        <time>2018-11-04T09:39:24Z</time>
      </trkpt>
      <trkpt lat="43.47013" lon="1.4671">
        <ele>243</ele>
        <time>2018-11-04T09:39:24Z</time>
      </trkpt>
      <trkpt lat="43.47018" lon="1.46703">
        <ele>247</ele>
        <time>2018-11-04T09:39:24Z</time>
      </trkpt>
      <trkpt lat="43.47022" lon="1.46697">
        <ele>247</ele>
        <time>2018-11-04T09:39:40Z</time>
      </trkpt>
      <trkpt lat="43.47025" lon="1.46692">
        <ele>247</ele>
        <time>2018-11-04T09:39:40Z</time>
      </trkpt>
      <trkpt lat="43.47024" lon="1.46688">
        <ele>247</ele>
        <time>2018-11-04T09:39:40Z</time>
      </trkpt>
      <trkpt lat="43.47025" lon="1.46684">
        <ele>247</ele>
        <time>2018-11-04T09:39:40Z</time>
      </trkpt>
      <trkpt lat="43.47027" lon="1.46681">
        <ele>247</ele>
        <time>2018-11-04T09:39:56Z</time>
      </trkpt>
      <trkpt lat="43.47028" lon="1.46677">
        <ele>247</ele>
        <time>2018-11-04T09:39:56Z</time>
      </trkpt>
      <trkpt lat="43.4703" lon="1.46674">
        <ele>247</ele>
        <time>2018-11-04T09:39:56Z</time>
      </trkpt>
      <trkpt lat="43.47035" lon="1.4667">
        <ele>247</ele>
        <time>2018-11-04T09:39:56Z</time>
      </trkpt>
      <trkpt lat="43.47043" lon="1.46667">
        <ele>238</ele>
        <time>2018-11-04T09:40:24Z</time>
      </trkpt>
      <trkpt lat="43.47043" lon="1.46667">
        <ele>238</ele>
        <time>2018-11-04T09:40:24Z</time>
      </trkpt>
      <trkpt lat="43.47044" lon="1.46666">
        <ele>238</ele>
        <time>2018-11-04T09:40:24Z</time>
      </trkpt>
      <trkpt lat="43.47045" lon="1.46665">
        <ele>238</ele>
        <time>2018-11-04T09:40:24Z</time>
      </trkpt>
      <trkpt lat="43.47048" lon="1.46658">
        <ele>238</ele>
        <time>2018-11-04T09:40:24Z</time>
      </trkpt>
      <trkpt lat="43.47052" lon="1.46651">
        <ele>238</ele>
        <time>2018-11-04T09:40:40Z</time>
      </trkpt>
      <trkpt lat="43.47056" lon="1.46646">
        <ele>238</ele>
        <time>2018-11-04T09:40:40Z</time>
      </trkpt>
      <trkpt lat="43.47063" lon="1.46642">
        <ele>238</ele>
        <time>2018-11-04T09:40:40Z</time>
      </trkpt>
      <trkpt lat="43.47068" lon="1.46638">
        <ele>238</ele>
        <time>2018-11-04T09:40:40Z</time>
      </trkpt>
      <trkpt lat="43.47074" lon="1.46634">
        <ele>238</ele>
        <time>2018-11-04T09:40:56Z</time>
      </trkpt>
      <trkpt lat="43.47079" lon="1.46628">
        <ele>238</ele>
        <time>2018-11-04T09:40:56Z</time>
      </trkpt>
      <trkpt lat="43.47081" lon="1.46623">
        <ele>234</ele>
        <time>2018-11-04T09:40:56Z</time>
      </trkpt>
      <trkpt lat="43.47085" lon="1.46621">
        <ele>234</ele>
        <time>2018-11-04T09:40:56Z</time>
      </trkpt>
      <trkpt lat="43.47089" lon="1.46616">
        <ele>234</ele>
        <time>2018-11-04T09:41:12Z</time>
      </trkpt>
      <trkpt lat="43.47093" lon="1.4661">
        <ele>234</ele>
        <time>2018-11-04T09:41:12Z</time>
      </trkpt>
      <trkpt lat="43.47097" lon="1.46606">
        <ele>234</ele>
        <time>2018-11-04T09:41:12Z</time>
      </trkpt>
      <trkpt lat="43.47101" lon="1.46602">
        <ele>234</ele>
        <time>2018-11-04T09:41:12Z</time>
      </trkpt>
      <trkpt lat="43.47105" lon="1.46595">
        <ele>234</ele>
        <time>2018-11-04T09:41:28Z</time>
      </trkpt>
      <trkpt lat="43.4711" lon="1.4659">
        <ele>234</ele>
        <time>2018-11-04T09:41:28Z</time>
      </trkpt>
      <trkpt lat="43.47114" lon="1.46584">
        <ele>234</ele>
        <time>2018-11-04T09:41:28Z</time>
      </trkpt>
      <trkpt lat="43.47118" lon="1.46579">
        <ele>234</ele>
        <time>2018-11-04T09:41:28Z</time>
      </trkpt>
      <trkpt lat="43.47121" lon="1.46576">
        <ele>234</ele>
        <time>2018-11-04T09:41:44Z</time>
      </trkpt>
      <trkpt lat="43.47124" lon="1.46571">
        <ele>234</ele>
        <time>2018-11-04T09:41:44Z</time>
      </trkpt>
      <trkpt lat="43.47127" lon="1.46566">
        <ele>227</ele>
        <time>2018-11-04T09:41:44Z</time>
      </trkpt>
      <trkpt lat="43.4713" lon="1.46562">
        <ele>227</ele>
        <time>2018-11-04T09:41:44Z</time>
      </trkpt>
      <trkpt lat="43.47133" lon="1.46558">
        <ele>227</ele>
        <time>2018-11-04T09:42:00Z</time>
      </trkpt>
      <trkpt lat="43.47134" lon="1.46554">
        <ele>227</ele>
        <time>2018-11-04T09:42:00Z</time>
      </trkpt>
      <trkpt lat="43.47138" lon="1.46548">
        <ele>227</ele>
        <time>2018-11-04T09:42:00Z</time>
      </trkpt>
      <trkpt lat="43.47143" lon="1.46544">
        <ele>227</ele>
        <time>2018-11-04T09:42:00Z</time>
      </trkpt>
      <trkpt lat="43.47145" lon="1.46539">
        <ele>225</ele>
        <time>2018-11-04T09:42:16Z</time>
      </trkpt>
      <trkpt lat="43.47149" lon="1.46536">
        <ele>225</ele>
        <time>2018-11-04T09:42:16Z</time>
      </trkpt>
      <trkpt lat="43.47152" lon="1.46532">
        <ele>225</ele>
        <time>2018-11-04T09:42:16Z</time>
      </trkpt>
      <trkpt lat="43.47155" lon="1.46529">
        <ele>225</ele>
        <time>2018-11-04T09:42:16Z</time>
      </trkpt>
      <trkpt lat="43.47158" lon="1.46527">
        <ele>225</ele>
        <time>2018-11-04T09:42:32Z</time>
      </trkpt>
      <trkpt lat="43.47161" lon="1.46521">
        <ele>225</ele>
        <time>2018-11-04T09:42:32Z</time>
      </trkpt>
      <trkpt lat="43.47164" lon="1.46516">
        <ele>225</ele>
        <time>2018-11-04T09:42:32Z</time>
      </trkpt>
      <trkpt lat="43.47166" lon="1.46512">
        <ele>225</ele>
        <time>2018-11-04T09:42:32Z</time>
      </trkpt>
      <trkpt lat="43.47168" lon="1.46508">
        <ele>225</ele>
        <time>2018-11-04T09:42:48Z</time>
      </trkpt>
      <trkpt lat="43.47168" lon="1.46504">
        <ele>225</ele>
        <time>2018-11-04T09:42:48Z</time>
      </trkpt>
      <trkpt lat="43.47169" lon="1.46499">
        <ele>225</ele>
        <time>2018-11-04T09:42:48Z</time>
      </trkpt>
      <trkpt lat="43.47173" lon="1.46497">
        <ele>225</ele>
        <time>2018-11-04T09:42:48Z</time>
      </trkpt>
      <trkpt lat="43.47175" lon="1.46494">
        <ele>225</ele>
        <time>2018-11-04T09:43:04Z</time>
      </trkpt>
      <trkpt lat="43.47178" lon="1.46491">
        <ele>225</ele>
        <time>2018-11-04T09:43:04Z</time>
      </trkpt>
      <trkpt lat="43.47181" lon="1.46486">
        <ele>225</ele>
        <time>2018-11-04T09:43:04Z</time>
      </trkpt>
      <trkpt lat="43.47184" lon="1.46478">
        <ele>225</ele>
        <time>2018-11-04T09:43:04Z</time>
      </trkpt>
      <trkpt lat="43.47189" lon="1.46471">
        <ele>225</ele>
        <time>2018-11-04T09:43:20Z</time>
      </trkpt>
      <trkpt lat="43.47192" lon="1.46468">
        <ele>225</ele>
        <time>2018-11-04T09:43:20Z</time>
      </trkpt>
      <trkpt lat="43.47195" lon="1.46466">
        <ele>225</ele>
        <time>2018-11-04T09:43:20Z</time>
      </trkpt>
      <trkpt lat="43.47198" lon="1.46465">
        <ele>225</ele>
        <time>2018-11-04T09:43:20Z</time>
      </trkpt>
      <trkpt lat="43.47199" lon="1.46465">
        <ele>225</ele>
        <time>2018-11-04T09:43:36Z</time>
      </trkpt>
      <trkpt lat="43.47202" lon="1.46462">
        <ele>225</ele>
        <time>2018-11-04T09:43:36Z</time>
      </trkpt>
      <trkpt lat="43.47206" lon="1.46458">
        <ele>224</ele>
        <time>2018-11-04T09:43:36Z</time>
      </trkpt>
      <trkpt lat="43.4721" lon="1.46454">
        <ele>221</ele>
        <time>2018-11-04T09:43:36Z</time>
      </trkpt>
      <trkpt lat="43.47215" lon="1.46448">
        <ele>221</ele>
        <time>2018-11-04T09:43:52Z</time>
      </trkpt>
      <trkpt lat="43.4722" lon="1.46443">
        <ele>221</ele>
        <time>2018-11-04T09:43:52Z</time>
      </trkpt>
      <trkpt lat="43.47226" lon="1.46439">
        <ele>221</ele>
        <time>2018-11-04T09:43:52Z</time>
      </trkpt>
      <trkpt lat="43.4723" lon="1.46437">
        <ele>221</ele>
        <time>2018-11-04T09:43:52Z</time>
      </trkpt>
      <trkpt lat="43.47234" lon="1.46431">
        <ele>221</ele>
        <time>2018-11-04T09:44:08Z</time>
      </trkpt>
      <trkpt lat="43.47238" lon="1.46428">
        <ele>221</ele>
        <time>2018-11-04T09:44:08Z</time>
      </trkpt>
      <trkpt lat="43.47241" lon="1.46424">
        <ele>221</ele>
        <time>2018-11-04T09:44:08Z</time>
      </trkpt>
      <trkpt lat="43.47242" lon="1.4642">
        <ele>221</ele>
        <time>2018-11-04T09:44:08Z</time>
      </trkpt>
      <trkpt lat="43.47243" lon="1.46416">
        <ele>221</ele>
        <time>2018-11-04T09:44:24Z</time>
      </trkpt>
      <trkpt lat="43.47243" lon="1.4641">
        <ele>221</ele>
        <time>2018-11-04T09:44:24Z</time>
      </trkpt>
      <trkpt lat="43.47245" lon="1.46403">
        <ele>221</ele>
        <time>2018-11-04T09:44:24Z</time>
      </trkpt>
      <trkpt lat="43.47247" lon="1.46398">
        <ele>221</ele>
        <time>2018-11-04T09:44:24Z</time>
      </trkpt>
      <trkpt lat="43.47248" lon="1.46391">
        <ele>221</ele>
        <time>2018-11-04T09:44:40Z</time>
      </trkpt>
      <trkpt lat="43.47249" lon="1.46386">
        <ele>221</ele>
        <time>2018-11-04T09:44:40Z</time>
      </trkpt>
      <trkpt lat="43.47252" lon="1.46379">
        <ele>221</ele>
        <time>2018-11-04T09:44:40Z</time>
      </trkpt>
      <trkpt lat="43.47254" lon="1.46372">
        <ele>218</ele>
        <time>2018-11-04T09:44:40Z</time>
      </trkpt>
      <trkpt lat="43.47257" lon="1.46368">
        <ele>218</ele>
        <time>2018-11-04T09:44:56Z</time>
      </trkpt>
      <trkpt lat="43.4726" lon="1.46363">
        <ele>218</ele>
        <time>2018-11-04T09:44:56Z</time>
      </trkpt>
      <trkpt lat="43.47261" lon="1.46358">
        <ele>218</ele>
        <time>2018-11-04T09:44:56Z</time>
      </trkpt>
      <trkpt lat="43.47263" lon="1.46353">
        <ele>218</ele>
        <time>2018-11-04T09:44:56Z</time>
      </trkpt>
      <trkpt lat="43.47265" lon="1.46346">
        <ele>218</ele>
        <time>2018-11-04T09:45:12Z</time>
      </trkpt>
      <trkpt lat="43.47267" lon="1.4634">
        <ele>218</ele>
        <time>2018-11-04T09:45:12Z</time>
      </trkpt>
      <trkpt lat="43.47271" lon="1.46332">
        <ele>218</ele>
        <time>2018-11-04T09:45:12Z</time>
      </trkpt>
      <trkpt lat="43.47271" lon="1.46324">
        <ele>218</ele>
        <time>2018-11-04T09:45:12Z</time>
      </trkpt>
      <trkpt lat="43.47271" lon="1.46317">
        <ele>218</ele>
        <time>2018-11-04T09:45:28Z</time>
      </trkpt>
      <trkpt lat="43.47271" lon="1.4631">
        <ele>218</ele>
        <time>2018-11-04T09:45:28Z</time>
      </trkpt>
      <trkpt lat="43.47275" lon="1.46305">
        <ele>218</ele>
        <time>2018-11-04T09:45:28Z</time>
      </trkpt>
      <trkpt lat="43.4728" lon="1.46299">
        <ele>218</ele>
        <time>2018-11-04T09:45:28Z</time>
      </trkpt>
      <trkpt lat="43.47286" lon="1.46294">
        <ele>218</ele>
        <time>2018-11-04T09:45:44Z</time>
      </trkpt>
      <trkpt lat="43.47288" lon="1.46286">
        <ele>217</ele>
        <time>2018-11-04T09:45:44Z</time>
      </trkpt>
      <trkpt lat="43.47289" lon="1.4628">
        <ele>217</ele>
        <time>2018-11-04T09:45:44Z</time>
      </trkpt>
      <trkpt lat="43.47291" lon="1.46273">
        <ele>217</ele>
        <time>2018-11-04T09:45:44Z</time>
      </trkpt>
      <trkpt lat="43.47294" lon="1.46266">
        <ele>217</ele>
        <time>2018-11-04T09:46:00Z</time>
      </trkpt>
      <trkpt lat="43.47296" lon="1.46259">
        <ele>217</ele>
        <time>2018-11-04T09:46:00Z</time>
      </trkpt>
      <trkpt lat="43.47299" lon="1.46251">
        <ele>217</ele>
        <time>2018-11-04T09:46:00Z</time>
      </trkpt>
      <trkpt lat="43.47302" lon="1.46244">
        <ele>217</ele>
        <time>2018-11-04T09:46:00Z</time>
      </trkpt>
      <trkpt lat="43.47303" lon="1.46238">
        <ele>217</ele>
        <time>2018-11-04T09:46:16Z</time>
      </trkpt>
      <trkpt lat="43.47304" lon="1.46236">
        <ele>217</ele>
        <time>2018-11-04T09:46:16Z</time>
      </trkpt>
      <trkpt lat="43.47306" lon="1.4623">
        <ele>217</ele>
        <time>2018-11-04T09:46:16Z</time>
      </trkpt>
      <trkpt lat="43.47308" lon="1.46222">
        <ele>217</ele>
        <time>2018-11-04T09:46:16Z</time>
      </trkpt>
      <trkpt lat="43.47311" lon="1.46214">
        <ele>217</ele>
        <time>2018-11-04T09:46:32Z</time>
      </trkpt>
      <trkpt lat="43.47314" lon="1.46207">
        <ele>212</ele>
        <time>2018-11-04T09:46:32Z</time>
      </trkpt>
      <trkpt lat="43.47315" lon="1.462">
        <ele>212</ele>
        <time>2018-11-04T09:46:32Z</time>
      </trkpt>
      <trkpt lat="43.47316" lon="1.46193">
        <ele>212</ele>
        <time>2018-11-04T09:46:32Z</time>
      </trkpt>
      <trkpt lat="43.47319" lon="1.46187">
        <ele>212</ele>
        <time>2018-11-04T09:46:48Z</time>
      </trkpt>
      <trkpt lat="43.47323" lon="1.46179">
        <ele>212</ele>
        <time>2018-11-04T09:46:48Z</time>
      </trkpt>
      <trkpt lat="43.47327" lon="1.46172">
        <ele>212</ele>
        <time>2018-11-04T09:46:48Z</time>
      </trkpt>
      <trkpt lat="43.4733" lon="1.46166">
        <ele>212</ele>
        <time>2018-11-04T09:46:48Z</time>
      </trkpt>
      <trkpt lat="43.47334" lon="1.46159">
        <ele>212</ele>
        <time>2018-11-04T09:47:04Z</time>
      </trkpt>
      <trkpt lat="43.47338" lon="1.46152">
        <ele>212</ele>
        <time>2018-11-04T09:47:04Z</time>
      </trkpt>
      <trkpt lat="43.47341" lon="1.46146">
        <ele>212</ele>
        <time>2018-11-04T09:47:04Z</time>
      </trkpt>
      <trkpt lat="43.47343" lon="1.4614">
        <ele>212</ele>
        <time>2018-11-04T09:47:04Z</time>
      </trkpt>
      <trkpt lat="43.47343" lon="1.46133">
        <ele>212</ele>
        <time>2018-11-04T09:47:20Z</time>
      </trkpt>
      <trkpt lat="43.47344" lon="1.46126">
        <ele>212</ele>
        <time>2018-11-04T09:47:20Z</time>
      </trkpt>
      <trkpt lat="43.47345" lon="1.46122">
        <ele>209</ele>
        <time>2018-11-04T09:47:20Z</time>
      </trkpt>
      <trkpt lat="43.47347" lon="1.46117">
        <ele>209</ele>
        <time>2018-11-04T09:47:20Z</time>
      </trkpt>
      <trkpt lat="43.4735" lon="1.46114">
        <ele>209</ele>
        <time>2018-11-04T09:47:36Z</time>
      </trkpt>
      <trkpt lat="43.47353" lon="1.46108">
        <ele>209</ele>
        <time>2018-11-04T09:47:36Z</time>
      </trkpt>
      <trkpt lat="43.47357" lon="1.46099">
        <ele>209</ele>
        <time>2018-11-04T09:47:36Z</time>
      </trkpt>
      <trkpt lat="43.47359" lon="1.4609">
        <ele>209</ele>
        <time>2018-11-04T09:47:36Z</time>
      </trkpt>
      <trkpt lat="43.4736" lon="1.46084">
        <ele>209</ele>
        <time>2018-11-04T09:47:52Z</time>
      </trkpt>
      <trkpt lat="43.47364" lon="1.46078">
        <ele>209</ele>
        <time>2018-11-04T09:47:52Z</time>
      </trkpt>
      <trkpt lat="43.47366" lon="1.4607">
        <ele>209</ele>
        <time>2018-11-04T09:47:52Z</time>
      </trkpt>
      <trkpt lat="43.4737" lon="1.46064">
        <ele>209</ele>
        <time>2018-11-04T09:47:52Z</time>
      </trkpt>
      <trkpt lat="43.47375" lon="1.4606">
        <ele>214</ele>
        <time>2018-11-04T09:48:08Z</time>
      </trkpt>
      <trkpt lat="43.47378" lon="1.46054">
        <ele>214</ele>
        <time>2018-11-04T09:48:08Z</time>
      </trkpt>
      <trkpt lat="43.47378" lon="1.46048">
        <ele>214</ele>
        <time>2018-11-04T09:48:08Z</time>
      </trkpt>
      <trkpt lat="43.47381" lon="1.46043">
        <ele>214</ele>
        <time>2018-11-04T09:48:08Z</time>
      </trkpt>
      <trkpt lat="43.47383" lon="1.46037">
        <ele>208</ele>
        <time>2018-11-04T09:48:24Z</time>
      </trkpt>
      <trkpt lat="43.47384" lon="1.46031">
        <ele>208</ele>
        <time>2018-11-04T09:48:24Z</time>
      </trkpt>
      <trkpt lat="43.47386" lon="1.46026">
        <ele>208</ele>
        <time>2018-11-04T09:48:24Z</time>
      </trkpt>
      <trkpt lat="43.47388" lon="1.4602">
        <ele>208</ele>
        <time>2018-11-04T09:48:24Z</time>
      </trkpt>
      <trkpt lat="43.4739" lon="1.46015">
        <ele>208</ele>
        <time>2018-11-04T09:48:40Z</time>
      </trkpt>
      <trkpt lat="43.47393" lon="1.46007">
        <ele>208</ele>
        <time>2018-11-04T09:48:40Z</time>
      </trkpt>
      <trkpt lat="43.47396" lon="1.46001">
        <ele>208</ele>
        <time>2018-11-04T09:48:40Z</time>
      </trkpt>
      <trkpt lat="43.474" lon="1.45996">
        <ele>208</ele>
        <time>2018-11-04T09:48:40Z</time>
      </trkpt>
      <trkpt lat="43.47402" lon="1.45989">
        <ele>208</ele>
        <time>2018-11-04T09:48:56Z</time>
      </trkpt>
      <trkpt lat="43.47402" lon="1.45983">
        <ele>208</ele>
        <time>2018-11-04T09:48:56Z</time>
      </trkpt>
      <trkpt lat="43.47405" lon="1.45979">
        <ele>208</ele>
        <time>2018-11-04T09:48:56Z</time>
      </trkpt>
      <trkpt lat="43.47407" lon="1.45974">
        <ele>208</ele>
        <time>2018-11-04T09:48:56Z</time>
      </trkpt>
      <trkpt lat="43.47408" lon="1.45971">
        <ele>208</ele>
        <time>2018-11-04T09:49:12Z</time>
      </trkpt>
      <trkpt lat="43.47409" lon="1.45966">
        <ele>208</ele>
        <time>2018-11-04T09:49:12Z</time>
      </trkpt>
      <trkpt lat="43.4741" lon="1.45962">
        <ele>208</ele>
        <time>2018-11-04T09:49:12Z</time>
      </trkpt>
      <trkpt lat="43.47414" lon="1.45957">
        <ele>201</ele>
        <time>2018-11-04T09:49:12Z</time>
      </trkpt>
      <trkpt lat="43.47417" lon="1.45951">
        <ele>201</ele>
        <time>2018-11-04T09:49:28Z</time>
      </trkpt>
      <trkpt lat="43.47419" lon="1.45943">
        <ele>201</ele>
        <time>2018-11-04T09:49:28Z</time>
      </trkpt>
      <trkpt lat="43.47422" lon="1.45935">
        <ele>201</ele>
        <time>2018-11-04T09:49:28Z</time>
      </trkpt>
      <trkpt lat="43.47425" lon="1.45929">
        <ele>201</ele>
        <time>2018-11-04T09:49:28Z</time>
      </trkpt>
      <trkpt lat="43.47427" lon="1.45922">
        <ele>201</ele>
        <time>2018-11-04T09:49:44Z</time>
      </trkpt>
      <trkpt lat="43.47427" lon="1.45917">
        <ele>201</ele>
        <time>2018-11-04T09:49:44Z</time>
      </trkpt>
      <trkpt lat="43.4743" lon="1.45907">
        <ele>201</ele>
        <time>2018-11-04T09:49:44Z</time>
      </trkpt>
      <trkpt lat="43.47433" lon="1.459">
        <ele>201</ele>
        <time>2018-11-04T09:49:44Z</time>
      </trkpt>
      <trkpt lat="43.47433" lon="1.45895">
        <ele>201</ele>
        <time>2018-11-04T09:50:00Z</time>
      </trkpt>
      <trkpt lat="43.47432" lon="1.45891">
        <ele>201</ele>
        <time>2018-11-04T09:50:00Z</time>
      </trkpt>
      <trkpt lat="43.4743" lon="1.45888">
        <ele>201</ele>
        <time>2018-11-04T09:50:00Z</time>
      </trkpt>
      <trkpt lat="43.47427" lon="1.45885">
        <ele>201</ele>
        <time>2018-11-04T09:50:01Z</time>
      </trkpt>
      <trkpt lat="43.47426" lon="1.4587">
        <ele>197</ele>
        <time>2018-11-04T09:51:16Z</time>
      </trkpt>
      <trkpt lat="43.47426" lon="1.4587">
        <ele>197</ele>
        <time>2018-11-04T09:51:16Z</time>
      </trkpt>
      <trkpt lat="43.47426" lon="1.45865">
        <ele>197</ele>
        <time>2018-11-04T09:51:16Z</time>
      </trkpt>
      <trkpt lat="43.47427" lon="1.45863">
        <ele>197</ele>
        <time>2018-11-04T09:51:16Z</time>
      </trkpt>
      <trkpt lat="43.47429" lon="1.4586">
        <ele>197</ele>
        <time>2018-11-04T09:51:16Z</time>
      </trkpt>
      <trkpt lat="43.47432" lon="1.45853">
        <ele>197</ele>
        <time>2018-11-04T09:51:32Z</time>
      </trkpt>
      <trkpt lat="43.47433" lon="1.45846">
        <ele>197</ele>
        <time>2018-11-04T09:51:32Z</time>
      </trkpt>
      <trkpt lat="43.47437" lon="1.45842">
        <ele>197</ele>
        <time>2018-11-04T09:51:32Z</time>
      </trkpt>
      <trkpt lat="43.4744" lon="1.45838">
        <ele>197</ele>
        <time>2018-11-04T09:51:32Z</time>
      </trkpt>
      <trkpt lat="43.47442" lon="1.45832">
        <ele>197</ele>
        <time>2018-11-04T09:51:48Z</time>
      </trkpt>
      <trkpt lat="43.47444" lon="1.45827">
        <ele>197</ele>
        <time>2018-11-04T09:51:48Z</time>
      </trkpt>
      <trkpt lat="43.47446" lon="1.45821">
        <ele>197</ele>
        <time>2018-11-04T09:51:48Z</time>
      </trkpt>
      <trkpt lat="43.47451" lon="1.45816">
        <ele>197</ele>
        <time>2018-11-04T09:51:48Z</time>
      </trkpt>
      <trkpt lat="43.47458" lon="1.45813">
        <ele>197</ele>
        <time>2018-11-04T09:52:04Z</time>
      </trkpt>
      <trkpt lat="43.47463" lon="1.4581">
        <ele>197</ele>
        <time>2018-11-04T09:52:04Z</time>
      </trkpt>
      <trkpt lat="43.47468" lon="1.45806">
        <ele>197</ele>
        <time>2018-11-04T09:52:04Z</time>
      </trkpt>
      <trkpt lat="43.47471" lon="1.45805">
        <ele>197</ele>
        <time>2018-11-04T09:52:04Z</time>
      </trkpt>
      <trkpt lat="43.47472" lon="1.45801">
        <ele>197</ele>
        <time>2018-11-04T09:52:20Z</time>
      </trkpt>
      <trkpt lat="43.47474" lon="1.45797">
        <ele>197</ele>
        <time>2018-11-04T09:52:20Z</time>
      </trkpt>
      <trkpt lat="43.47477" lon="1.45793">
        <ele>197</ele>
        <time>2018-11-04T09:52:20Z</time>
      </trkpt>
      <trkpt lat="43.47482" lon="1.45789">
        <ele>195</ele>
        <time>2018-11-04T09:52:20Z</time>
      </trkpt>
      <trkpt lat="43.47488" lon="1.45785">
        <ele>195</ele>
        <time>2018-11-04T09:52:36Z</time>
      </trkpt>
      <trkpt lat="43.47495" lon="1.45782">
        <ele>195</ele>
        <time>2018-11-04T09:52:36Z</time>
      </trkpt>
      <trkpt lat="43.47499" lon="1.45777">
        <ele>195</ele>
        <time>2018-11-04T09:52:36Z</time>
      </trkpt>
      <trkpt lat="43.475" lon="1.45773">
        <ele>195</ele>
        <time>2018-11-04T09:52:36Z</time>
      </trkpt>
      <trkpt lat="43.47505" lon="1.4577">
        <ele>195</ele>
        <time>2018-11-04T09:52:52Z</time>
      </trkpt>
      <trkpt lat="43.47511" lon="1.45767">
        <ele>195</ele>
        <time>2018-11-04T09:52:52Z</time>
      </trkpt>
      <trkpt lat="43.47514" lon="1.45763">
        <ele>195</ele>
        <time>2018-11-04T09:52:52Z</time>
      </trkpt>
      <trkpt lat="43.47517" lon="1.45759">
        <ele>195</ele>
        <time>2018-11-04T09:52:52Z</time>
      </trkpt>
      <trkpt lat="43.47517" lon="1.45757">
        <ele>195</ele>
        <time>2018-11-04T09:53:08Z</time>
      </trkpt>
      <trkpt lat="43.47518" lon="1.45753">
        <ele>195</ele>
        <time>2018-11-04T09:53:08Z</time>
      </trkpt>
      <trkpt lat="43.47527" lon="1.4575">
        <ele>195</ele>
        <time>2018-11-04T09:53:08Z</time>
      </trkpt>
      <trkpt lat="43.47536" lon="1.45747">
        <ele>195</ele>
        <time>2018-11-04T09:53:08Z</time>
      </trkpt>
      <trkpt lat="43.47544" lon="1.45744">
        <ele>196</ele>
        <time>2018-11-04T09:53:24Z</time>
      </trkpt>
      <trkpt lat="43.47551" lon="1.45741">
        <ele>196</ele>
        <time>2018-11-04T09:53:24Z</time>
      </trkpt>
      <trkpt lat="43.47557" lon="1.45738">
        <ele>196</ele>
        <time>2018-11-04T09:53:24Z</time>
      </trkpt>
      <trkpt lat="43.47564" lon="1.45737">
        <ele>196</ele>
        <time>2018-11-04T09:53:24Z</time>
      </trkpt>
      <trkpt lat="43.4757" lon="1.45734">
        <ele>196</ele>
        <time>2018-11-04T09:53:40Z</time>
      </trkpt>
      <trkpt lat="43.47576" lon="1.45732">
        <ele>196</ele>
        <time>2018-11-04T09:53:40Z</time>
      </trkpt>
      <trkpt lat="43.4758" lon="1.45729">
        <ele>196</ele>
        <time>2018-11-04T09:53:40Z</time>
      </trkpt>
      <trkpt lat="43.47584" lon="1.45724">
        <ele>196</ele>
        <time>2018-11-04T09:53:40Z</time>
      </trkpt>
      <trkpt lat="43.47595" lon="1.45719">
        <ele>196</ele>
        <time>2018-11-04T09:54:04Z</time>
      </trkpt>
      <trkpt lat="43.47596" lon="1.45718">
        <ele>196</ele>
        <time>2018-11-04T09:54:04Z</time>
      </trkpt>
      <trkpt lat="43.47595" lon="1.45715">
        <ele>196</ele>
        <time>2018-11-04T09:54:04Z</time>
      </trkpt>
      <trkpt lat="43.476" lon="1.45711">
        <ele>196</ele>
        <time>2018-11-04T09:54:04Z</time>
      </trkpt>
      <trkpt lat="43.47603" lon="1.45707">
        <ele>195</ele>
        <time>2018-11-04T09:54:04Z</time>
      </trkpt>
      <trkpt lat="43.47604" lon="1.45705">
        <ele>195</ele>
        <time>2018-11-04T09:54:20Z</time>
      </trkpt>
      <trkpt lat="43.47606" lon="1.45701">
        <ele>195</ele>
        <time>2018-11-04T09:54:20Z</time>
      </trkpt>
      <trkpt lat="43.4761" lon="1.45697">
        <ele>195</ele>
        <time>2018-11-04T09:54:20Z</time>
      </trkpt>
      <trkpt lat="43.47618" lon="1.45694">
        <ele>195</ele>
        <time>2018-11-04T09:54:20Z</time>
      </trkpt>
      <trkpt lat="43.47622" lon="1.45692">
        <ele>195</ele>
        <time>2018-11-04T09:54:36Z</time>
      </trkpt>
      <trkpt lat="43.47625" lon="1.45691">
        <ele>195</ele>
        <time>2018-11-04T09:54:36Z</time>
      </trkpt>
      <trkpt lat="43.47627" lon="1.45687">
        <ele>195</ele>
        <time>2018-11-04T09:54:36Z</time>
      </trkpt>
      <trkpt lat="43.47634" lon="1.45681">
        <ele>195</ele>
        <time>2018-11-04T09:54:36Z</time>
      </trkpt>
      <trkpt lat="43.47639" lon="1.45676">
        <ele>195</ele>
        <time>2018-11-04T09:54:52Z</time>
      </trkpt>
      <trkpt lat="43.47645" lon="1.45672">
        <ele>195</ele>
        <time>2018-11-04T09:54:52Z</time>
      </trkpt>
      <trkpt lat="43.47652" lon="1.45671">
        <ele>195</ele>
        <time>2018-11-04T09:54:52Z</time>
      </trkpt>
      <trkpt lat="43.47657" lon="1.45669">
        <ele>195</ele>
        <time>2018-11-04T09:54:52Z</time>
      </trkpt>
      <trkpt lat="43.47661" lon="1.45667">
        <ele>195</ele>
        <time>2018-11-04T09:55:08Z</time>
      </trkpt>
      <trkpt lat="43.47664" lon="1.45664">
        <ele>195</ele>
        <time>2018-11-04T09:55:08Z</time>
      </trkpt>
      <trkpt lat="43.47668" lon="1.45661">
        <ele>195</ele>
        <time>2018-11-04T09:55:08Z</time>
      </trkpt>
      <trkpt lat="43.47673" lon="1.45657">
        <ele>195</ele>
        <time>2018-11-04T09:55:08Z</time>
      </trkpt>
      <trkpt lat="43.47677" lon="1.45653">
        <ele>195</ele>
        <time>2018-11-04T09:55:24Z</time>
      </trkpt>
      <trkpt lat="43.47682" lon="1.4565">
        <ele>195</ele>
        <time>2018-11-04T09:55:24Z</time>
      </trkpt>
      <trkpt lat="43.47684" lon="1.45647">
        <ele>195</ele>
        <time>2018-11-04T09:55:24Z</time>
      </trkpt>
      <trkpt lat="43.47686" lon="1.45647">
        <ele>195</ele>
        <time>2018-11-04T09:55:24Z</time>
      </trkpt>
      <trkpt lat="43.47689" lon="1.45644">
        <ele>195</ele>
        <time>2018-11-04T09:55:40Z</time>
      </trkpt>
      <trkpt lat="43.47691" lon="1.45643">
        <ele>195</ele>
        <time>2018-11-04T09:55:40Z</time>
      </trkpt>
      <trkpt lat="43.47696" lon="1.45642">
        <ele>195</ele>
        <time>2018-11-04T09:55:40Z</time>
      </trkpt>
      <trkpt lat="43.47698" lon="1.45637">
        <ele>195</ele>
        <time>2018-11-04T09:55:40Z</time>
      </trkpt>
      <trkpt lat="43.47704" lon="1.45635">
        <ele>195</ele>
        <time>2018-11-04T09:55:56Z</time>
      </trkpt>
      <trkpt lat="43.47709" lon="1.45631">
        <ele>194</ele>
        <time>2018-11-04T09:55:56Z</time>
      </trkpt>
      <trkpt lat="43.47716" lon="1.45631">
        <ele>194</ele>
        <time>2018-11-04T09:55:56Z</time>
      </trkpt>
      <trkpt lat="43.4772" lon="1.4563">
        <ele>194</ele>
        <time>2018-11-04T09:55:56Z</time>
      </trkpt>
      <trkpt lat="43.47726" lon="1.45626">
        <ele>194</ele>
        <time>2018-11-04T09:56:12Z</time>
      </trkpt>
      <trkpt lat="43.47732" lon="1.45623">
        <ele>206</ele>
        <time>2018-11-04T09:56:12Z</time>
      </trkpt>
      <trkpt lat="43.47738" lon="1.45622">
        <ele>206</ele>
        <time>2018-11-04T09:56:12Z</time>
      </trkpt>
      <trkpt lat="43.47744" lon="1.45622">
        <ele>206</ele>
        <time>2018-11-04T09:56:12Z</time>
      </trkpt>
      <trkpt lat="43.47751" lon="1.45621">
        <ele>206</ele>
        <time>2018-11-04T09:56:28Z</time>
      </trkpt>
      <trkpt lat="43.47757" lon="1.45618">
        <ele>206</ele>
        <time>2018-11-04T09:56:28Z</time>
      </trkpt>
      <trkpt lat="43.4776" lon="1.45619">
        <ele>206</ele>
        <time>2018-11-04T09:56:28Z</time>
      </trkpt>
      <trkpt lat="43.47764" lon="1.45617">
        <ele>206</ele>
        <time>2018-11-04T09:56:28Z</time>
      </trkpt>
      <trkpt lat="43.47767" lon="1.45617">
        <ele>206</ele>
        <time>2018-11-04T09:56:44Z</time>
      </trkpt>
      <trkpt lat="43.4777" lon="1.45613">
        <ele>206</ele>
        <time>2018-11-04T09:56:44Z</time>
      </trkpt>
      <trkpt lat="43.47776" lon="1.45611">
        <ele>206</ele>
        <time>2018-11-04T09:56:44Z</time>
      </trkpt>
      <trkpt lat="43.47782" lon="1.4561">
        <ele>206</ele>
        <time>2018-11-04T09:56:44Z</time>
      </trkpt>
      <trkpt lat="43.47788" lon="1.45608">
        <ele>206</ele>
        <time>2018-11-04T09:57:00Z</time>
      </trkpt>
      <trkpt lat="43.47794" lon="1.45607">
        <ele>198</ele>
        <time>2018-11-04T09:57:00Z</time>
      </trkpt>
      <trkpt lat="43.478" lon="1.45605">
        <ele>198</ele>
        <time>2018-11-04T09:57:00Z</time>
      </trkpt>
      <trkpt lat="43.47805" lon="1.45605">
        <ele>198</ele>
        <time>2018-11-04T09:57:00Z</time>
      </trkpt>
      <trkpt lat="43.47807" lon="1.45604">
        <ele>198</ele>
        <time>2018-11-04T09:57:16Z</time>
      </trkpt>
      <trkpt lat="43.47811" lon="1.45603">
        <ele>198</ele>
        <time>2018-11-04T09:57:16Z</time>
      </trkpt>
      <trkpt lat="43.47817" lon="1.456">
        <ele>198</ele>
        <time>2018-11-04T09:57:16Z</time>
      </trkpt>
      <trkpt lat="43.47823" lon="1.45596">
        <ele>198</ele>
        <time>2018-11-04T09:57:16Z</time>
      </trkpt>
      <trkpt lat="43.47828" lon="1.45594">
        <ele>198</ele>
        <time>2018-11-04T09:57:32Z</time>
      </trkpt>
      <trkpt lat="43.47834" lon="1.45592">
        <ele>198</ele>
        <time>2018-11-04T09:57:32Z</time>
      </trkpt>
      <trkpt lat="43.47839" lon="1.4559">
        <ele>198</ele>
        <time>2018-11-04T09:57:32Z</time>
      </trkpt>
      <trkpt lat="43.47842" lon="1.45587">
        <ele>198</ele>
        <time>2018-11-04T09:57:32Z</time>
      </trkpt>
      <trkpt lat="43.47852" lon="1.45581">
        <ele>198</ele>
        <time>2018-11-04T09:57:52Z</time>
      </trkpt>
      <trkpt lat="43.47853" lon="1.45579">
        <ele>198</ele>
        <time>2018-11-04T09:57:52Z</time>
      </trkpt>
      <trkpt lat="43.47859" lon="1.45576">
        <ele>198</ele>
        <time>2018-11-04T09:57:52Z</time>
      </trkpt>
      <trkpt lat="43.47862" lon="1.45572">
        <ele>198</ele>
        <time>2018-11-04T09:57:52Z</time>
      </trkpt>
      <trkpt lat="43.47868" lon="1.45569">
        <ele>198</ele>
        <time>2018-11-04T09:58:08Z</time>
      </trkpt>
      <trkpt lat="43.47871" lon="1.45565">
        <ele>198</ele>
        <time>2018-11-04T09:58:08Z</time>
      </trkpt>
      <trkpt lat="43.47876" lon="1.45561">
        <ele>191</ele>
        <time>2018-11-04T09:58:08Z</time>
      </trkpt>
      <trkpt lat="43.47881" lon="1.45556">
        <ele>191</ele>
        <time>2018-11-04T09:58:08Z</time>
      </trkpt>
      <trkpt lat="43.47887" lon="1.45551">
        <ele>191</ele>
        <time>2018-11-04T09:58:24Z</time>
      </trkpt>
      <trkpt lat="43.47892" lon="1.45547">
        <ele>191</ele>
        <time>2018-11-04T09:58:24Z</time>
      </trkpt>
      <trkpt lat="43.47896" lon="1.45543">
        <ele>191</ele>
        <time>2018-11-04T09:58:24Z</time>
      </trkpt>
      <trkpt lat="43.47899" lon="1.45538">
        <ele>200</ele>
        <time>2018-11-04T09:58:24Z</time>
      </trkpt>
      <trkpt lat="43.47903" lon="1.45533">
        <ele>200</ele>
        <time>2018-11-04T09:58:40Z</time>
      </trkpt>
      <trkpt lat="43.47907" lon="1.45529">
        <ele>200</ele>
        <time>2018-11-04T09:58:40Z</time>
      </trkpt>
      <trkpt lat="43.47912" lon="1.45526">
        <ele>200</ele>
        <time>2018-11-04T09:58:40Z</time>
      </trkpt>
      <trkpt lat="43.47916" lon="1.45524">
        <ele>200</ele>
        <time>2018-11-04T09:58:40Z</time>
      </trkpt>
      <trkpt lat="43.47923" lon="1.45522">
        <ele>200</ele>
        <time>2018-11-04T09:59:24Z</time>
      </trkpt>
      <trkpt lat="43.47923" lon="1.45521">
        <ele>200</ele>
        <time>2018-11-04T09:59:24Z</time>
      </trkpt>
      <trkpt lat="43.47923" lon="1.45519">
        <ele>200</ele>
        <time>2018-11-04T09:59:24Z</time>
      </trkpt>
      <trkpt lat="43.47926" lon="1.45516">
        <ele>200</ele>
        <time>2018-11-04T09:59:24Z</time>
      </trkpt>
      <trkpt lat="43.47927" lon="1.45514">
        <ele>200</ele>
        <time>2018-11-04T09:59:24Z</time>
      </trkpt>
      <trkpt lat="43.47928" lon="1.45512">
        <ele>200</ele>
        <time>2018-11-04T09:59:40Z</time>
      </trkpt>
      <trkpt lat="43.4793" lon="1.45509">
        <ele>200</ele>
        <time>2018-11-04T09:59:40Z</time>
      </trkpt>
      <trkpt lat="43.47933" lon="1.45506">
        <ele>200</ele>
        <time>2018-11-04T09:59:40Z</time>
      </trkpt>
      <trkpt lat="43.47936" lon="1.45505">
        <ele>200</ele>
        <time>2018-11-04T09:59:40Z</time>
      </trkpt>
      <trkpt lat="43.47938" lon="1.45501">
        <ele>200</ele>
        <time>2018-11-04T09:59:56Z</time>
      </trkpt>
      <trkpt lat="43.4794" lon="1.45498">
        <ele>200</ele>
        <time>2018-11-04T09:59:56Z</time>
      </trkpt>
      <trkpt lat="43.47948" lon="1.45493">
        <ele>200</ele>
        <time>2018-11-04T09:59:56Z</time>
      </trkpt>
      <trkpt lat="43.47956" lon="1.45489">
        <ele>200</ele>
        <time>2018-11-04T09:59:56Z</time>
      </trkpt>
      <trkpt lat="43.47963" lon="1.45487">
        <ele>194</ele>
        <time>2018-11-04T10:00:12Z</time>
      </trkpt>
      <trkpt lat="43.47971" lon="1.45485">
        <ele>194</ele>
        <time>2018-11-04T10:00:12Z</time>
      </trkpt>
      <trkpt lat="43.47976" lon="1.45483">
        <ele>194</ele>
        <time>2018-11-04T10:00:12Z</time>
      </trkpt>
      <trkpt lat="43.47981" lon="1.45482">
        <ele>194</ele>
        <time>2018-11-04T10:00:12Z</time>
      </trkpt>
      <trkpt lat="43.47985" lon="1.45479">
        <ele>194</ele>
        <time>2018-11-04T10:00:28Z</time>
      </trkpt>
      <trkpt lat="43.47991" lon="1.45477">
        <ele>194</ele>
        <time>2018-11-04T10:00:28Z</time>
      </trkpt>
      <trkpt lat="43.47995" lon="1.45475">
        <ele>194</ele>
        <time>2018-11-04T10:00:28Z</time>
      </trkpt>
      <trkpt lat="43.47998" lon="1.45472">
        <ele>194</ele>
        <time>2018-11-04T10:00:28Z</time>
      </trkpt>
      <trkpt lat="43.48002" lon="1.4547">
        <ele>194</ele>
        <time>2018-11-04T10:00:44Z</time>
      </trkpt>
      <trkpt lat="43.48006" lon="1.45468">
        <ele>194</ele>
        <time>2018-11-04T10:00:44Z</time>
      </trkpt>
      <trkpt lat="43.48011" lon="1.45466">
        <ele>194</ele>
        <time>2018-11-04T10:00:44Z</time>
      </trkpt>
      <trkpt lat="43.48015" lon="1.45463">
        <ele>194</ele>
        <time>2018-11-04T10:00:44Z</time>
      </trkpt>
      <trkpt lat="43.48019" lon="1.4546">
        <ele>194</ele>
        <time>2018-11-04T10:01:00Z</time>
      </trkpt>
      <trkpt lat="43.48023" lon="1.45458">
        <ele>207</ele>
        <time>2018-11-04T10:01:00Z</time>
      </trkpt>
      <trkpt lat="43.48027" lon="1.45456">
        <ele>207</ele>
        <time>2018-11-04T10:01:00Z</time>
      </trkpt>
      <trkpt lat="43.48029" lon="1.45452">
        <ele>207</ele>
        <time>2018-11-04T10:01:00Z</time>
      </trkpt>
      <trkpt lat="43.48035" lon="1.45449">
        <ele>207</ele>
        <time>2018-11-04T10:01:16Z</time>
      </trkpt>
      <trkpt lat="43.48037" lon="1.45445">
        <ele>207</ele>
        <time>2018-11-04T10:01:16Z</time>
      </trkpt>
      <trkpt lat="43.48042" lon="1.45442">
        <ele>201</ele>
        <time>2018-11-04T10:01:16Z</time>
      </trkpt>
      <trkpt lat="43.48046" lon="1.45438">
        <ele>201</ele>
        <time>2018-11-04T10:01:16Z</time>
      </trkpt>
      <trkpt lat="43.48051" lon="1.45434">
        <ele>201</ele>
        <time>2018-11-04T10:01:32Z</time>
      </trkpt>
      <trkpt lat="43.48057" lon="1.45432">
        <ele>201</ele>
        <time>2018-11-04T10:01:32Z</time>
      </trkpt>
      <trkpt lat="43.48061" lon="1.45427">
        <ele>201</ele>
        <time>2018-11-04T10:01:32Z</time>
      </trkpt>
      <trkpt lat="43.48063" lon="1.45422">
        <ele>201</ele>
        <time>2018-11-04T10:01:32Z</time>
      </trkpt>
      <trkpt lat="43.48067" lon="1.45418">
        <ele>201</ele>
        <time>2018-11-04T10:01:48Z</time>
      </trkpt>
      <trkpt lat="43.48072" lon="1.45413">
        <ele>201</ele>
        <time>2018-11-04T10:01:48Z</time>
      </trkpt>
      <trkpt lat="43.48077" lon="1.45409">
        <ele>201</ele>
        <time>2018-11-04T10:01:48Z</time>
      </trkpt>
      <trkpt lat="43.48081" lon="1.45404">
        <ele>201</ele>
        <time>2018-11-04T10:01:48Z</time>
      </trkpt>
      <trkpt lat="43.48086" lon="1.454">
        <ele>201</ele>
        <time>2018-11-04T10:02:04Z</time>
      </trkpt>
      <trkpt lat="43.4809" lon="1.45394">
        <ele>201</ele>
        <time>2018-11-04T10:02:04Z</time>
      </trkpt>
      <trkpt lat="43.48091" lon="1.45389">
        <ele>201</ele>
        <time>2018-11-04T10:02:04Z</time>
      </trkpt>
      <trkpt lat="43.48093" lon="1.45386">
        <ele>201</ele>
        <time>2018-11-04T10:02:04Z</time>
      </trkpt>
      <trkpt lat="43.48095" lon="1.45382">
        <ele>201</ele>
        <time>2018-11-04T10:02:20Z</time>
      </trkpt>
      <trkpt lat="43.48099" lon="1.45377">
        <ele>201</ele>
        <time>2018-11-04T10:02:20Z</time>
      </trkpt>
      <trkpt lat="43.48103" lon="1.45371">
        <ele>205</ele>
        <time>2018-11-04T10:02:20Z</time>
      </trkpt>
      <trkpt lat="43.48106" lon="1.45366">
        <ele>205</ele>
        <time>2018-11-04T10:02:20Z</time>
      </trkpt>
      <trkpt lat="43.4811" lon="1.45361">
        <ele>205</ele>
        <time>2018-11-04T10:02:36Z</time>
      </trkpt>
      <trkpt lat="43.48112" lon="1.45354">
        <ele>205</ele>
        <time>2018-11-04T10:02:36Z</time>
      </trkpt>
      <trkpt lat="43.48113" lon="1.45347">
        <ele>205</ele>
        <time>2018-11-04T10:02:36Z</time>
      </trkpt>
      <trkpt lat="43.48116" lon="1.45341">
        <ele>205</ele>
        <time>2018-11-04T10:02:36Z</time>
      </trkpt>
      <trkpt lat="43.48119" lon="1.45334">
        <ele>205</ele>
        <time>2018-11-04T10:02:52Z</time>
      </trkpt>
      <trkpt lat="43.48118" lon="1.45328">
        <ele>205</ele>
        <time>2018-11-04T10:02:52Z</time>
      </trkpt>
      <trkpt lat="43.4812" lon="1.45323">
        <ele>205</ele>
        <time>2018-11-04T10:02:52Z</time>
      </trkpt>
      <trkpt lat="43.48126" lon="1.45318">
        <ele>197</ele>
        <time>2018-11-04T10:02:52Z</time>
      </trkpt>
      <trkpt lat="43.4813" lon="1.45314">
        <ele>197</ele>
        <time>2018-11-04T10:03:08Z</time>
      </trkpt>
      <trkpt lat="43.48132" lon="1.45308">
        <ele>197</ele>
        <time>2018-11-04T10:03:08Z</time>
      </trkpt>
      <trkpt lat="43.48135" lon="1.45303">
        <ele>197</ele>
        <time>2018-11-04T10:03:08Z</time>
      </trkpt>
      <trkpt lat="43.48137" lon="1.45293">
        <ele>197</ele>
        <time>2018-11-04T10:03:08Z</time>
      </trkpt>
      <trkpt lat="43.48138" lon="1.45286">
        <ele>201</ele>
        <time>2018-11-04T10:03:24Z</time>
      </trkpt>
      <trkpt lat="43.48138" lon="1.4528">
        <ele>201</ele>
        <time>2018-11-04T10:03:24Z</time>
      </trkpt>
      <trkpt lat="43.48141" lon="1.45273">
        <ele>201</ele>
        <time>2018-11-04T10:03:24Z</time>
      </trkpt>
      <trkpt lat="43.48144" lon="1.45268">
        <ele>201</ele>
        <time>2018-11-04T10:03:24Z</time>
      </trkpt>
      <trkpt lat="43.48147" lon="1.45261">
        <ele>201</ele>
        <time>2018-11-04T10:03:40Z</time>
      </trkpt>
      <trkpt lat="43.48146" lon="1.45254">
        <ele>201</ele>
        <time>2018-11-04T10:03:40Z</time>
      </trkpt>
      <trkpt lat="43.48147" lon="1.45248">
        <ele>201</ele>
        <time>2018-11-04T10:03:40Z</time>
      </trkpt>
      <trkpt lat="43.48147" lon="1.45244">
        <ele>201</ele>
        <time>2018-11-04T10:03:40Z</time>
      </trkpt>
      <trkpt lat="43.48148" lon="1.45239">
        <ele>201</ele>
        <time>2018-11-04T10:03:56Z</time>
      </trkpt>
      <trkpt lat="43.48148" lon="1.45233">
        <ele>201</ele>
        <time>2018-11-04T10:03:56Z</time>
      </trkpt>
      <trkpt lat="43.48148" lon="1.45228">
        <ele>201</ele>
        <time>2018-11-04T10:03:56Z</time>
      </trkpt>
      <trkpt lat="43.48148" lon="1.45221">
        <ele>201</ele>
        <time>2018-11-04T10:03:56Z</time>
      </trkpt>
      <trkpt lat="43.48147" lon="1.45215">
        <ele>201</ele>
        <time>2018-11-04T10:04:12Z</time>
      </trkpt>
      <trkpt lat="43.48146" lon="1.45209">
        <ele>201</ele>
        <time>2018-11-04T10:04:12Z</time>
      </trkpt>
      <trkpt lat="43.48147" lon="1.45205">
        <ele>207</ele>
        <time>2018-11-04T10:04:12Z</time>
      </trkpt>
      <trkpt lat="43.48146" lon="1.452">
        <ele>207</ele>
        <time>2018-11-04T10:04:12Z</time>
      </trkpt>
      <trkpt lat="43.48145" lon="1.45195">
        <ele>207</ele>
        <time>2018-11-04T10:04:28Z</time>
      </trkpt>
      <trkpt lat="43.48146" lon="1.45192">
        <ele>207</ele>
        <time>2018-11-04T10:04:28Z</time>
      </trkpt>
      <trkpt lat="43.48145" lon="1.45185">
        <ele>207</ele>
        <time>2018-11-04T10:04:28Z</time>
      </trkpt>
      <trkpt lat="43.48144" lon="1.45178">
        <ele>207</ele>
        <time>2018-11-04T10:04:28Z</time>
      </trkpt>
      <trkpt lat="43.48144" lon="1.4517">
        <ele>207</ele>
        <time>2018-11-04T10:04:44Z</time>
      </trkpt>
      <trkpt lat="43.48143" lon="1.45163">
        <ele>207</ele>
        <time>2018-11-04T10:04:44Z</time>
      </trkpt>
      <trkpt lat="43.48145" lon="1.45154">
        <ele>207</ele>
        <time>2018-11-04T10:04:44Z</time>
      </trkpt>
      <trkpt lat="43.48145" lon="1.45146">
        <ele>207</ele>
        <time>2018-11-04T10:04:44Z</time>
      </trkpt>
      <trkpt lat="43.48143" lon="1.4514">
        <ele>207</ele>
        <time>2018-11-04T10:05:00Z</time>
      </trkpt>
      <trkpt lat="43.48143" lon="1.45133">
        <ele>207</ele>
        <time>2018-11-04T10:05:00Z</time>
      </trkpt>
      <trkpt lat="43.48142" lon="1.45125">
        <ele>205</ele>
        <time>2018-11-04T10:05:00Z</time>
      </trkpt>
      <trkpt lat="43.48142" lon="1.45116">
        <ele>205</ele>
        <time>2018-11-04T10:05:00Z</time>
      </trkpt>
      <trkpt lat="43.48142" lon="1.45108">
        <ele>205</ele>
        <time>2018-11-04T10:05:16Z</time>
      </trkpt>
      <trkpt lat="43.48142" lon="1.451">
        <ele>205</ele>
        <time>2018-11-04T10:05:16Z</time>
      </trkpt>
      <trkpt lat="43.48139" lon="1.45092">
        <ele>205</ele>
        <time>2018-11-04T10:05:16Z</time>
      </trkpt>
      <trkpt lat="43.48136" lon="1.45083">
        <ele>205</ele>
        <time>2018-11-04T10:05:16Z</time>
      </trkpt>
      <trkpt lat="43.48133" lon="1.45073">
        <ele>205</ele>
        <time>2018-11-04T10:05:32Z</time>
      </trkpt>
      <trkpt lat="43.4813" lon="1.45067">
        <ele>205</ele>
        <time>2018-11-04T10:05:32Z</time>
      </trkpt>
      <trkpt lat="43.48127" lon="1.45062">
        <ele>205</ele>
        <time>2018-11-04T10:05:32Z</time>
      </trkpt>
      <trkpt lat="43.48123" lon="1.45056">
        <ele>214</ele>
        <time>2018-11-04T10:05:32Z</time>
      </trkpt>
      <trkpt lat="43.48119" lon="1.45048">
        <ele>214</ele>
        <time>2018-11-04T10:05:48Z</time>
      </trkpt>
      <trkpt lat="43.48118" lon="1.45042">
        <ele>214</ele>
        <time>2018-11-04T10:05:48Z</time>
      </trkpt>
      <trkpt lat="43.48117" lon="1.45036">
        <ele>218</ele>
        <time>2018-11-04T10:05:48Z</time>
      </trkpt>
      <trkpt lat="43.48113" lon="1.4503">
        <ele>218</ele>
        <time>2018-11-04T10:05:48Z</time>
      </trkpt>
      <trkpt lat="43.4811" lon="1.45025">
        <ele>218</ele>
        <time>2018-11-04T10:06:04Z</time>
      </trkpt>
      <trkpt lat="43.48107" lon="1.4502">
        <ele>218</ele>
        <time>2018-11-04T10:06:04Z</time>
      </trkpt>
      <trkpt lat="43.48105" lon="1.45014">
        <ele>218</ele>
        <time>2018-11-04T10:06:04Z</time>
      </trkpt>
      <trkpt lat="43.48102" lon="1.45008">
        <ele>218</ele>
        <time>2018-11-04T10:06:04Z</time>
      </trkpt>
      <trkpt lat="43.481" lon="1.45001">
        <ele>218</ele>
        <time>2018-11-04T10:06:20Z</time>
      </trkpt>
      <trkpt lat="43.48098" lon="1.44994">
        <ele>218</ele>
        <time>2018-11-04T10:06:20Z</time>
      </trkpt>
      <trkpt lat="43.48097" lon="1.44987">
        <ele>218</ele>
        <time>2018-11-04T10:06:20Z</time>
      </trkpt>
      <trkpt lat="43.48096" lon="1.4498">
        <ele>218</ele>
        <time>2018-11-04T10:06:20Z</time>
      </trkpt>
      <trkpt lat="43.48097" lon="1.44976">
        <ele>218</ele>
        <time>2018-11-04T10:06:36Z</time>
      </trkpt>
      <trkpt lat="43.48097" lon="1.44972">
        <ele>218</ele>
        <time>2018-11-04T10:06:36Z</time>
      </trkpt>
      <trkpt lat="43.48096" lon="1.44966">
        <ele>218</ele>
        <time>2018-11-04T10:06:36Z</time>
      </trkpt>
      <trkpt lat="43.48096" lon="1.44959">
        <ele>218</ele>
        <time>2018-11-04T10:06:36Z</time>
      </trkpt>
      <trkpt lat="43.48096" lon="1.44953">
        <ele>220</ele>
        <time>2018-11-04T10:06:52Z</time>
      </trkpt>
      <trkpt lat="43.48096" lon="1.44947">
        <ele>220</ele>
        <time>2018-11-04T10:06:52Z</time>
      </trkpt>
      <trkpt lat="43.48095" lon="1.44942">
        <ele>220</ele>
        <time>2018-11-04T10:06:52Z</time>
      </trkpt>
      <trkpt lat="43.48094" lon="1.44937">
        <ele>220</ele>
        <time>2018-11-04T10:06:52Z</time>
      </trkpt>
      <trkpt lat="43.48094" lon="1.44932">
        <ele>220</ele>
        <time>2018-11-04T10:07:08Z</time>
      </trkpt>
      <trkpt lat="43.48095" lon="1.44926">
        <ele>220</ele>
        <time>2018-11-04T10:07:08Z</time>
      </trkpt>
      <trkpt lat="43.48094" lon="1.44918">
        <ele>220</ele>
        <time>2018-11-04T10:07:08Z</time>
      </trkpt>
      <trkpt lat="43.48093" lon="1.44908">
        <ele>220</ele>
        <time>2018-11-04T10:07:08Z</time>
      </trkpt>
      <trkpt lat="43.48093" lon="1.449">
        <ele>220</ele>
        <time>2018-11-04T10:07:24Z</time>
      </trkpt>
      <trkpt lat="43.48093" lon="1.44894">
        <ele>220</ele>
        <time>2018-11-04T10:07:24Z</time>
      </trkpt>
      <trkpt lat="43.48095" lon="1.44888">
        <ele>220</ele>
        <time>2018-11-04T10:07:24Z</time>
      </trkpt>
      <trkpt lat="43.48096" lon="1.44878">
        <ele>220</ele>
        <time>2018-11-04T10:07:24Z</time>
      </trkpt>
      <trkpt lat="43.48098" lon="1.44869">
        <ele>219</ele>
        <time>2018-11-04T10:07:40Z</time>
      </trkpt>
      <trkpt lat="43.48098" lon="1.44861">
        <ele>219</ele>
        <time>2018-11-04T10:07:40Z</time>
      </trkpt>
      <trkpt lat="43.481" lon="1.44855">
        <ele>219</ele>
        <time>2018-11-04T10:07:40Z</time>
      </trkpt>
      <trkpt lat="43.48101" lon="1.44849">
        <ele>219</ele>
        <time>2018-11-04T10:07:40Z</time>
      </trkpt>
      <trkpt lat="43.48102" lon="1.44842">
        <ele>219</ele>
        <time>2018-11-04T10:07:56Z</time>
      </trkpt>
      <trkpt lat="43.48104" lon="1.44835">
        <ele>219</ele>
        <time>2018-11-04T10:07:56Z</time>
      </trkpt>
      <trkpt lat="43.48107" lon="1.44832">
        <ele>219</ele>
        <time>2018-11-04T10:07:56Z</time>
      </trkpt>
      <trkpt lat="43.48112" lon="1.44826">
        <ele>219</ele>
        <time>2018-11-04T10:07:56Z</time>
      </trkpt>
      <trkpt lat="43.48116" lon="1.44814">
        <ele>219</ele>
        <time>2018-11-04T10:08:28Z</time>
      </trkpt>
      <trkpt lat="43.48127" lon="1.44778">
        <ele>213</ele>
        <time>2018-11-04T10:08:28Z</time>
      </trkpt>
      <trkpt lat="43.48127" lon="1.44771">
        <ele>213</ele>
        <time>2018-11-04T10:08:28Z</time>
      </trkpt>
      <trkpt lat="43.48131" lon="1.44766">
        <ele>213</ele>
        <time>2018-11-04T10:08:28Z</time>
      </trkpt>
      <trkpt lat="43.48135" lon="1.44761">
        <ele>213</ele>
        <time>2018-11-04T10:08:44Z</time>
      </trkpt>
      <trkpt lat="43.48138" lon="1.44755">
        <ele>213</ele>
        <time>2018-11-04T10:08:44Z</time>
      </trkpt>
      <trkpt lat="43.48142" lon="1.44747">
        <ele>213</ele>
        <time>2018-11-04T10:08:44Z</time>
      </trkpt>
      <trkpt lat="43.48145" lon="1.4474">
        <ele>213</ele>
        <time>2018-11-04T10:08:44Z</time>
      </trkpt>
      <trkpt lat="43.48146" lon="1.44737">
        <ele>213</ele>
        <time>2018-11-04T10:09:00Z</time>
      </trkpt>
      <trkpt lat="43.48149" lon="1.44731">
        <ele>213</ele>
        <time>2018-11-04T10:09:00Z</time>
      </trkpt>
      <trkpt lat="43.48151" lon="1.44724">
        <ele>213</ele>
        <time>2018-11-04T10:09:00Z</time>
      </trkpt>
      <trkpt lat="43.48154" lon="1.44716">
        <ele>213</ele>
        <time>2018-11-04T10:09:00Z</time>
      </trkpt>
      <trkpt lat="43.48157" lon="1.44708">
        <ele>214</ele>
        <time>2018-11-04T10:09:16Z</time>
      </trkpt>
      <trkpt lat="43.48159" lon="1.447">
        <ele>214</ele>
        <time>2018-11-04T10:09:16Z</time>
      </trkpt>
      <trkpt lat="43.48162" lon="1.44694">
        <ele>214</ele>
        <time>2018-11-04T10:09:16Z</time>
      </trkpt>
      <trkpt lat="43.48165" lon="1.44689">
        <ele>214</ele>
        <time>2018-11-04T10:09:16Z</time>
      </trkpt>
      <trkpt lat="43.48168" lon="1.44682">
        <ele>214</ele>
        <time>2018-11-04T10:09:32Z</time>
      </trkpt>
      <trkpt lat="43.4817" lon="1.44678">
        <ele>214</ele>
        <time>2018-11-04T10:09:32Z</time>
      </trkpt>
      <trkpt lat="43.48172" lon="1.44673">
        <ele>214</ele>
        <time>2018-11-04T10:09:32Z</time>
      </trkpt>
      <trkpt lat="43.48175" lon="1.44667">
        <ele>214</ele>
        <time>2018-11-04T10:09:32Z</time>
      </trkpt>
      <trkpt lat="43.48179" lon="1.44659">
        <ele>214</ele>
        <time>2018-11-04T10:09:48Z</time>
      </trkpt>
      <trkpt lat="43.48181" lon="1.44651">
        <ele>214</ele>
        <time>2018-11-04T10:09:48Z</time>
      </trkpt>
      <trkpt lat="43.48183" lon="1.44644">
        <ele>214</ele>
        <time>2018-11-04T10:09:48Z</time>
      </trkpt>
      <trkpt lat="43.48186" lon="1.44638">
        <ele>214</ele>
        <time>2018-11-04T10:09:48Z</time>
      </trkpt>
      <trkpt lat="43.48188" lon="1.44631">
        <ele>214</ele>
        <time>2018-11-04T10:10:04Z</time>
      </trkpt>
      <trkpt lat="43.48189" lon="1.44625">
        <ele>214</ele>
        <time>2018-11-04T10:10:04Z</time>
      </trkpt>
      <trkpt lat="43.4819" lon="1.4462">
        <ele>208</ele>
        <time>2018-11-04T10:10:04Z</time>
      </trkpt>
      <trkpt lat="43.4819" lon="1.44614">
        <ele>208</ele>
        <time>2018-11-04T10:10:04Z</time>
      </trkpt>
      <trkpt lat="43.48191" lon="1.44607">
        <ele>208</ele>
        <time>2018-11-04T10:10:20Z</time>
      </trkpt>
      <trkpt lat="43.48191" lon="1.44601">
        <ele>208</ele>
        <time>2018-11-04T10:10:20Z</time>
      </trkpt>
      <trkpt lat="43.48192" lon="1.44595">
        <ele>208</ele>
        <time>2018-11-04T10:10:20Z</time>
      </trkpt>
      <trkpt lat="43.48192" lon="1.44587">
        <ele>208</ele>
        <time>2018-11-04T10:10:20Z</time>
      </trkpt>
      <trkpt lat="43.48192" lon="1.44581">
        <ele>208</ele>
        <time>2018-11-04T10:10:36Z</time>
      </trkpt>
      <trkpt lat="43.48193" lon="1.44573">
        <ele>208</ele>
        <time>2018-11-04T10:10:36Z</time>
      </trkpt>
      <trkpt lat="43.48193" lon="1.44566">
        <ele>208</ele>
        <time>2018-11-04T10:10:36Z</time>
      </trkpt>
      <trkpt lat="43.48193" lon="1.44558">
        <ele>208</ele>
        <time>2018-11-04T10:10:36Z</time>
      </trkpt>
      <trkpt lat="43.48193" lon="1.44549">
        <ele>208</ele>
        <time>2018-11-04T10:10:52Z</time>
      </trkpt>
      <trkpt lat="43.48194" lon="1.44542">
        <ele>208</ele>
        <time>2018-11-04T10:10:52Z</time>
      </trkpt>
      <trkpt lat="43.48195" lon="1.44534">
        <ele>200</ele>
        <time>2018-11-04T10:10:52Z</time>
      </trkpt>
      <trkpt lat="43.48195" lon="1.44527">
        <ele>200</ele>
        <time>2018-11-04T10:10:52Z</time>
      </trkpt>
      <trkpt lat="43.48195" lon="1.4452">
        <ele>200</ele>
        <time>2018-11-04T10:11:08Z</time>
      </trkpt>
      <trkpt lat="43.48195" lon="1.44514">
        <ele>200</ele>
        <time>2018-11-04T10:11:08Z</time>
      </trkpt>
      <trkpt lat="43.48196" lon="1.44506">
        <ele>200</ele>
        <time>2018-11-04T10:11:08Z</time>
      </trkpt>
      <trkpt lat="43.48197" lon="1.44499">
        <ele>200</ele>
        <time>2018-11-04T10:11:08Z</time>
      </trkpt>
      <trkpt lat="43.48197" lon="1.44491">
        <ele>200</ele>
        <time>2018-11-04T10:11:24Z</time>
      </trkpt>
      <trkpt lat="43.48198" lon="1.44483">
        <ele>200</ele>
        <time>2018-11-04T10:11:24Z</time>
      </trkpt>
      <trkpt lat="43.48199" lon="1.44476">
        <ele>200</ele>
        <time>2018-11-04T10:11:24Z</time>
      </trkpt>
      <trkpt lat="43.48199" lon="1.44468">
        <ele>200</ele>
        <time>2018-11-04T10:11:24Z</time>
      </trkpt>
      <trkpt lat="43.48199" lon="1.44461">
        <ele>200</ele>
        <time>2018-11-04T10:11:40Z</time>
      </trkpt>
      <trkpt lat="43.482" lon="1.44452">
        <ele>197</ele>
        <time>2018-11-04T10:11:40Z</time>
      </trkpt>
      <trkpt lat="43.482" lon="1.44443">
        <ele>197</ele>
        <time>2018-11-04T10:11:40Z</time>
      </trkpt>
      <trkpt lat="43.48201" lon="1.44434">
        <ele>197</ele>
        <time>2018-11-04T10:11:40Z</time>
      </trkpt>
      <trkpt lat="43.48201" lon="1.44426">
        <ele>197</ele>
        <time>2018-11-04T10:11:56Z</time>
      </trkpt>
      <trkpt lat="43.48203" lon="1.44418">
        <ele>197</ele>
        <time>2018-11-04T10:11:56Z</time>
      </trkpt>
      <trkpt lat="43.48205" lon="1.44412">
        <ele>197</ele>
        <time>2018-11-04T10:11:56Z</time>
      </trkpt>
      <trkpt lat="43.48204" lon="1.44406">
        <ele>197</ele>
        <time>2018-11-04T10:11:56Z</time>
      </trkpt>
      <trkpt lat="43.48204" lon="1.444">
        <ele>197</ele>
        <time>2018-11-04T10:12:12Z</time>
      </trkpt>
      <trkpt lat="43.48204" lon="1.44393">
        <ele>197</ele>
        <time>2018-11-04T10:12:12Z</time>
      </trkpt>
      <trkpt lat="43.48204" lon="1.44386">
        <ele>197</ele>
        <time>2018-11-04T10:12:12Z</time>
      </trkpt>
      <trkpt lat="43.48203" lon="1.44379">
        <ele>197</ele>
        <time>2018-11-04T10:12:12Z</time>
      </trkpt>
      <trkpt lat="43.48201" lon="1.44372">
        <ele>199</ele>
        <time>2018-11-04T10:12:28Z</time>
      </trkpt>
      <trkpt lat="43.482" lon="1.44365">
        <ele>199</ele>
        <time>2018-11-04T10:12:28Z</time>
      </trkpt>
      <trkpt lat="43.48199" lon="1.44358">
        <ele>199</ele>
        <time>2018-11-04T10:12:28Z</time>
      </trkpt>
      <trkpt lat="43.48198" lon="1.4435">
        <ele>199</ele>
        <time>2018-11-04T10:12:28Z</time>
      </trkpt>
      <trkpt lat="43.48197" lon="1.4434">
        <ele>199</ele>
        <time>2018-11-04T10:12:44Z</time>
      </trkpt>
      <trkpt lat="43.48196" lon="1.44335">
        <ele>199</ele>
        <time>2018-11-04T10:12:44Z</time>
      </trkpt>
      <trkpt lat="43.48196" lon="1.44328">
        <ele>199</ele>
        <time>2018-11-04T10:12:44Z</time>
      </trkpt>
      <trkpt lat="43.48196" lon="1.44321">
        <ele>199</ele>
        <time>2018-11-04T10:12:44Z</time>
      </trkpt>
      <trkpt lat="43.48195" lon="1.44315">
        <ele>199</ele>
        <time>2018-11-04T10:13:00Z</time>
      </trkpt>
      <trkpt lat="43.48194" lon="1.44308">
        <ele>199</ele>
        <time>2018-11-04T10:13:00Z</time>
      </trkpt>
      <trkpt lat="43.48194" lon="1.44301">
        <ele>199</ele>
        <time>2018-11-04T10:13:00Z</time>
      </trkpt>
      <trkpt lat="43.48192" lon="1.44295">
        <ele>199</ele>
        <time>2018-11-04T10:13:00Z</time>
      </trkpt>
      <trkpt lat="43.48191" lon="1.44288">
        <ele>202</ele>
        <time>2018-11-04T10:13:16Z</time>
      </trkpt>
      <trkpt lat="43.48191" lon="1.44279">
        <ele>202</ele>
        <time>2018-11-04T10:13:16Z</time>
      </trkpt>
      <trkpt lat="43.4819" lon="1.44271">
        <ele>202</ele>
        <time>2018-11-04T10:13:16Z</time>
      </trkpt>
      <trkpt lat="43.48189" lon="1.44264">
        <ele>202</ele>
        <time>2018-11-04T10:13:16Z</time>
      </trkpt>
      <trkpt lat="43.48188" lon="1.44257">
        <ele>202</ele>
        <time>2018-11-04T10:13:32Z</time>
      </trkpt>
      <trkpt lat="43.48187" lon="1.4425">
        <ele>202</ele>
        <time>2018-11-04T10:13:32Z</time>
      </trkpt>
      <trkpt lat="43.48186" lon="1.44243">
        <ele>202</ele>
        <time>2018-11-04T10:13:32Z</time>
      </trkpt>
      <trkpt lat="43.48184" lon="1.44237">
        <ele>202</ele>
        <time>2018-11-04T10:13:32Z</time>
      </trkpt>
      <trkpt lat="43.48183" lon="1.4423">
        <ele>202</ele>
        <time>2018-11-04T10:13:48Z</time>
      </trkpt>
      <trkpt lat="43.48181" lon="1.44224">
        <ele>202</ele>
        <time>2018-11-04T10:13:48Z</time>
      </trkpt>
      <trkpt lat="43.48179" lon="1.44218">
        <ele>202</ele>
        <time>2018-11-04T10:13:48Z</time>
      </trkpt>
      <trkpt lat="43.48176" lon="1.44212">
        <ele>202</ele>
        <time>2018-11-04T10:13:48Z</time>
      </trkpt>
      <trkpt lat="43.48174" lon="1.44207">
        <ele>208</ele>
        <time>2018-11-04T10:14:04Z</time>
      </trkpt>
      <trkpt lat="43.48171" lon="1.44203">
        <ele>208</ele>
        <time>2018-11-04T10:14:04Z</time>
      </trkpt>
      <trkpt lat="43.48167" lon="1.44198">
        <ele>208</ele>
        <time>2018-11-04T10:14:04Z</time>
      </trkpt>
      <trkpt lat="43.48162" lon="1.44194">
        <ele>208</ele>
        <time>2018-11-04T10:14:04Z</time>
      </trkpt>
      <trkpt lat="43.48157" lon="1.4419">
        <ele>208</ele>
        <time>2018-11-04T10:14:20Z</time>
      </trkpt>
      <trkpt lat="43.48152" lon="1.44186">
        <ele>208</ele>
        <time>2018-11-04T10:14:20Z</time>
      </trkpt>
      <trkpt lat="43.48147" lon="1.44183">
        <ele>208</ele>
        <time>2018-11-04T10:14:20Z</time>
      </trkpt>
      <trkpt lat="43.48143" lon="1.4418">
        <ele>208</ele>
        <time>2018-11-04T10:14:20Z</time>
      </trkpt>
      <trkpt lat="43.48139" lon="1.44179">
        <ele>208</ele>
        <time>2018-11-04T10:14:36Z</time>
      </trkpt>
      <trkpt lat="43.48135" lon="1.44177">
        <ele>208</ele>
        <time>2018-11-04T10:14:36Z</time>
      </trkpt>
      <trkpt lat="43.48131" lon="1.44175">
        <ele>208</ele>
        <time>2018-11-04T10:14:36Z</time>
      </trkpt>
      <trkpt lat="43.48127" lon="1.44172">
        <ele>208</ele>
        <time>2018-11-04T10:14:36Z</time>
      </trkpt>
      <trkpt lat="43.48122" lon="1.4417">
        <ele>218</ele>
        <time>2018-11-04T10:14:52Z</time>
      </trkpt>
      <trkpt lat="43.48118" lon="1.44167">
        <ele>218</ele>
        <time>2018-11-04T10:14:52Z</time>
      </trkpt>
      <trkpt lat="43.48114" lon="1.44164">
        <ele>218</ele>
        <time>2018-11-04T10:14:52Z</time>
      </trkpt>
      <trkpt lat="43.4811" lon="1.4416">
        <ele>218</ele>
        <time>2018-11-04T10:14:52Z</time>
      </trkpt>
      <trkpt lat="43.48106" lon="1.44156">
        <ele>218</ele>
        <time>2018-11-04T10:15:08Z</time>
      </trkpt>
      <trkpt lat="43.48103" lon="1.44151">
        <ele>218</ele>
        <time>2018-11-04T10:15:08Z</time>
      </trkpt>
      <trkpt lat="43.48101" lon="1.44145">
        <ele>218</ele>
        <time>2018-11-04T10:15:08Z</time>
      </trkpt>
      <trkpt lat="43.481" lon="1.44138">
        <ele>218</ele>
        <time>2018-11-04T10:15:08Z</time>
      </trkpt>
      <trkpt lat="43.48099" lon="1.44132">
        <ele>218</ele>
        <time>2018-11-04T10:15:24Z</time>
      </trkpt>
      <trkpt lat="43.48098" lon="1.44125">
        <ele>218</ele>
        <time>2018-11-04T10:15:24Z</time>
      </trkpt>
      <trkpt lat="43.48098" lon="1.44119">
        <ele>220</ele>
        <time>2018-11-04T10:15:24Z</time>
      </trkpt>
      <trkpt lat="43.48098" lon="1.44112">
        <ele>220</ele>
        <time>2018-11-04T10:15:24Z</time>
      </trkpt>
      <trkpt lat="43.48099" lon="1.44106">
        <ele>220</ele>
        <time>2018-11-04T10:15:40Z</time>
      </trkpt>
      <trkpt lat="43.481" lon="1.44099">
        <ele>220</ele>
        <time>2018-11-04T10:15:40Z</time>
      </trkpt>
      <trkpt lat="43.48102" lon="1.44093">
        <ele>220</ele>
        <time>2018-11-04T10:15:40Z</time>
      </trkpt>
      <trkpt lat="43.48103" lon="1.44088">
        <ele>220</ele>
        <time>2018-11-04T10:15:40Z</time>
      </trkpt>
      <trkpt lat="43.48105" lon="1.44083">
        <ele>220</ele>
        <time>2018-11-04T10:15:56Z</time>
      </trkpt>
      <trkpt lat="43.48106" lon="1.44077">
        <ele>220</ele>
        <time>2018-11-04T10:15:56Z</time>
      </trkpt>
      <trkpt lat="43.48107" lon="1.44071">
        <ele>220</ele>
        <time>2018-11-04T10:15:56Z</time>
      </trkpt>
      <trkpt lat="43.48109" lon="1.44066">
        <ele>220</ele>
        <time>2018-11-04T10:15:56Z</time>
      </trkpt>
      <trkpt lat="43.4811" lon="1.4406">
        <ele>220</ele>
        <time>2018-11-04T10:16:12Z</time>
      </trkpt>
      <trkpt lat="43.48111" lon="1.44054">
        <ele>220</ele>
        <time>2018-11-04T10:16:12Z</time>
      </trkpt>
      <trkpt lat="43.48112" lon="1.44049">
        <ele>220</ele>
        <time>2018-11-04T10:16:12Z</time>
      </trkpt>
      <trkpt lat="43.48113" lon="1.44042">
        <ele>220</ele>
        <time>2018-11-04T10:16:12Z</time>
      </trkpt>
      <trkpt lat="43.48114" lon="1.44035">
        <ele>229</ele>
        <time>2018-11-04T10:16:28Z</time>
      </trkpt>
      <trkpt lat="43.48115" lon="1.44028">
        <ele>229</ele>
        <time>2018-11-04T10:16:28Z</time>
      </trkpt>
      <trkpt lat="43.48115" lon="1.44021">
        <ele>229</ele>
        <time>2018-11-04T10:16:28Z</time>
      </trkpt>
      <trkpt lat="43.48116" lon="1.44014">
        <ele>229</ele>
        <time>2018-11-04T10:16:28Z</time>
      </trkpt>
      <trkpt lat="43.48117" lon="1.44008">
        <ele>229</ele>
        <time>2018-11-04T10:16:44Z</time>
      </trkpt>
      <trkpt lat="43.48118" lon="1.44001">
        <ele>229</ele>
        <time>2018-11-04T10:16:44Z</time>
      </trkpt>
      <trkpt lat="43.48119" lon="1.43994">
        <ele>229</ele>
        <time>2018-11-04T10:16:44Z</time>
      </trkpt>
      <trkpt lat="43.48119" lon="1.43987">
        <ele>229</ele>
        <time>2018-11-04T10:16:44Z</time>
      </trkpt>
      <trkpt lat="43.4812" lon="1.4398">
        <ele>229</ele>
        <time>2018-11-04T10:17:00Z</time>
      </trkpt>
      <trkpt lat="43.48121" lon="1.43973">
        <ele>229</ele>
        <time>2018-11-04T10:17:00Z</time>
      </trkpt>
      <trkpt lat="43.48121" lon="1.43965">
        <ele>229</ele>
        <time>2018-11-04T10:17:00Z</time>
      </trkpt>
      <trkpt lat="43.48121" lon="1.43958">
        <ele>240</ele>
        <time>2018-11-04T10:17:00Z</time>
      </trkpt>
      <trkpt lat="43.48121" lon="1.43951">
        <ele>240</ele>
        <time>2018-11-04T10:17:16Z</time>
      </trkpt>
      <trkpt lat="43.48122" lon="1.43945">
        <ele>240</ele>
        <time>2018-11-04T10:17:16Z</time>
      </trkpt>
      <trkpt lat="43.48123" lon="1.43938">
        <ele>240</ele>
        <time>2018-11-04T10:17:16Z</time>
      </trkpt>
      <trkpt lat="43.48123" lon="1.4393">
        <ele>240</ele>
        <time>2018-11-04T10:17:16Z</time>
      </trkpt>
      <trkpt lat="43.48123" lon="1.43923">
        <ele>240</ele>
        <time>2018-11-04T10:17:32Z</time>
      </trkpt>
      <trkpt lat="43.48124" lon="1.43916">
        <ele>240</ele>
        <time>2018-11-04T10:17:32Z</time>
      </trkpt>
      <trkpt lat="43.48124" lon="1.43909">
        <ele>240</ele>
        <time>2018-11-04T10:17:32Z</time>
      </trkpt>
      <trkpt lat="43.48124" lon="1.43902">
        <ele>240</ele>
        <time>2018-11-04T10:17:32Z</time>
      </trkpt>
      <trkpt lat="43.48125" lon="1.43895">
        <ele>240</ele>
        <time>2018-11-04T10:17:48Z</time>
      </trkpt>
      <trkpt lat="43.48125" lon="1.43888">
        <ele>226</ele>
        <time>2018-11-04T10:17:48Z</time>
      </trkpt>
      <trkpt lat="43.48125" lon="1.43881">
        <ele>226</ele>
        <time>2018-11-04T10:17:48Z</time>
      </trkpt>
      <trkpt lat="43.48126" lon="1.43873">
        <ele>232</ele>
        <time>2018-11-04T10:17:48Z</time>
      </trkpt>
      <trkpt lat="43.48127" lon="1.43866">
        <ele>232</ele>
        <time>2018-11-04T10:18:04Z</time>
      </trkpt>
      <trkpt lat="43.48126" lon="1.43859">
        <ele>232</ele>
        <time>2018-11-04T10:18:04Z</time>
      </trkpt>
      <trkpt lat="43.48125" lon="1.43854">
        <ele>232</ele>
        <time>2018-11-04T10:18:04Z</time>
      </trkpt>
      <trkpt lat="43.48125" lon="1.43847">
        <ele>232</ele>
        <time>2018-11-04T10:18:04Z</time>
      </trkpt>
      <trkpt lat="43.48125" lon="1.4384">
        <ele>232</ele>
        <time>2018-11-04T10:18:20Z</time>
      </trkpt>
      <trkpt lat="43.48126" lon="1.43832">
        <ele>232</ele>
        <time>2018-11-04T10:18:20Z</time>
      </trkpt>
      <trkpt lat="43.48126" lon="1.43824">
        <ele>232</ele>
        <time>2018-11-04T10:18:20Z</time>
      </trkpt>
      <trkpt lat="43.48127" lon="1.43817">
        <ele>232</ele>
        <time>2018-11-04T10:18:20Z</time>
      </trkpt>
      <trkpt lat="43.48127" lon="1.4381">
        <ele>232</ele>
        <time>2018-11-04T10:18:36Z</time>
      </trkpt>
      <trkpt lat="43.48127" lon="1.43802">
        <ele>232</ele>
        <time>2018-11-04T10:18:36Z</time>
      </trkpt>
      <trkpt lat="43.48127" lon="1.43795">
        <ele>232</ele>
        <time>2018-11-04T10:18:36Z</time>
      </trkpt>
      <trkpt lat="43.48127" lon="1.43788">
        <ele>235</ele>
        <time>2018-11-04T10:18:36Z</time>
      </trkpt>
      <trkpt lat="43.48134" lon="1.43773">
        <ele>235</ele>
        <time>2018-11-04T10:23:32Z</time>
      </trkpt>
      <trkpt lat="43.48135" lon="1.43774">
        <ele>235</ele>
        <time>2018-11-04T10:23:32Z</time>
      </trkpt>
      <trkpt lat="43.48136" lon="1.43774">
        <ele>235</ele>
        <time>2018-11-04T10:23:32Z</time>
      </trkpt>
      <trkpt lat="43.48136" lon="1.43774">
        <ele>235</ele>
        <time>2018-11-04T10:23:32Z</time>
      </trkpt>
      <trkpt lat="43.48136" lon="1.43774">
        <ele>235</ele>
        <time>2018-11-04T10:23:32Z</time>
      </trkpt>
      <trkpt lat="43.48136" lon="1.43774">
        <ele>235</ele>
        <time>2018-11-04T10:24:44Z</time>
      </trkpt>
      <trkpt lat="43.48136" lon="1.43774">
        <ele>235</ele>
        <time>2018-11-04T10:24:44Z</time>
      </trkpt>
      <trkpt lat="43.48136" lon="1.43772">
        <ele>235</ele>
        <time>2018-11-04T10:24:44Z</time>
      </trkpt>
      <trkpt lat="43.48136" lon="1.43766">
        <ele>235</ele>
        <time>2018-11-04T10:24:44Z</time>
      </trkpt>
      <trkpt lat="43.48136" lon="1.4376">
        <ele>235</ele>
        <time>2018-11-04T10:24:44Z</time>
      </trkpt>
      <trkpt lat="43.48135" lon="1.43754">
        <ele>235</ele>
        <time>2018-11-04T10:25:00Z</time>
      </trkpt>
      <trkpt lat="43.48135" lon="1.43749">
        <ele>235</ele>
        <time>2018-11-04T10:25:00Z</time>
      </trkpt>
      <trkpt lat="43.48135" lon="1.43742">
        <ele>235</ele>
        <time>2018-11-04T10:25:00Z</time>
      </trkpt>
      <trkpt lat="43.48136" lon="1.43734">
        <ele>235</ele>
        <time>2018-11-04T10:25:00Z</time>
      </trkpt>
      <trkpt lat="43.48137" lon="1.43725">
        <ele>235</ele>
        <time>2018-11-04T10:25:16Z</time>
      </trkpt>
      <trkpt lat="43.48138" lon="1.43718">
        <ele>235</ele>
        <time>2018-11-04T10:25:16Z</time>
      </trkpt>
      <trkpt lat="43.48139" lon="1.43709">
        <ele>235</ele>
        <time>2018-11-04T10:25:16Z</time>
      </trkpt>
      <trkpt lat="43.4814" lon="1.43701">
        <ele>240</ele>
        <time>2018-11-04T10:25:16Z</time>
      </trkpt>
      <trkpt lat="43.4814" lon="1.43694">
        <ele>240</ele>
        <time>2018-11-04T10:25:32Z</time>
      </trkpt>
      <trkpt lat="43.48142" lon="1.43687">
        <ele>240</ele>
        <time>2018-11-04T10:25:32Z</time>
      </trkpt>
      <trkpt lat="43.48142" lon="1.43681">
        <ele>240</ele>
        <time>2018-11-04T10:25:32Z</time>
      </trkpt>
      <trkpt lat="43.48143" lon="1.43674">
        <ele>240</ele>
        <time>2018-11-04T10:25:32Z</time>
      </trkpt>
      <trkpt lat="43.48144" lon="1.43666">
        <ele>240</ele>
        <time>2018-11-04T10:25:48Z</time>
      </trkpt>
      <trkpt lat="43.48144" lon="1.43659">
        <ele>240</ele>
        <time>2018-11-04T10:25:48Z</time>
      </trkpt>
      <trkpt lat="43.48145" lon="1.4365">
        <ele>240</ele>
        <time>2018-11-04T10:25:48Z</time>
      </trkpt>
      <trkpt lat="43.48144" lon="1.43642">
        <ele>240</ele>
        <time>2018-11-04T10:25:48Z</time>
      </trkpt>
      <trkpt lat="43.48143" lon="1.43634">
        <ele>240</ele>
        <time>2018-11-04T10:26:04Z</time>
      </trkpt>
      <trkpt lat="43.48141" lon="1.43626">
        <ele>240</ele>
        <time>2018-11-04T10:26:04Z</time>
      </trkpt>
      <trkpt lat="43.48138" lon="1.43619">
        <ele>244</ele>
        <time>2018-11-04T10:26:04Z</time>
      </trkpt>
      <trkpt lat="43.48134" lon="1.43614">
        <ele>244</ele>
        <time>2018-11-04T10:26:04Z</time>
      </trkpt>
      <trkpt lat="43.48131" lon="1.4361">
        <ele>244</ele>
        <time>2018-11-04T10:26:20Z</time>
      </trkpt>
      <trkpt lat="43.48128" lon="1.43605">
        <ele>244</ele>
        <time>2018-11-04T10:26:20Z</time>
      </trkpt>
      <trkpt lat="43.48124" lon="1.43601">
        <ele>262</ele>
        <time>2018-11-04T10:26:20Z</time>
      </trkpt>
      <trkpt lat="43.4812" lon="1.43598">
        <ele>262</ele>
        <time>2018-11-04T10:26:20Z</time>
      </trkpt>
      <trkpt lat="43.48117" lon="1.43594">
        <ele>262</ele>
        <time>2018-11-04T10:26:36Z</time>
      </trkpt>
      <trkpt lat="43.48114" lon="1.43586">
        <ele>262</ele>
        <time>2018-11-04T10:26:36Z</time>
      </trkpt>
      <trkpt lat="43.48113" lon="1.43579">
        <ele>262</ele>
        <time>2018-11-04T10:26:36Z</time>
      </trkpt>
      <trkpt lat="43.48111" lon="1.43572">
        <ele>262</ele>
        <time>2018-11-04T10:26:36Z</time>
      </trkpt>
      <trkpt lat="43.48108" lon="1.43566">
        <ele>262</ele>
        <time>2018-11-04T10:26:52Z</time>
      </trkpt>
      <trkpt lat="43.48107" lon="1.4356">
        <ele>262</ele>
        <time>2018-11-04T10:26:52Z</time>
      </trkpt>
      <trkpt lat="43.48105" lon="1.43552">
        <ele>262</ele>
        <time>2018-11-04T10:26:52Z</time>
      </trkpt>
      <trkpt lat="43.48104" lon="1.43545">
        <ele>262</ele>
        <time>2018-11-04T10:26:52Z</time>
      </trkpt>
      <trkpt lat="43.48103" lon="1.43537">
        <ele>267</ele>
        <time>2018-11-04T10:27:08Z</time>
      </trkpt>
      <trkpt lat="43.48102" lon="1.43529">
        <ele>267</ele>
        <time>2018-11-04T10:27:08Z</time>
      </trkpt>
      <trkpt lat="43.48101" lon="1.43523">
        <ele>267</ele>
        <time>2018-11-04T10:27:08Z</time>
      </trkpt>
      <trkpt lat="43.48101" lon="1.43515">
        <ele>267</ele>
        <time>2018-11-04T10:27:08Z</time>
      </trkpt>
      <trkpt lat="43.481" lon="1.43511">
        <ele>267</ele>
        <time>2018-11-04T10:27:24Z</time>
      </trkpt>
      <trkpt lat="43.48101" lon="1.43509">
        <ele>267</ele>
        <time>2018-11-04T10:27:24Z</time>
      </trkpt>
      <trkpt lat="43.48101" lon="1.43504">
        <ele>267</ele>
        <time>2018-11-04T10:27:24Z</time>
      </trkpt>
      <trkpt lat="43.48101" lon="1.43498">
        <ele>267</ele>
        <time>2018-11-04T10:27:24Z</time>
      </trkpt>
      <trkpt lat="43.48101" lon="1.43491">
        <ele>267</ele>
        <time>2018-11-04T10:27:40Z</time>
      </trkpt>
      <trkpt lat="43.48101" lon="1.43485">
        <ele>267</ele>
        <time>2018-11-04T10:27:40Z</time>
      </trkpt>
      <trkpt lat="43.48101" lon="1.43477">
        <ele>267</ele>
        <time>2018-11-04T10:27:40Z</time>
      </trkpt>
      <trkpt lat="43.48101" lon="1.43468">
        <ele>267</ele>
        <time>2018-11-04T10:27:40Z</time>
      </trkpt>
      <trkpt lat="43.48101" lon="1.43462">
        <ele>267</ele>
        <time>2018-11-04T10:27:56Z</time>
      </trkpt>
      <trkpt lat="43.48099" lon="1.43455">
        <ele>265</ele>
        <time>2018-11-04T10:27:56Z</time>
      </trkpt>
      <trkpt lat="43.48099" lon="1.43445">
        <ele>265</ele>
        <time>2018-11-04T10:27:56Z</time>
      </trkpt>
      <trkpt lat="43.481" lon="1.43436">
        <ele>265</ele>
        <time>2018-11-04T10:27:56Z</time>
      </trkpt>
      <trkpt lat="43.48101" lon="1.43426">
        <ele>265</ele>
        <time>2018-11-04T10:28:12Z</time>
      </trkpt>
      <trkpt lat="43.48102" lon="1.43417">
        <ele>265</ele>
        <time>2018-11-04T10:28:12Z</time>
      </trkpt>
      <trkpt lat="43.48102" lon="1.4341">
        <ele>265</ele>
        <time>2018-11-04T10:28:12Z</time>
      </trkpt>
      <trkpt lat="43.48104" lon="1.43404">
        <ele>265</ele>
        <time>2018-11-04T10:28:12Z</time>
      </trkpt>
      <trkpt lat="43.48106" lon="1.434">
        <ele>265</ele>
        <time>2018-11-04T10:28:28Z</time>
      </trkpt>
      <trkpt lat="43.48106" lon="1.43396">
        <ele>265</ele>
        <time>2018-11-04T10:28:28Z</time>
      </trkpt>
      <trkpt lat="43.48106" lon="1.4339">
        <ele>265</ele>
        <time>2018-11-04T10:28:28Z</time>
      </trkpt>
      <trkpt lat="43.48106" lon="1.43382">
        <ele>265</ele>
        <time>2018-11-04T10:28:28Z</time>
      </trkpt>
      <trkpt lat="43.48106" lon="1.43374">
        <ele>269</ele>
        <time>2018-11-04T10:28:44Z</time>
      </trkpt>
      <trkpt lat="43.48105" lon="1.43366">
        <ele>269</ele>
        <time>2018-11-04T10:28:44Z</time>
      </trkpt>
      <trkpt lat="43.48106" lon="1.4336">
        <ele>269</ele>
        <time>2018-11-04T10:28:44Z</time>
      </trkpt>
      <trkpt lat="43.48108" lon="1.43354">
        <ele>269</ele>
        <time>2018-11-04T10:28:44Z</time>
      </trkpt>
      <trkpt lat="43.48114" lon="1.43344">
        <ele>269</ele>
        <time>2018-11-04T10:30:16Z</time>
      </trkpt>
      <trkpt lat="43.48115" lon="1.43342">
        <ele>269</ele>
        <time>2018-11-04T10:30:16Z</time>
      </trkpt>
      <trkpt lat="43.48117" lon="1.43334">
        <ele>269</ele>
        <time>2018-11-04T10:30:16Z</time>
      </trkpt>
      <trkpt lat="43.4812" lon="1.43328">
        <ele>269</ele>
        <time>2018-11-04T10:30:16Z</time>
      </trkpt>
      <trkpt lat="43.48121" lon="1.43326">
        <ele>269</ele>
        <time>2018-11-04T10:30:16Z</time>
      </trkpt>
      <trkpt lat="43.48124" lon="1.43323">
        <ele>269</ele>
        <time>2018-11-04T10:30:32Z</time>
      </trkpt>
      <trkpt lat="43.48126" lon="1.43318">
        <ele>270</ele>
        <time>2018-11-04T10:30:32Z</time>
      </trkpt>
      <trkpt lat="43.48128" lon="1.43313">
        <ele>270</ele>
        <time>2018-11-04T10:30:32Z</time>
      </trkpt>
      <trkpt lat="43.48131" lon="1.43308">
        <ele>270</ele>
        <time>2018-11-04T10:30:32Z</time>
      </trkpt>
      <trkpt lat="43.48133" lon="1.43302">
        <ele>270</ele>
        <time>2018-11-04T10:30:48Z</time>
      </trkpt>
      <trkpt lat="43.48134" lon="1.43295">
        <ele>270</ele>
        <time>2018-11-04T10:30:48Z</time>
      </trkpt>
      <trkpt lat="43.48137" lon="1.43288">
        <ele>274</ele>
        <time>2018-11-04T10:30:48Z</time>
      </trkpt>
      <trkpt lat="43.4814" lon="1.4328">
        <ele>274</ele>
        <time>2018-11-04T10:30:48Z</time>
      </trkpt>
      <trkpt lat="43.48142" lon="1.43272">
        <ele>274</ele>
        <time>2018-11-04T10:31:04Z</time>
      </trkpt>
      <trkpt lat="43.48144" lon="1.43264">
        <ele>274</ele>
        <time>2018-11-04T10:31:04Z</time>
      </trkpt>
      <trkpt lat="43.48146" lon="1.43261">
        <ele>274</ele>
        <time>2018-11-04T10:31:04Z</time>
      </trkpt>
      <trkpt lat="43.4815" lon="1.43258">
        <ele>274</ele>
        <time>2018-11-04T10:31:04Z</time>
      </trkpt>
      <trkpt lat="43.48156" lon="1.43257">
        <ele>274</ele>
        <time>2018-11-04T10:31:20Z</time>
      </trkpt>
      <trkpt lat="43.48161" lon="1.43254">
        <ele>274</ele>
        <time>2018-11-04T10:31:20Z</time>
      </trkpt>
      <trkpt lat="43.48162" lon="1.43248">
        <ele>274</ele>
        <time>2018-11-04T10:31:20Z</time>
      </trkpt>
      <trkpt lat="43.48164" lon="1.43242">
        <ele>274</ele>
        <time>2018-11-04T10:31:20Z</time>
      </trkpt>
      <trkpt lat="43.48163" lon="1.43237">
        <ele>274</ele>
        <time>2018-11-04T10:31:40Z</time>
      </trkpt>
      <trkpt lat="43.48161" lon="1.43236">
        <ele>274</ele>
        <time>2018-11-04T10:31:40Z</time>
      </trkpt>
      <trkpt lat="43.4816" lon="1.43234">
        <ele>274</ele>
        <time>2018-11-04T10:31:40Z</time>
      </trkpt>
      <trkpt lat="43.48157" lon="1.43233">
        <ele>274</ele>
        <time>2018-11-04T10:31:40Z</time>
      </trkpt>
      <trkpt lat="43.48154" lon="1.4323">
        <ele>274</ele>
        <time>2018-11-04T10:31:40Z</time>
      </trkpt>
      <trkpt lat="43.48151" lon="1.43225">
        <ele>274</ele>
        <time>2018-11-04T10:31:56Z</time>
      </trkpt>
      <trkpt lat="43.48152" lon="1.43218">
        <ele>274</ele>
        <time>2018-11-04T10:31:56Z</time>
      </trkpt>
      <trkpt lat="43.48154" lon="1.43211">
        <ele>274</ele>
        <time>2018-11-04T10:31:56Z</time>
      </trkpt>
      <trkpt lat="43.48154" lon="1.43205">
        <ele>272</ele>
        <time>2018-11-04T10:31:56Z</time>
      </trkpt>
      <trkpt lat="43.48154" lon="1.43203">
        <ele>272</ele>
        <time>2018-11-04T10:32:12Z</time>
      </trkpt>
      <trkpt lat="43.48155" lon="1.43201">
        <ele>272</ele>
        <time>2018-11-04T10:32:12Z</time>
      </trkpt>
      <trkpt lat="43.48156" lon="1.43195">
        <ele>272</ele>
        <time>2018-11-04T10:32:12Z</time>
      </trkpt>
      <trkpt lat="43.48156" lon="1.43189">
        <ele>272</ele>
        <time>2018-11-04T10:32:12Z</time>
      </trkpt>
      <trkpt lat="43.48157" lon="1.43184">
        <ele>272</ele>
        <time>2018-11-04T10:32:28Z</time>
      </trkpt>
      <trkpt lat="43.48159" lon="1.43179">
        <ele>272</ele>
        <time>2018-11-04T10:32:28Z</time>
      </trkpt>
      <trkpt lat="43.4816" lon="1.43175">
        <ele>272</ele>
        <time>2018-11-04T10:32:28Z</time>
      </trkpt>
      <trkpt lat="43.48163" lon="1.43167">
        <ele>272</ele>
        <time>2018-11-04T10:32:28Z</time>
      </trkpt>
      <trkpt lat="43.48166" lon="1.43161">
        <ele>272</ele>
        <time>2018-11-04T10:32:44Z</time>
      </trkpt>
      <trkpt lat="43.4817" lon="1.43154">
        <ele>272</ele>
        <time>2018-11-04T10:32:44Z</time>
      </trkpt>
      <trkpt lat="43.48172" lon="1.4315">
        <ele>272</ele>
        <time>2018-11-04T10:32:44Z</time>
      </trkpt>
      <trkpt lat="43.48173" lon="1.43145">
        <ele>272</ele>
        <time>2018-11-04T10:32:44Z</time>
      </trkpt>
      <trkpt lat="43.48176" lon="1.43137">
        <ele>272</ele>
        <time>2018-11-04T10:33:00Z</time>
      </trkpt>
      <trkpt lat="43.4818" lon="1.43128">
        <ele>272</ele>
        <time>2018-11-04T10:33:00Z</time>
      </trkpt>
      <trkpt lat="43.48184" lon="1.4312">
        <ele>265</ele>
        <time>2018-11-04T10:33:00Z</time>
      </trkpt>
      <trkpt lat="43.48186" lon="1.43113">
        <ele>265</ele>
        <time>2018-11-04T10:33:00Z</time>
      </trkpt>
      <trkpt lat="43.4819" lon="1.43107">
        <ele>265</ele>
        <time>2018-11-04T10:33:16Z</time>
      </trkpt>
      <trkpt lat="43.48194" lon="1.43101">
        <ele>265</ele>
        <time>2018-11-04T10:33:16Z</time>
      </trkpt>
      <trkpt lat="43.48196" lon="1.43099">
        <ele>265</ele>
        <time>2018-11-04T10:33:16Z</time>
      </trkpt>
      <trkpt lat="43.48197" lon="1.43095">
        <ele>265</ele>
        <time>2018-11-04T10:33:16Z</time>
      </trkpt>
      <trkpt lat="43.482" lon="1.43091">
        <ele>265</ele>
        <time>2018-11-04T10:33:32Z</time>
      </trkpt>
      <trkpt lat="43.48202" lon="1.43086">
        <ele>265</ele>
        <time>2018-11-04T10:33:32Z</time>
      </trkpt>
      <trkpt lat="43.48204" lon="1.4308">
        <ele>265</ele>
        <time>2018-11-04T10:33:32Z</time>
      </trkpt>
      <trkpt lat="43.48205" lon="1.43071">
        <ele>265</ele>
        <time>2018-11-04T10:33:32Z</time>
      </trkpt>
      <trkpt lat="43.48207" lon="1.43064">
        <ele>265</ele>
        <time>2018-11-04T10:33:48Z</time>
      </trkpt>
      <trkpt lat="43.4821" lon="1.43059">
        <ele>269</ele>
        <time>2018-11-04T10:33:48Z</time>
      </trkpt>
      <trkpt lat="43.48211" lon="1.43053">
        <ele>269</ele>
        <time>2018-11-04T10:33:48Z</time>
      </trkpt>
      <trkpt lat="43.48214" lon="1.43047">
        <ele>269</ele>
        <time>2018-11-04T10:33:48Z</time>
      </trkpt>
      <trkpt lat="43.48217" lon="1.43042">
        <ele>260</ele>
        <time>2018-11-04T10:34:04Z</time>
      </trkpt>
      <trkpt lat="43.48218" lon="1.43039">
        <ele>260</ele>
        <time>2018-11-04T10:34:04Z</time>
      </trkpt>
      <trkpt lat="43.4822" lon="1.43035">
        <ele>260</ele>
        <time>2018-11-04T10:34:04Z</time>
      </trkpt>
      <trkpt lat="43.48222" lon="1.43029">
        <ele>260</ele>
        <time>2018-11-04T10:34:04Z</time>
      </trkpt>
      <trkpt lat="43.48225" lon="1.43023">
        <ele>260</ele>
        <time>2018-11-04T10:34:20Z</time>
      </trkpt>
      <trkpt lat="43.48227" lon="1.43014">
        <ele>260</ele>
        <time>2018-11-04T10:34:20Z</time>
      </trkpt>
      <trkpt lat="43.48229" lon="1.43007">
        <ele>260</ele>
        <time>2018-11-04T10:34:20Z</time>
      </trkpt>
      <trkpt lat="43.4823" lon="1.43004">
        <ele>260</ele>
        <time>2018-11-04T10:34:20Z</time>
      </trkpt>
      <trkpt lat="43.4823" lon="1.43001">
        <ele>260</ele>
        <time>2018-11-04T10:34:36Z</time>
      </trkpt>
      <trkpt lat="43.48232" lon="1.42999">
        <ele>260</ele>
        <time>2018-11-04T10:34:36Z</time>
      </trkpt>
      <trkpt lat="43.48236" lon="1.42991">
        <ele>260</ele>
        <time>2018-11-04T10:34:36Z</time>
      </trkpt>
      <trkpt lat="43.4824" lon="1.42983">
        <ele>260</ele>
        <time>2018-11-04T10:34:36Z</time>
      </trkpt>
      <trkpt lat="43.48245" lon="1.42974">
        <ele>260</ele>
        <time>2018-11-04T10:34:52Z</time>
      </trkpt>
      <trkpt lat="43.48251" lon="1.4297">
        <ele>260</ele>
        <time>2018-11-04T10:34:52Z</time>
      </trkpt>
      <trkpt lat="43.48254" lon="1.42963">
        <ele>260</ele>
        <time>2018-11-04T10:34:52Z</time>
      </trkpt>
      <trkpt lat="43.48259" lon="1.42956">
        <ele>254</ele>
        <time>2018-11-04T10:34:52Z</time>
      </trkpt>
      <trkpt lat="43.48264" lon="1.42951">
        <ele>254</ele>
        <time>2018-11-04T10:35:08Z</time>
      </trkpt>
      <trkpt lat="43.48267" lon="1.42943">
        <ele>254</ele>
        <time>2018-11-04T10:35:08Z</time>
      </trkpt>
      <trkpt lat="43.48269" lon="1.42935">
        <ele>254</ele>
        <time>2018-11-04T10:35:08Z</time>
      </trkpt>
      <trkpt lat="43.48271" lon="1.42929">
        <ele>254</ele>
        <time>2018-11-04T10:35:08Z</time>
      </trkpt>
      <trkpt lat="43.48273" lon="1.42924">
        <ele>254</ele>
        <time>2018-11-04T10:35:24Z</time>
      </trkpt>
      <trkpt lat="43.48275" lon="1.42919">
        <ele>254</ele>
        <time>2018-11-04T10:35:24Z</time>
      </trkpt>
      <trkpt lat="43.48278" lon="1.42912">
        <ele>254</ele>
        <time>2018-11-04T10:35:24Z</time>
      </trkpt>
      <trkpt lat="43.48281" lon="1.42905">
        <ele>254</ele>
        <time>2018-11-04T10:35:24Z</time>
      </trkpt>
      <trkpt lat="43.48284" lon="1.42899">
        <ele>254</ele>
        <time>2018-11-04T10:35:40Z</time>
      </trkpt>
      <trkpt lat="43.48286" lon="1.42892">
        <ele>254</ele>
        <time>2018-11-04T10:35:40Z</time>
      </trkpt>
      <trkpt lat="43.48288" lon="1.42886">
        <ele>254</ele>
        <time>2018-11-04T10:35:40Z</time>
      </trkpt>
      <trkpt lat="43.48291" lon="1.42878">
        <ele>254</ele>
        <time>2018-11-04T10:35:40Z</time>
      </trkpt>
      <trkpt lat="43.48293" lon="1.42872">
        <ele>248</ele>
        <time>2018-11-04T10:35:56Z</time>
      </trkpt>
      <trkpt lat="43.48295" lon="1.42865">
        <ele>248</ele>
        <time>2018-11-04T10:35:56Z</time>
      </trkpt>
      <trkpt lat="43.48297" lon="1.4286">
        <ele>248</ele>
        <time>2018-11-04T10:35:56Z</time>
      </trkpt>
      <trkpt lat="43.48298" lon="1.42855">
        <ele>248</ele>
        <time>2018-11-04T10:35:56Z</time>
      </trkpt>
      <trkpt lat="43.483" lon="1.42849">
        <ele>248</ele>
        <time>2018-11-04T10:36:12Z</time>
      </trkpt>
      <trkpt lat="43.48303" lon="1.42842">
        <ele>248</ele>
        <time>2018-11-04T10:36:12Z</time>
      </trkpt>
      <trkpt lat="43.48305" lon="1.42836">
        <ele>248</ele>
        <time>2018-11-04T10:36:12Z</time>
      </trkpt>
      <trkpt lat="43.48307" lon="1.42829">
        <ele>248</ele>
        <time>2018-11-04T10:36:12Z</time>
      </trkpt>
      <trkpt lat="43.4831" lon="1.42822">
        <ele>248</ele>
        <time>2018-11-04T10:36:28Z</time>
      </trkpt>
      <trkpt lat="43.48313" lon="1.42816">
        <ele>248</ele>
        <time>2018-11-04T10:36:28Z</time>
      </trkpt>
      <trkpt lat="43.48315" lon="1.42808">
        <ele>248</ele>
        <time>2018-11-04T10:36:28Z</time>
      </trkpt>
      <trkpt lat="43.48318" lon="1.42801">
        <ele>248</ele>
        <time>2018-11-04T10:36:28Z</time>
      </trkpt>
      <trkpt lat="43.48318" lon="1.42794">
        <ele>248</ele>
        <time>2018-11-04T10:36:44Z</time>
      </trkpt>
      <trkpt lat="43.48321" lon="1.42788">
        <ele>241</ele>
        <time>2018-11-04T10:36:44Z</time>
      </trkpt>
      <trkpt lat="43.48323" lon="1.42783">
        <ele>241</ele>
        <time>2018-11-04T10:36:44Z</time>
      </trkpt>
      <trkpt lat="43.48324" lon="1.42777">
        <ele>241</ele>
        <time>2018-11-04T10:36:44Z</time>
      </trkpt>
      <trkpt lat="43.48326" lon="1.42771">
        <ele>241</ele>
        <time>2018-11-04T10:37:00Z</time>
      </trkpt>
      <trkpt lat="43.48329" lon="1.42766">
        <ele>241</ele>
        <time>2018-11-04T10:37:00Z</time>
      </trkpt>
      <trkpt lat="43.4833" lon="1.4276">
        <ele>241</ele>
        <time>2018-11-04T10:37:00Z</time>
      </trkpt>
      <trkpt lat="43.4833" lon="1.42754">
        <ele>241</ele>
        <time>2018-11-04T10:37:00Z</time>
      </trkpt>
      <trkpt lat="43.48332" lon="1.42747">
        <ele>241</ele>
        <time>2018-11-04T10:37:16Z</time>
      </trkpt>
      <trkpt lat="43.48334" lon="1.42741">
        <ele>241</ele>
        <time>2018-11-04T10:37:16Z</time>
      </trkpt>
      <trkpt lat="43.48335" lon="1.42734">
        <ele>241</ele>
        <time>2018-11-04T10:37:16Z</time>
      </trkpt>
      <trkpt lat="43.48337" lon="1.42728">
        <ele>241</ele>
        <time>2018-11-04T10:37:16Z</time>
      </trkpt>
      <trkpt lat="43.4834" lon="1.42722">
        <ele>241</ele>
        <time>2018-11-04T10:37:32Z</time>
      </trkpt>
      <trkpt lat="43.48342" lon="1.42714">
        <ele>241</ele>
        <time>2018-11-04T10:37:32Z</time>
      </trkpt>
      <trkpt lat="43.48344" lon="1.42707">
        <ele>237</ele>
        <time>2018-11-04T10:37:32Z</time>
      </trkpt>
      <trkpt lat="43.48346" lon="1.42701">
        <ele>237</ele>
        <time>2018-11-04T10:37:32Z</time>
      </trkpt>
      <trkpt lat="43.48347" lon="1.42695">
        <ele>237</ele>
        <time>2018-11-04T10:37:48Z</time>
      </trkpt>
      <trkpt lat="43.4835" lon="1.42687">
        <ele>237</ele>
        <time>2018-11-04T10:37:48Z</time>
      </trkpt>
      <trkpt lat="43.48352" lon="1.42678">
        <ele>237</ele>
        <time>2018-11-04T10:37:48Z</time>
      </trkpt>
      <trkpt lat="43.48355" lon="1.42671">
        <ele>237</ele>
        <time>2018-11-04T10:37:48Z</time>
      </trkpt>
      <trkpt lat="43.48356" lon="1.42663">
        <ele>237</ele>
        <time>2018-11-04T10:38:04Z</time>
      </trkpt>
      <trkpt lat="43.48356" lon="1.42656">
        <ele>237</ele>
        <time>2018-11-04T10:38:04Z</time>
      </trkpt>
      <trkpt lat="43.48358" lon="1.42649">
        <ele>237</ele>
        <time>2018-11-04T10:38:04Z</time>
      </trkpt>
      <trkpt lat="43.48359" lon="1.42643">
        <ele>237</ele>
        <time>2018-11-04T10:38:04Z</time>
      </trkpt>
      <trkpt lat="43.4836" lon="1.42637">
        <ele>237</ele>
        <time>2018-11-04T10:38:20Z</time>
      </trkpt>
      <trkpt lat="43.48362" lon="1.4263">
        <ele>237</ele>
        <time>2018-11-04T10:38:20Z</time>
      </trkpt>
      <trkpt lat="43.48363" lon="1.42625">
        <ele>235</ele>
        <time>2018-11-04T10:38:20Z</time>
      </trkpt>
      <trkpt lat="43.48365" lon="1.42617">
        <ele>235</ele>
        <time>2018-11-04T10:38:20Z</time>
      </trkpt>
      <trkpt lat="43.48367" lon="1.4261">
        <ele>235</ele>
        <time>2018-11-04T10:38:36Z</time>
      </trkpt>
      <trkpt lat="43.48369" lon="1.42605">
        <ele>235</ele>
        <time>2018-11-04T10:38:36Z</time>
      </trkpt>
      <trkpt lat="43.4837" lon="1.42598">
        <ele>235</ele>
        <time>2018-11-04T10:38:36Z</time>
      </trkpt>
      <trkpt lat="43.48371" lon="1.42591">
        <ele>235</ele>
        <time>2018-11-04T10:38:36Z</time>
      </trkpt>
      <trkpt lat="43.48371" lon="1.42584">
        <ele>235</ele>
        <time>2018-11-04T10:38:52Z</time>
      </trkpt>
      <trkpt lat="43.48373" lon="1.42577">
        <ele>235</ele>
        <time>2018-11-04T10:38:52Z</time>
      </trkpt>
      <trkpt lat="43.48375" lon="1.42571">
        <ele>235</ele>
        <time>2018-11-04T10:38:52Z</time>
      </trkpt>
      <trkpt lat="43.48376" lon="1.42565">
        <ele>239</ele>
        <time>2018-11-04T10:38:52Z</time>
      </trkpt>
      <trkpt lat="43.48378" lon="1.42558">
        <ele>239</ele>
        <time>2018-11-04T10:39:08Z</time>
      </trkpt>
      <trkpt lat="43.48378" lon="1.42552">
        <ele>239</ele>
        <time>2018-11-04T10:39:08Z</time>
      </trkpt>
      <trkpt lat="43.48379" lon="1.42545">
        <ele>239</ele>
        <time>2018-11-04T10:39:08Z</time>
      </trkpt>
      <trkpt lat="43.4838" lon="1.42539">
        <ele>232</ele>
        <time>2018-11-04T10:39:08Z</time>
      </trkpt>
      <trkpt lat="43.48381" lon="1.42534">
        <ele>232</ele>
        <time>2018-11-04T10:39:24Z</time>
      </trkpt>
      <trkpt lat="43.48382" lon="1.42527">
        <ele>232</ele>
        <time>2018-11-04T10:39:24Z</time>
      </trkpt>
      <trkpt lat="43.48384" lon="1.4252">
        <ele>232</ele>
        <time>2018-11-04T10:39:24Z</time>
      </trkpt>
      <trkpt lat="43.48384" lon="1.42513">
        <ele>232</ele>
        <time>2018-11-04T10:39:24Z</time>
      </trkpt>
      <trkpt lat="43.48386" lon="1.42506">
        <ele>232</ele>
        <time>2018-11-04T10:39:40Z</time>
      </trkpt>
      <trkpt lat="43.48386" lon="1.42499">
        <ele>232</ele>
        <time>2018-11-04T10:39:40Z</time>
      </trkpt>
      <trkpt lat="43.48387" lon="1.42492">
        <ele>232</ele>
        <time>2018-11-04T10:39:40Z</time>
      </trkpt>
      <trkpt lat="43.48387" lon="1.42485">
        <ele>232</ele>
        <time>2018-11-04T10:39:40Z</time>
      </trkpt>
      <trkpt lat="43.48389" lon="1.42478">
        <ele>232</ele>
        <time>2018-11-04T10:39:56Z</time>
      </trkpt>
      <trkpt lat="43.4839" lon="1.42472">
        <ele>232</ele>
        <time>2018-11-04T10:39:56Z</time>
      </trkpt>
      <trkpt lat="43.48389" lon="1.42465">
        <ele>232</ele>
        <time>2018-11-04T10:39:56Z</time>
      </trkpt>
      <trkpt lat="43.4839" lon="1.42458">
        <ele>227</ele>
        <time>2018-11-04T10:39:56Z</time>
      </trkpt>
      <trkpt lat="43.48392" lon="1.42453">
        <ele>227</ele>
        <time>2018-11-04T10:40:12Z</time>
      </trkpt>
      <trkpt lat="43.48392" lon="1.42447">
        <ele>227</ele>
        <time>2018-11-04T10:40:12Z</time>
      </trkpt>
      <trkpt lat="43.48393" lon="1.4244">
        <ele>227</ele>
        <time>2018-11-04T10:40:12Z</time>
      </trkpt>
      <trkpt lat="43.48394" lon="1.42433">
        <ele>227</ele>
        <time>2018-11-04T10:40:12Z</time>
      </trkpt>
      <trkpt lat="43.48395" lon="1.42425">
        <ele>227</ele>
        <time>2018-11-04T10:40:28Z</time>
      </trkpt>
      <trkpt lat="43.48395" lon="1.42418">
        <ele>227</ele>
        <time>2018-11-04T10:40:28Z</time>
      </trkpt>
      <trkpt lat="43.48397" lon="1.4241">
        <ele>227</ele>
        <time>2018-11-04T10:40:28Z</time>
      </trkpt>
      <trkpt lat="43.48398" lon="1.42404">
        <ele>227</ele>
        <time>2018-11-04T10:40:28Z</time>
      </trkpt>
      <trkpt lat="43.48398" lon="1.42402">
        <ele>227</ele>
        <time>2018-11-04T10:40:44Z</time>
      </trkpt>
      <trkpt lat="43.48398" lon="1.42399">
        <ele>227</ele>
        <time>2018-11-04T10:40:44Z</time>
      </trkpt>
      <trkpt lat="43.48399" lon="1.42393">
        <ele>227</ele>
        <time>2018-11-04T10:40:44Z</time>
      </trkpt>
      <trkpt lat="43.48401" lon="1.42386">
        <ele>227</ele>
        <time>2018-11-04T10:40:44Z</time>
      </trkpt>
      <trkpt lat="43.48403" lon="1.42375">
        <ele>227</ele>
        <time>2018-11-04T10:41:00Z</time>
      </trkpt>
      <trkpt lat="43.48404" lon="1.42368">
        <ele>220</ele>
        <time>2018-11-04T10:41:00Z</time>
      </trkpt>
      <trkpt lat="43.48405" lon="1.42361">
        <ele>220</ele>
        <time>2018-11-04T10:41:00Z</time>
      </trkpt>
      <trkpt lat="43.48406" lon="1.42353">
        <ele>220</ele>
        <time>2018-11-04T10:41:00Z</time>
      </trkpt>
      <trkpt lat="43.48408" lon="1.42344">
        <ele>220</ele>
        <time>2018-11-04T10:41:16Z</time>
      </trkpt>
      <trkpt lat="43.48409" lon="1.42336">
        <ele>220</ele>
        <time>2018-11-04T10:41:16Z</time>
      </trkpt>
      <trkpt lat="43.4841" lon="1.4233">
        <ele>220</ele>
        <time>2018-11-04T10:41:16Z</time>
      </trkpt>
      <trkpt lat="43.48412" lon="1.42325">
        <ele>220</ele>
        <time>2018-11-04T10:41:16Z</time>
      </trkpt>
      <trkpt lat="43.48413" lon="1.42318">
        <ele>220</ele>
        <time>2018-11-04T10:41:32Z</time>
      </trkpt>
      <trkpt lat="43.48414" lon="1.42313">
        <ele>220</ele>
        <time>2018-11-04T10:41:32Z</time>
      </trkpt>
      <trkpt lat="43.48414" lon="1.42306">
        <ele>220</ele>
        <time>2018-11-04T10:41:32Z</time>
      </trkpt>
      <trkpt lat="43.48415" lon="1.423">
        <ele>220</ele>
        <time>2018-11-04T10:41:32Z</time>
      </trkpt>
      <trkpt lat="43.48415" lon="1.42295">
        <ele>220</ele>
        <time>2018-11-04T10:41:48Z</time>
      </trkpt>
      <trkpt lat="43.48416" lon="1.42289">
        <ele>214</ele>
        <time>2018-11-04T10:41:48Z</time>
      </trkpt>
      <trkpt lat="43.48418" lon="1.42281">
        <ele>214</ele>
        <time>2018-11-04T10:41:48Z</time>
      </trkpt>
      <trkpt lat="43.48421" lon="1.42273">
        <ele>214</ele>
        <time>2018-11-04T10:41:48Z</time>
      </trkpt>
      <trkpt lat="43.48422" lon="1.42267">
        <ele>214</ele>
        <time>2018-11-04T10:42:04Z</time>
      </trkpt>
      <trkpt lat="43.48423" lon="1.42255">
        <ele>214</ele>
        <time>2018-11-04T10:42:04Z</time>
      </trkpt>
      <trkpt lat="43.48425" lon="1.42248">
        <ele>214</ele>
        <time>2018-11-04T10:42:04Z</time>
      </trkpt>
      <trkpt lat="43.48428" lon="1.4224">
        <ele>214</ele>
        <time>2018-11-04T10:42:04Z</time>
      </trkpt>
      <trkpt lat="43.48431" lon="1.42231">
        <ele>214</ele>
        <time>2018-11-04T10:42:20Z</time>
      </trkpt>
      <trkpt lat="43.4843" lon="1.42224">
        <ele>214</ele>
        <time>2018-11-04T10:42:20Z</time>
      </trkpt>
      <trkpt lat="43.48426" lon="1.42222">
        <ele>214</ele>
        <time>2018-11-04T10:42:20Z</time>
      </trkpt>
      <trkpt lat="43.48424" lon="1.42216">
        <ele>214</ele>
        <time>2018-11-04T10:42:20Z</time>
      </trkpt>
      <trkpt lat="43.48423" lon="1.42208">
        <ele>213</ele>
        <time>2018-11-04T10:42:36Z</time>
      </trkpt>
      <trkpt lat="43.48422" lon="1.42202">
        <ele>213</ele>
        <time>2018-11-04T10:42:36Z</time>
      </trkpt>
      <trkpt lat="43.48419" lon="1.42198">
        <ele>213</ele>
        <time>2018-11-04T10:42:36Z</time>
      </trkpt>
      <trkpt lat="43.48415" lon="1.42194">
        <ele>213</ele>
        <time>2018-11-04T10:42:36Z</time>
      </trkpt>
      <trkpt lat="43.48413" lon="1.42189">
        <ele>213</ele>
        <time>2018-11-04T10:42:52Z</time>
      </trkpt>
      <trkpt lat="43.4841" lon="1.42183">
        <ele>213</ele>
        <time>2018-11-04T10:42:52Z</time>
      </trkpt>
      <trkpt lat="43.48406" lon="1.42178">
        <ele>213</ele>
        <time>2018-11-04T10:42:52Z</time>
      </trkpt>
      <trkpt lat="43.48403" lon="1.42173">
        <ele>213</ele>
        <time>2018-11-04T10:42:52Z</time>
      </trkpt>
      <trkpt lat="43.484" lon="1.42169">
        <ele>213</ele>
        <time>2018-11-04T10:43:08Z</time>
      </trkpt>
      <trkpt lat="43.48398" lon="1.42165">
        <ele>213</ele>
        <time>2018-11-04T10:43:08Z</time>
      </trkpt>
      <trkpt lat="43.48394" lon="1.42161">
        <ele>213</ele>
        <time>2018-11-04T10:43:08Z</time>
      </trkpt>
      <trkpt lat="43.4839" lon="1.42155">
        <ele>213</ele>
        <time>2018-11-04T10:43:08Z</time>
      </trkpt>
      <trkpt lat="43.48386" lon="1.42149">
        <ele>213</ele>
        <time>2018-11-04T10:43:24Z</time>
      </trkpt>
      <trkpt lat="43.48384" lon="1.42142">
        <ele>213</ele>
        <time>2018-11-04T10:43:24Z</time>
      </trkpt>
      <trkpt lat="43.48381" lon="1.42137">
        <ele>213</ele>
        <time>2018-11-04T10:43:24Z</time>
      </trkpt>
      <trkpt lat="43.48378" lon="1.42135">
        <ele>213</ele>
        <time>2018-11-04T10:43:24Z</time>
      </trkpt>
      <trkpt lat="43.48375" lon="1.42133">
        <ele>213</ele>
        <time>2018-11-04T10:43:40Z</time>
      </trkpt>
      <trkpt lat="43.4837" lon="1.42131">
        <ele>205</ele>
        <time>2018-11-04T10:43:40Z</time>
      </trkpt>
      <trkpt lat="43.48368" lon="1.42127">
        <ele>205</ele>
        <time>2018-11-04T10:43:40Z</time>
      </trkpt>
      <trkpt lat="43.48364" lon="1.42122">
        <ele>204</ele>
        <time>2018-11-04T10:43:40Z</time>
      </trkpt>
      <trkpt lat="43.4836" lon="1.42119">
        <ele>204</ele>
        <time>2018-11-04T10:43:56Z</time>
      </trkpt>
      <trkpt lat="43.48355" lon="1.42117">
        <ele>204</ele>
        <time>2018-11-04T10:43:56Z</time>
      </trkpt>
      <trkpt lat="43.48351" lon="1.42116">
        <ele>204</ele>
        <time>2018-11-04T10:43:56Z</time>
      </trkpt>
      <trkpt lat="43.4835" lon="1.42115">
        <ele>204</ele>
        <time>2018-11-04T10:43:56Z</time>
      </trkpt>
      <trkpt lat="43.48349" lon="1.42113">
        <ele>204</ele>
        <time>2018-11-04T10:44:16Z</time>
      </trkpt>
      <trkpt lat="43.48349" lon="1.42112">
        <ele>204</ele>
        <time>2018-11-04T10:44:16Z</time>
      </trkpt>
      <trkpt lat="43.48347" lon="1.42108">
        <ele>204</ele>
        <time>2018-11-04T10:44:16Z</time>
      </trkpt>
      <trkpt lat="43.48345" lon="1.42103">
        <ele>204</ele>
        <time>2018-11-04T10:44:16Z</time>
      </trkpt>
      <trkpt lat="43.48346" lon="1.42092">
        <ele>204</ele>
        <time>2018-11-04T10:44:16Z</time>
      </trkpt>
      <trkpt lat="43.48345" lon="1.42083">
        <ele>204</ele>
        <time>2018-11-04T10:44:32Z</time>
      </trkpt>
      <trkpt lat="43.48343" lon="1.42076">
        <ele>204</ele>
        <time>2018-11-04T10:44:32Z</time>
      </trkpt>
      <trkpt lat="43.48341" lon="1.42068">
        <ele>204</ele>
        <time>2018-11-04T10:44:32Z</time>
      </trkpt>
      <trkpt lat="43.4834" lon="1.42062">
        <ele>204</ele>
        <time>2018-11-04T10:44:32Z</time>
      </trkpt>
      <trkpt lat="43.48335" lon="1.42055">
        <ele>204</ele>
        <time>2018-11-04T10:44:48Z</time>
      </trkpt>
      <trkpt lat="43.48333" lon="1.42047">
        <ele>204</ele>
        <time>2018-11-04T10:44:48Z</time>
      </trkpt>
      <trkpt lat="43.48331" lon="1.42041">
        <ele>200</ele>
        <time>2018-11-04T10:44:48Z</time>
      </trkpt>
      <trkpt lat="43.48329" lon="1.42033">
        <ele>200</ele>
        <time>2018-11-04T10:44:48Z</time>
      </trkpt>
      <trkpt lat="43.48325" lon="1.42026">
        <ele>200</ele>
        <time>2018-11-04T10:45:04Z</time>
      </trkpt>
      <trkpt lat="43.48319" lon="1.42025">
        <ele>200</ele>
        <time>2018-11-04T10:45:04Z</time>
      </trkpt>
      <trkpt lat="43.48314" lon="1.42023">
        <ele>200</ele>
        <time>2018-11-04T10:45:04Z</time>
      </trkpt>
      <trkpt lat="43.48315" lon="1.42016">
        <ele>200</ele>
        <time>2018-11-04T10:45:04Z</time>
      </trkpt>
      <trkpt lat="43.48314" lon="1.42006">
        <ele>200</ele>
        <time>2018-11-04T10:45:20Z</time>
      </trkpt>
      <trkpt lat="43.48314" lon="1.41995">
        <ele>200</ele>
        <time>2018-11-04T10:45:20Z</time>
      </trkpt>
      <trkpt lat="43.48315" lon="1.41984">
        <ele>200</ele>
        <time>2018-11-04T10:45:20Z</time>
      </trkpt>
      <trkpt lat="43.48313" lon="1.41977">
        <ele>200</ele>
        <time>2018-11-04T10:45:20Z</time>
      </trkpt>
      <trkpt lat="43.48314" lon="1.41969">
        <ele>200</ele>
        <time>2018-11-04T10:45:36Z</time>
      </trkpt>
      <trkpt lat="43.48314" lon="1.41963">
        <ele>200</ele>
        <time>2018-11-04T10:45:36Z</time>
      </trkpt>
      <trkpt lat="43.48312" lon="1.41956">
        <ele>197</ele>
        <time>2018-11-04T10:45:36Z</time>
      </trkpt>
      <trkpt lat="43.48312" lon="1.41948">
        <ele>197</ele>
        <time>2018-11-04T10:45:36Z</time>
      </trkpt>
      <trkpt lat="43.4831" lon="1.4194">
        <ele>197</ele>
        <time>2018-11-04T10:45:52Z</time>
      </trkpt>
      <trkpt lat="43.48311" lon="1.41935">
        <ele>197</ele>
        <time>2018-11-04T10:45:52Z</time>
      </trkpt>
      <trkpt lat="43.48311" lon="1.4193">
        <ele>197</ele>
        <time>2018-11-04T10:45:52Z</time>
      </trkpt>
      <trkpt lat="43.4831" lon="1.41925">
        <ele>197</ele>
        <time>2018-11-04T10:45:52Z</time>
      </trkpt>
      <trkpt lat="43.48308" lon="1.4192">
        <ele>197</ele>
        <time>2018-11-04T10:46:08Z</time>
      </trkpt>
      <trkpt lat="43.48309" lon="1.41913">
        <ele>197</ele>
        <time>2018-11-04T10:46:08Z</time>
      </trkpt>
      <trkpt lat="43.4831" lon="1.41905">
        <ele>197</ele>
        <time>2018-11-04T10:46:08Z</time>
      </trkpt>
      <trkpt lat="43.48311" lon="1.41898">
        <ele>197</ele>
        <time>2018-11-04T10:46:08Z</time>
      </trkpt>
      <trkpt lat="43.48311" lon="1.4189">
        <ele>197</ele>
        <time>2018-11-04T10:46:24Z</time>
      </trkpt>
      <trkpt lat="43.48308" lon="1.41885">
        <ele>197</ele>
        <time>2018-11-04T10:46:24Z</time>
      </trkpt>
      <trkpt lat="43.4831" lon="1.41876">
        <ele>197</ele>
        <time>2018-11-04T10:46:24Z</time>
      </trkpt>
      <trkpt lat="43.48312" lon="1.41868">
        <ele>190</ele>
        <time>2018-11-04T10:46:24Z</time>
      </trkpt>
      <trkpt lat="43.48314" lon="1.41861">
        <ele>190</ele>
        <time>2018-11-04T10:46:40Z</time>
      </trkpt>
      <trkpt lat="43.48315" lon="1.41854">
        <ele>190</ele>
        <time>2018-11-04T10:46:40Z</time>
      </trkpt>
      <trkpt lat="43.48314" lon="1.41848">
        <ele>190</ele>
        <time>2018-11-04T10:46:40Z</time>
      </trkpt>
      <trkpt lat="43.48317" lon="1.41843">
        <ele>190</ele>
        <time>2018-11-04T10:46:40Z</time>
      </trkpt>
      <trkpt lat="43.48318" lon="1.41837">
        <ele>190</ele>
        <time>2018-11-04T10:46:56Z</time>
      </trkpt>
      <trkpt lat="43.48319" lon="1.4183">
        <ele>190</ele>
        <time>2018-11-04T10:46:56Z</time>
      </trkpt>
      <trkpt lat="43.48319" lon="1.41825">
        <ele>190</ele>
        <time>2018-11-04T10:46:56Z</time>
      </trkpt>
      <trkpt lat="43.4832" lon="1.41819">
        <ele>190</ele>
        <time>2018-11-04T10:46:56Z</time>
      </trkpt>
      <trkpt lat="43.48318" lon="1.41815">
        <ele>190</ele>
        <time>2018-11-04T10:47:12Z</time>
      </trkpt>
      <trkpt lat="43.48317" lon="1.41809">
        <ele>190</ele>
        <time>2018-11-04T10:47:12Z</time>
      </trkpt>
      <trkpt lat="43.48319" lon="1.41801">
        <ele>190</ele>
        <time>2018-11-04T10:47:12Z</time>
      </trkpt>
      <trkpt lat="43.4832" lon="1.41794">
        <ele>190</ele>
        <time>2018-11-04T10:47:12Z</time>
      </trkpt>
      <trkpt lat="43.48321" lon="1.41786">
        <ele>187</ele>
        <time>2018-11-04T10:47:28Z</time>
      </trkpt>
      <trkpt lat="43.48322" lon="1.4178">
        <ele>187</ele>
        <time>2018-11-04T10:47:28Z</time>
      </trkpt>
      <trkpt lat="43.48321" lon="1.41772">
        <ele>187</ele>
        <time>2018-11-04T10:47:28Z</time>
      </trkpt>
      <trkpt lat="43.48323" lon="1.41764">
        <ele>187</ele>
        <time>2018-11-04T10:47:28Z</time>
      </trkpt>
      <trkpt lat="43.48322" lon="1.41758">
        <ele>187</ele>
        <time>2018-11-04T10:47:44Z</time>
      </trkpt>
      <trkpt lat="43.48322" lon="1.41753">
        <ele>187</ele>
        <time>2018-11-04T10:47:44Z</time>
      </trkpt>
      <trkpt lat="43.48322" lon="1.41745">
        <ele>187</ele>
        <time>2018-11-04T10:47:44Z</time>
      </trkpt>
      <trkpt lat="43.48322" lon="1.41739">
        <ele>187</ele>
        <time>2018-11-04T10:47:44Z</time>
      </trkpt>
      <trkpt lat="43.48322" lon="1.41733">
        <ele>187</ele>
        <time>2018-11-04T10:48:00Z</time>
      </trkpt>
      <trkpt lat="43.48323" lon="1.41725">
        <ele>187</ele>
        <time>2018-11-04T10:48:00Z</time>
      </trkpt>
      <trkpt lat="43.48322" lon="1.41717">
        <ele>187</ele>
        <time>2018-11-04T10:48:00Z</time>
      </trkpt>
      <trkpt lat="43.48322" lon="1.4171">
        <ele>187</ele>
        <time>2018-11-04T10:48:00Z</time>
      </trkpt>
      <trkpt lat="43.48322" lon="1.41705">
        <ele>185</ele>
        <time>2018-11-04T10:48:16Z</time>
      </trkpt>
      <trkpt lat="43.4832" lon="1.41699">
        <ele>185</ele>
        <time>2018-11-04T10:48:16Z</time>
      </trkpt>
      <trkpt lat="43.48318" lon="1.41692">
        <ele>185</ele>
        <time>2018-11-04T10:48:16Z</time>
      </trkpt>
      <trkpt lat="43.48317" lon="1.41686">
        <ele>185</ele>
        <time>2018-11-04T10:48:16Z</time>
      </trkpt>
      <trkpt lat="43.48315" lon="1.41681">
        <ele>185</ele>
        <time>2018-11-04T10:48:32Z</time>
      </trkpt>
      <trkpt lat="43.48311" lon="1.41678">
        <ele>185</ele>
        <time>2018-11-04T10:48:32Z</time>
      </trkpt>
      <trkpt lat="43.4831" lon="1.41673">
        <ele>185</ele>
        <time>2018-11-04T10:48:32Z</time>
      </trkpt>
      <trkpt lat="43.48308" lon="1.41668">
        <ele>185</ele>
        <time>2018-11-04T10:48:32Z</time>
      </trkpt>
      <trkpt lat="43.48307" lon="1.41661">
        <ele>185</ele>
        <time>2018-11-04T10:48:48Z</time>
      </trkpt>
      <trkpt lat="43.48304" lon="1.41658">
        <ele>185</ele>
        <time>2018-11-04T10:48:48Z</time>
      </trkpt>
      <trkpt lat="43.48303" lon="1.41652">
        <ele>185</ele>
        <time>2018-11-04T10:48:48Z</time>
      </trkpt>
      <trkpt lat="43.48301" lon="1.41646">
        <ele>185</ele>
        <time>2018-11-04T10:48:48Z</time>
      </trkpt>
      <trkpt lat="43.48297" lon="1.4164">
        <ele>185</ele>
        <time>2018-11-04T10:49:04Z</time>
      </trkpt>
      <trkpt lat="43.48292" lon="1.41633">
        <ele>178</ele>
        <time>2018-11-04T10:49:04Z</time>
      </trkpt>
      <trkpt lat="43.48288" lon="1.41627">
        <ele>178</ele>
        <time>2018-11-04T10:49:04Z</time>
      </trkpt>
      <trkpt lat="43.48283" lon="1.41621">
        <ele>179</ele>
        <time>2018-11-04T10:49:04Z</time>
      </trkpt>
      <trkpt lat="43.48279" lon="1.41615">
        <ele>179</ele>
        <time>2018-11-04T10:49:20Z</time>
      </trkpt>
      <trkpt lat="43.48277" lon="1.41609">
        <ele>179</ele>
        <time>2018-11-04T10:49:20Z</time>
      </trkpt>
      <trkpt lat="43.48274" lon="1.41602">
        <ele>179</ele>
        <time>2018-11-04T10:49:20Z</time>
      </trkpt>
      <trkpt lat="43.48272" lon="1.41595">
        <ele>179</ele>
        <time>2018-11-04T10:49:20Z</time>
      </trkpt>
      <trkpt lat="43.48268" lon="1.4159">
        <ele>179</ele>
        <time>2018-11-04T10:49:36Z</time>
      </trkpt>
      <trkpt lat="43.48264" lon="1.41586">
        <ele>179</ele>
        <time>2018-11-04T10:49:36Z</time>
      </trkpt>
      <trkpt lat="43.4826" lon="1.41581">
        <ele>179</ele>
        <time>2018-11-04T10:49:36Z</time>
      </trkpt>
      <trkpt lat="43.48256" lon="1.41577">
        <ele>179</ele>
        <time>2018-11-04T10:49:36Z</time>
      </trkpt>
      <trkpt lat="43.48252" lon="1.41575">
        <ele>179</ele>
        <time>2018-11-04T10:49:52Z</time>
      </trkpt>
      <trkpt lat="43.48247" lon="1.41572">
        <ele>179</ele>
        <time>2018-11-04T10:49:52Z</time>
      </trkpt>
      <trkpt lat="43.48243" lon="1.41568">
        <ele>179</ele>
        <time>2018-11-04T10:49:52Z</time>
      </trkpt>
      <trkpt lat="43.4824" lon="1.41564">
        <ele>179</ele>
        <time>2018-11-04T10:49:52Z</time>
      </trkpt>
      <trkpt lat="43.48238" lon="1.4156">
        <ele>179</ele>
        <time>2018-11-04T10:50:08Z</time>
      </trkpt>
      <trkpt lat="43.48234" lon="1.41557">
        <ele>179</ele>
        <time>2018-11-04T10:50:08Z</time>
      </trkpt>
      <trkpt lat="43.48232" lon="1.41552">
        <ele>179</ele>
        <time>2018-11-04T10:50:08Z</time>
      </trkpt>
      <trkpt lat="43.4823" lon="1.41546">
        <ele>179</ele>
        <time>2018-11-04T10:50:08Z</time>
      </trkpt>
      <trkpt lat="43.48228" lon="1.41541">
        <ele>172</ele>
        <time>2018-11-04T10:50:24Z</time>
      </trkpt>
      <trkpt lat="43.48226" lon="1.41536">
        <ele>172</ele>
        <time>2018-11-04T10:50:24Z</time>
      </trkpt>
      <trkpt lat="43.48223" lon="1.41532">
        <ele>172</ele>
        <time>2018-11-04T10:50:24Z</time>
      </trkpt>
      <trkpt lat="43.48222" lon="1.41531">
        <ele>172</ele>
        <time>2018-11-04T10:50:24Z</time>
      </trkpt>
      <trkpt lat="43.48221" lon="1.4153">
        <ele>172</ele>
        <time>2018-11-04T10:53:00Z</time>
      </trkpt>
      <trkpt lat="43.48221" lon="1.4153">
        <ele>172</ele>
        <time>2018-11-04T10:53:00Z</time>
      </trkpt>
      <trkpt lat="43.48219" lon="1.4153">
        <ele>172</ele>
        <time>2018-11-04T10:53:00Z</time>
      </trkpt>
      <trkpt lat="43.48215" lon="1.41527">
        <ele>172</ele>
        <time>2018-11-04T10:53:00Z</time>
      </trkpt>
      <trkpt lat="43.48212" lon="1.41526">
        <ele>172</ele>
        <time>2018-11-04T10:53:00Z</time>
      </trkpt>
      <trkpt lat="43.48207" lon="1.41525">
        <ele>163</ele>
        <time>2018-11-04T10:53:16Z</time>
      </trkpt>
      <trkpt lat="43.48203" lon="1.41522">
        <ele>163</ele>
        <time>2018-11-04T10:53:16Z</time>
      </trkpt>
      <trkpt lat="43.482" lon="1.4152">
        <ele>163</ele>
        <time>2018-11-04T10:53:16Z</time>
      </trkpt>
      <trkpt lat="43.48196" lon="1.4152">
        <ele>163</ele>
        <time>2018-11-04T10:53:16Z</time>
      </trkpt>
      <trkpt lat="43.48192" lon="1.41518">
        <ele>163</ele>
        <time>2018-11-04T10:53:32Z</time>
      </trkpt>
      <trkpt lat="43.48189" lon="1.41516">
        <ele>163</ele>
        <time>2018-11-04T10:53:32Z</time>
      </trkpt>
      <trkpt lat="43.48184" lon="1.41518">
        <ele>163</ele>
        <time>2018-11-04T10:53:32Z</time>
      </trkpt>
      <trkpt lat="43.48179" lon="1.41519">
        <ele>163</ele>
        <time>2018-11-04T10:53:32Z</time>
      </trkpt>
      <trkpt lat="43.48174" lon="1.41516">
        <ele>163</ele>
        <time>2018-11-04T10:53:48Z</time>
      </trkpt>
      <trkpt lat="43.48169" lon="1.41515">
        <ele>163</ele>
        <time>2018-11-04T10:53:48Z</time>
      </trkpt>
      <trkpt lat="43.48165" lon="1.41512">
        <ele>163</ele>
        <time>2018-11-04T10:53:48Z</time>
      </trkpt>
      <trkpt lat="43.48161" lon="1.41508">
        <ele>163</ele>
        <time>2018-11-04T10:53:48Z</time>
      </trkpt>
      <trkpt lat="43.48157" lon="1.41506">
        <ele>163</ele>
        <time>2018-11-04T10:54:04Z</time>
      </trkpt>
      <trkpt lat="43.48154" lon="1.41506">
        <ele>163</ele>
        <time>2018-11-04T10:54:04Z</time>
      </trkpt>
      <trkpt lat="43.48149" lon="1.41509">
        <ele>163</ele>
        <time>2018-11-04T10:54:04Z</time>
      </trkpt>
      <trkpt lat="43.48146" lon="1.4151">
        <ele>163</ele>
        <time>2018-11-04T10:54:04Z</time>
      </trkpt>
      <trkpt lat="43.48144" lon="1.4151">
        <ele>163</ele>
        <time>2018-11-04T10:54:20Z</time>
      </trkpt>
      <trkpt lat="43.48142" lon="1.4151">
        <ele>163</ele>
        <time>2018-11-04T10:54:20Z</time>
      </trkpt>
      <trkpt lat="43.48138" lon="1.41511">
        <ele>163</ele>
        <time>2018-11-04T10:54:20Z</time>
      </trkpt>
      <trkpt lat="43.48133" lon="1.41513">
        <ele>163</ele>
        <time>2018-11-04T10:54:20Z</time>
      </trkpt>
      <trkpt lat="43.48127" lon="1.41514">
        <ele>163</ele>
        <time>2018-11-04T10:54:36Z</time>
      </trkpt>
      <trkpt lat="43.48122" lon="1.41516">
        <ele>161</ele>
        <time>2018-11-04T10:54:36Z</time>
      </trkpt>
      <trkpt lat="43.48118" lon="1.41518">
        <ele>161</ele>
        <time>2018-11-04T10:54:36Z</time>
      </trkpt>
      <trkpt lat="43.48113" lon="1.41519">
        <ele>161</ele>
        <time>2018-11-04T10:54:36Z</time>
      </trkpt>
      <trkpt lat="43.48111" lon="1.41519">
        <ele>161</ele>
        <time>2018-11-04T10:54:52Z</time>
      </trkpt>
      <trkpt lat="43.48108" lon="1.4152">
        <ele>161</ele>
        <time>2018-11-04T10:54:52Z</time>
      </trkpt>
      <trkpt lat="43.48103" lon="1.41522">
        <ele>161</ele>
        <time>2018-11-04T10:54:52Z</time>
      </trkpt>
      <trkpt lat="43.48097" lon="1.41525">
        <ele>161</ele>
        <time>2018-11-04T10:54:52Z</time>
      </trkpt>
      <trkpt lat="43.48092" lon="1.41527">
        <ele>161</ele>
        <time>2018-11-04T10:55:08Z</time>
      </trkpt>
      <trkpt lat="43.48086" lon="1.41529">
        <ele>161</ele>
        <time>2018-11-04T10:55:08Z</time>
      </trkpt>
      <trkpt lat="43.4808" lon="1.4153">
        <ele>161</ele>
        <time>2018-11-04T10:55:08Z</time>
      </trkpt>
      <trkpt lat="43.48075" lon="1.41532">
        <ele>161</ele>
        <time>2018-11-04T10:55:08Z</time>
      </trkpt>
      <trkpt lat="43.4807" lon="1.41534">
        <ele>161</ele>
        <time>2018-11-04T10:55:24Z</time>
      </trkpt>
      <trkpt lat="43.48064" lon="1.41538">
        <ele>161</ele>
        <time>2018-11-04T10:55:24Z</time>
      </trkpt>
      <trkpt lat="43.4806" lon="1.41541">
        <ele>161</ele>
        <time>2018-11-04T10:55:24Z</time>
      </trkpt>
      <trkpt lat="43.48055" lon="1.41542">
        <ele>180</ele>
        <time>2018-11-04T10:55:24Z</time>
      </trkpt>
      <trkpt lat="43.4805" lon="1.41543">
        <ele>180</ele>
        <time>2018-11-04T10:55:40Z</time>
      </trkpt>
      <trkpt lat="43.48045" lon="1.41542">
        <ele>180</ele>
        <time>2018-11-04T10:55:40Z</time>
      </trkpt>
      <trkpt lat="43.48042" lon="1.41546">
        <ele>173</ele>
        <time>2018-11-04T10:55:40Z</time>
      </trkpt>
      <trkpt lat="43.48037" lon="1.41546">
        <ele>173</ele>
        <time>2018-11-04T10:55:40Z</time>
      </trkpt>
      <trkpt lat="43.48033" lon="1.4155">
        <ele>173</ele>
        <time>2018-11-04T10:55:56Z</time>
      </trkpt>
      <trkpt lat="43.48027" lon="1.41551">
        <ele>173</ele>
        <time>2018-11-04T10:55:56Z</time>
      </trkpt>
      <trkpt lat="43.4802" lon="1.41555">
        <ele>173</ele>
        <time>2018-11-04T10:55:56Z</time>
      </trkpt>
      <trkpt lat="43.48015" lon="1.41555">
        <ele>173</ele>
        <time>2018-11-04T10:55:56Z</time>
      </trkpt>
      <trkpt lat="43.48012" lon="1.41557">
        <ele>173</ele>
        <time>2018-11-04T10:56:12Z</time>
      </trkpt>
      <trkpt lat="43.48009" lon="1.41558">
        <ele>173</ele>
        <time>2018-11-04T10:56:12Z</time>
      </trkpt>
      <trkpt lat="43.48006" lon="1.4156">
        <ele>173</ele>
        <time>2018-11-04T10:56:12Z</time>
      </trkpt>
      <trkpt lat="43.48001" lon="1.41564">
        <ele>173</ele>
        <time>2018-11-04T10:56:12Z</time>
      </trkpt>
      <trkpt lat="43.47996" lon="1.41566">
        <ele>173</ele>
        <time>2018-11-04T10:56:28Z</time>
      </trkpt>
      <trkpt lat="43.47991" lon="1.41569">
        <ele>173</ele>
        <time>2018-11-04T10:56:28Z</time>
      </trkpt>
      <trkpt lat="43.47986" lon="1.41566">
        <ele>173</ele>
        <time>2018-11-04T10:56:28Z</time>
      </trkpt>
      <trkpt lat="43.47981" lon="1.41568">
        <ele>173</ele>
        <time>2018-11-04T10:56:28Z</time>
      </trkpt>
      <trkpt lat="43.47976" lon="1.41571">
        <ele>173</ele>
        <time>2018-11-04T10:56:44Z</time>
      </trkpt>
      <trkpt lat="43.47969" lon="1.41572">
        <ele>173</ele>
        <time>2018-11-04T10:56:44Z</time>
      </trkpt>
      <trkpt lat="43.47963" lon="1.41574">
        <ele>173</ele>
        <time>2018-11-04T10:56:44Z</time>
      </trkpt>
      <trkpt lat="43.47958" lon="1.41575">
        <ele>164</ele>
        <time>2018-11-04T10:56:44Z</time>
      </trkpt>
      <trkpt lat="43.47952" lon="1.41578">
        <ele>164</ele>
        <time>2018-11-04T10:57:00Z</time>
      </trkpt>
      <trkpt lat="43.47945" lon="1.41582">
        <ele>164</ele>
        <time>2018-11-04T10:57:00Z</time>
      </trkpt>
      <trkpt lat="43.47939" lon="1.41583">
        <ele>164</ele>
        <time>2018-11-04T10:57:00Z</time>
      </trkpt>
      <trkpt lat="43.47934" lon="1.41584">
        <ele>164</ele>
        <time>2018-11-04T10:57:00Z</time>
      </trkpt>
      <trkpt lat="43.47929" lon="1.41584">
        <ele>164</ele>
        <time>2018-11-04T10:57:16Z</time>
      </trkpt>
      <trkpt lat="43.47926" lon="1.41589">
        <ele>164</ele>
        <time>2018-11-04T10:57:16Z</time>
      </trkpt>
      <trkpt lat="43.47921" lon="1.41593">
        <ele>164</ele>
        <time>2018-11-04T10:57:16Z</time>
      </trkpt>
      <trkpt lat="43.47918" lon="1.41597">
        <ele>164</ele>
        <time>2018-11-04T10:57:16Z</time>
      </trkpt>
      <trkpt lat="43.47913" lon="1.41597">
        <ele>164</ele>
        <time>2018-11-04T10:57:32Z</time>
      </trkpt>
      <trkpt lat="43.47907" lon="1.41601">
        <ele>164</ele>
        <time>2018-11-04T10:57:32Z</time>
      </trkpt>
      <trkpt lat="43.47903" lon="1.41605">
        <ele>164</ele>
        <time>2018-11-04T10:57:32Z</time>
      </trkpt>
      <trkpt lat="43.47899" lon="1.41608">
        <ele>164</ele>
        <time>2018-11-04T10:57:32Z</time>
      </trkpt>
      <trkpt lat="43.47896" lon="1.41612">
        <ele>164</ele>
        <time>2018-11-04T10:57:48Z</time>
      </trkpt>
      <trkpt lat="43.47892" lon="1.41613">
        <ele>164</ele>
        <time>2018-11-04T10:57:48Z</time>
      </trkpt>
      <trkpt lat="43.47887" lon="1.41617">
        <ele>164</ele>
        <time>2018-11-04T10:57:48Z</time>
      </trkpt>
      <trkpt lat="43.47883" lon="1.41621">
        <ele>164</ele>
        <time>2018-11-04T10:57:48Z</time>
      </trkpt>
      <trkpt lat="43.47877" lon="1.41625">
        <ele>181</ele>
        <time>2018-11-04T10:58:04Z</time>
      </trkpt>
      <trkpt lat="43.4787" lon="1.41629">
        <ele>166</ele>
        <time>2018-11-04T10:58:04Z</time>
      </trkpt>
      <trkpt lat="43.47862" lon="1.4163">
        <ele>166</ele>
        <time>2018-11-04T10:58:04Z</time>
      </trkpt>
      <trkpt lat="43.47856" lon="1.41635">
        <ele>166</ele>
        <time>2018-11-04T10:58:04Z</time>
      </trkpt>
      <trkpt lat="43.4785" lon="1.41638">
        <ele>166</ele>
        <time>2018-11-04T10:58:20Z</time>
      </trkpt>
      <trkpt lat="43.47846" lon="1.41641">
        <ele>166</ele>
        <time>2018-11-04T10:58:20Z</time>
      </trkpt>
      <trkpt lat="43.47845" lon="1.41645">
        <ele>166</ele>
        <time>2018-11-04T10:58:20Z</time>
      </trkpt>
      <trkpt lat="43.47843" lon="1.4165">
        <ele>166</ele>
        <time>2018-11-04T10:58:20Z</time>
      </trkpt>
      <trkpt lat="43.47841" lon="1.41653">
        <ele>166</ele>
        <time>2018-11-04T10:58:36Z</time>
      </trkpt>
      <trkpt lat="43.47836" lon="1.41655">
        <ele>166</ele>
        <time>2018-11-04T10:58:36Z</time>
      </trkpt>
      <trkpt lat="43.47831" lon="1.41655">
        <ele>166</ele>
        <time>2018-11-04T10:58:36Z</time>
      </trkpt>
      <trkpt lat="43.47825" lon="1.41658">
        <ele>166</ele>
        <time>2018-11-04T10:58:36Z</time>
      </trkpt>
      <trkpt lat="43.47821" lon="1.41662">
        <ele>166</ele>
        <time>2018-11-04T10:58:56Z</time>
      </trkpt>
      <trkpt lat="43.47814" lon="1.41673">
        <ele>166</ele>
        <time>2018-11-04T10:58:56Z</time>
      </trkpt>
      <trkpt lat="43.47813" lon="1.41676">
        <ele>166</ele>
        <time>2018-11-04T10:58:56Z</time>
      </trkpt>
      <trkpt lat="43.47813" lon="1.41682">
        <ele>166</ele>
        <time>2018-11-04T10:58:56Z</time>
      </trkpt>
      <trkpt lat="43.47811" lon="1.41686">
        <ele>166</ele>
        <time>2018-11-04T10:59:12Z</time>
      </trkpt>
      <trkpt lat="43.4781" lon="1.41691">
        <ele>166</ele>
        <time>2018-11-04T10:59:12Z</time>
      </trkpt>
      <trkpt lat="43.47808" lon="1.41695">
        <ele>166</ele>
        <time>2018-11-04T10:59:12Z</time>
      </trkpt>
      <trkpt lat="43.47804" lon="1.41699">
        <ele>166</ele>
        <time>2018-11-04T10:59:12Z</time>
      </trkpt>
      <trkpt lat="43.47803" lon="1.41701">
        <ele>166</ele>
        <time>2018-11-04T10:59:32Z</time>
      </trkpt>
      <trkpt lat="43.47802" lon="1.41704">
        <ele>166</ele>
        <time>2018-11-04T10:59:32Z</time>
      </trkpt>
      <trkpt lat="43.47802" lon="1.41706">
        <ele>166</ele>
        <time>2018-11-04T10:59:32Z</time>
      </trkpt>
      <trkpt lat="43.478" lon="1.41712">
        <ele>183</ele>
        <time>2018-11-04T10:59:32Z</time>
      </trkpt>
      <trkpt lat="43.47799" lon="1.41717">
        <ele>183</ele>
        <time>2018-11-04T10:59:32Z</time>
      </trkpt>
      <trkpt lat="43.47799" lon="1.41723">
        <ele>183</ele>
        <time>2018-11-04T10:59:48Z</time>
      </trkpt>
      <trkpt lat="43.47797" lon="1.41731">
        <ele>183</ele>
        <time>2018-11-04T10:59:48Z</time>
      </trkpt>
      <trkpt lat="43.47792" lon="1.41736">
        <ele>183</ele>
        <time>2018-11-04T10:59:48Z</time>
      </trkpt>
      <trkpt lat="43.47789" lon="1.41742">
        <ele>162</ele>
        <time>2018-11-04T10:59:48Z</time>
      </trkpt>
      <trkpt lat="43.47787" lon="1.41746">
        <ele>162</ele>
        <time>2018-11-04T11:00:04Z</time>
      </trkpt>
      <trkpt lat="43.47784" lon="1.41751">
        <ele>162</ele>
        <time>2018-11-04T11:00:04Z</time>
      </trkpt>
      <trkpt lat="43.47781" lon="1.41757">
        <ele>162</ele>
        <time>2018-11-04T11:00:04Z</time>
      </trkpt>
      <trkpt lat="43.47779" lon="1.41766">
        <ele>162</ele>
        <time>2018-11-04T11:00:04Z</time>
      </trkpt>
      <trkpt lat="43.47776" lon="1.41774">
        <ele>162</ele>
        <time>2018-11-04T11:00:20Z</time>
      </trkpt>
      <trkpt lat="43.47771" lon="1.41781">
        <ele>162</ele>
        <time>2018-11-04T11:00:20Z</time>
      </trkpt>
      <trkpt lat="43.47768" lon="1.41787">
        <ele>162</ele>
        <time>2018-11-04T11:00:20Z</time>
      </trkpt>
      <trkpt lat="43.47764" lon="1.41793">
        <ele>170</ele>
        <time>2018-11-04T11:00:20Z</time>
      </trkpt>
      <trkpt lat="43.47763" lon="1.41801">
        <ele>170</ele>
        <time>2018-11-04T11:00:36Z</time>
      </trkpt>
      <trkpt lat="43.47761" lon="1.41806">
        <ele>170</ele>
        <time>2018-11-04T11:00:36Z</time>
      </trkpt>
      <trkpt lat="43.47759" lon="1.41811">
        <ele>170</ele>
        <time>2018-11-04T11:00:36Z</time>
      </trkpt>
      <trkpt lat="43.47757" lon="1.41818">
        <ele>170</ele>
        <time>2018-11-04T11:00:36Z</time>
      </trkpt>
      <trkpt lat="43.47753" lon="1.41823">
        <ele>170</ele>
        <time>2018-11-04T11:00:52Z</time>
      </trkpt>
      <trkpt lat="43.47749" lon="1.41826">
        <ele>170</ele>
        <time>2018-11-04T11:00:52Z</time>
      </trkpt>
      <trkpt lat="43.47746" lon="1.41829">
        <ele>170</ele>
        <time>2018-11-04T11:00:52Z</time>
      </trkpt>
      <trkpt lat="43.47743" lon="1.41834">
        <ele>170</ele>
        <time>2018-11-04T11:00:52Z</time>
      </trkpt>
      <trkpt lat="43.47737" lon="1.41838">
        <ele>170</ele>
        <time>2018-11-04T11:01:08Z</time>
      </trkpt>
      <trkpt lat="43.47733" lon="1.4184">
        <ele>170</ele>
        <time>2018-11-04T11:01:08Z</time>
      </trkpt>
      <trkpt lat="43.47726" lon="1.41843">
        <ele>170</ele>
        <time>2018-11-04T11:01:08Z</time>
      </trkpt>
      <trkpt lat="43.4772" lon="1.41847">
        <ele>170</ele>
        <time>2018-11-04T11:01:08Z</time>
      </trkpt>
      <trkpt lat="43.47714" lon="1.41849">
        <ele>170</ele>
        <time>2018-11-04T11:01:24Z</time>
      </trkpt>
      <trkpt lat="43.47707" lon="1.41848">
        <ele>158</ele>
        <time>2018-11-04T11:01:24Z</time>
      </trkpt>
      <trkpt lat="43.47703" lon="1.41845">
        <ele>158</ele>
        <time>2018-11-04T11:01:24Z</time>
      </trkpt>
      <trkpt lat="43.47698" lon="1.41845">
        <ele>158</ele>
        <time>2018-11-04T11:01:24Z</time>
      </trkpt>
      <trkpt lat="43.47691" lon="1.41845">
        <ele>158</ele>
        <time>2018-11-04T11:01:40Z</time>
      </trkpt>
      <trkpt lat="43.47684" lon="1.41844">
        <ele>158</ele>
        <time>2018-11-04T11:01:40Z</time>
      </trkpt>
      <trkpt lat="43.47677" lon="1.41845">
        <ele>158</ele>
        <time>2018-11-04T11:01:40Z</time>
      </trkpt>
      <trkpt lat="43.4767" lon="1.41847">
        <ele>158</ele>
        <time>2018-11-04T11:01:40Z</time>
      </trkpt>
      <trkpt lat="43.47666" lon="1.41852">
        <ele>158</ele>
        <time>2018-11-04T11:01:56Z</time>
      </trkpt>
      <trkpt lat="43.47664" lon="1.41858">
        <ele>158</ele>
        <time>2018-11-04T11:01:56Z</time>
      </trkpt>
      <trkpt lat="43.4766" lon="1.41862">
        <ele>158</ele>
        <time>2018-11-04T11:01:56Z</time>
      </trkpt>
      <trkpt lat="43.47656" lon="1.41865">
        <ele>158</ele>
        <time>2018-11-04T11:01:56Z</time>
      </trkpt>
      <trkpt lat="43.47653" lon="1.41868">
        <ele>158</ele>
        <time>2018-11-04T11:02:12Z</time>
      </trkpt>
      <trkpt lat="43.47649" lon="1.4187">
        <ele>158</ele>
        <time>2018-11-04T11:02:12Z</time>
      </trkpt>
      <trkpt lat="43.47648" lon="1.4187">
        <ele>158</ele>
        <time>2018-11-04T11:02:12Z</time>
      </trkpt>
      <trkpt lat="43.47645" lon="1.41874">
        <ele>158</ele>
        <time>2018-11-04T11:02:12Z</time>
      </trkpt>
      <trkpt lat="43.47639" lon="1.41878">
        <ele>165</ele>
        <time>2018-11-04T11:02:28Z</time>
      </trkpt>
      <trkpt lat="43.47636" lon="1.41881">
        <ele>165</ele>
        <time>2018-11-04T11:02:28Z</time>
      </trkpt>
      <trkpt lat="43.47633" lon="1.41883">
        <ele>165</ele>
        <time>2018-11-04T11:02:28Z</time>
      </trkpt>
      <trkpt lat="43.47629" lon="1.41886">
        <ele>165</ele>
        <time>2018-11-04T11:02:28Z</time>
      </trkpt>
      <trkpt lat="43.47624" lon="1.41892">
        <ele>157</ele>
        <time>2018-11-04T11:02:44Z</time>
      </trkpt>
      <trkpt lat="43.47618" lon="1.41895">
        <ele>157</ele>
        <time>2018-11-04T11:02:44Z</time>
      </trkpt>
      <trkpt lat="43.47612" lon="1.41898">
        <ele>157</ele>
        <time>2018-11-04T11:02:44Z</time>
      </trkpt>
      <trkpt lat="43.47608" lon="1.419">
        <ele>157</ele>
        <time>2018-11-04T11:02:44Z</time>
      </trkpt>
      <trkpt lat="43.47604" lon="1.41902">
        <ele>157</ele>
        <time>2018-11-04T11:03:00Z</time>
      </trkpt>
      <trkpt lat="43.476" lon="1.41905">
        <ele>157</ele>
        <time>2018-11-04T11:03:00Z</time>
      </trkpt>
      <trkpt lat="43.47596" lon="1.4191">
        <ele>157</ele>
        <time>2018-11-04T11:03:00Z</time>
      </trkpt>
      <trkpt lat="43.4759" lon="1.41915">
        <ele>157</ele>
        <time>2018-11-04T11:03:00Z</time>
      </trkpt>
      <trkpt lat="43.47586" lon="1.41921">
        <ele>157</ele>
        <time>2018-11-04T11:03:16Z</time>
      </trkpt>
      <trkpt lat="43.4758" lon="1.41925">
        <ele>157</ele>
        <time>2018-11-04T11:03:16Z</time>
      </trkpt>
      <trkpt lat="43.47576" lon="1.41929">
        <ele>157</ele>
        <time>2018-11-04T11:03:16Z</time>
      </trkpt>
      <trkpt lat="43.47572" lon="1.41933">
        <ele>157</ele>
        <time>2018-11-04T11:03:16Z</time>
      </trkpt>
      <trkpt lat="43.47567" lon="1.41936">
        <ele>157</ele>
        <time>2018-11-04T11:03:32Z</time>
      </trkpt>
      <trkpt lat="43.47565" lon="1.4194">
        <ele>157</ele>
        <time>2018-11-04T11:03:32Z</time>
      </trkpt>
      <trkpt lat="43.47561" lon="1.41944">
        <ele>157</ele>
        <time>2018-11-04T11:03:32Z</time>
      </trkpt>
      <trkpt lat="43.47559" lon="1.41947">
        <ele>157</ele>
        <time>2018-11-04T11:03:32Z</time>
      </trkpt>
      <trkpt lat="43.47556" lon="1.4195">
        <ele>157</ele>
        <time>2018-11-04T11:05:12Z</time>
      </trkpt>
      <trkpt lat="43.47556" lon="1.41951">
        <ele>157</ele>
        <time>2018-11-04T11:05:12Z</time>
      </trkpt>
      <trkpt lat="43.47556" lon="1.41951">
        <ele>157</ele>
        <time>2018-11-04T11:05:12Z</time>
      </trkpt>
      <trkpt lat="43.47556" lon="1.41951">
        <ele>157</ele>
        <time>2018-11-04T11:05:12Z</time>
      </trkpt>
      <trkpt lat="43.4755" lon="1.41954">
        <ele>157</ele>
        <time>2018-11-04T11:05:12Z</time>
      </trkpt>
      <trkpt lat="43.47544" lon="1.41958">
        <ele>157</ele>
        <time>2018-11-04T11:05:28Z</time>
      </trkpt>
      <trkpt lat="43.47537" lon="1.4196">
        <ele>164</ele>
        <time>2018-11-04T11:05:28Z</time>
      </trkpt>
      <trkpt lat="43.4753" lon="1.4196">
        <ele>164</ele>
        <time>2018-11-04T11:05:28Z</time>
      </trkpt>
      <trkpt lat="43.47525" lon="1.4196">
        <ele>164</ele>
        <time>2018-11-04T11:05:28Z</time>
      </trkpt>
      <trkpt lat="43.47521" lon="1.41959">
        <ele>164</ele>
        <time>2018-11-04T11:05:44Z</time>
      </trkpt>
      <trkpt lat="43.47516" lon="1.41959">
        <ele>164</ele>
        <time>2018-11-04T11:05:44Z</time>
      </trkpt>
      <trkpt lat="43.47511" lon="1.4196">
        <ele>164</ele>
        <time>2018-11-04T11:05:44Z</time>
      </trkpt>
      <trkpt lat="43.47508" lon="1.41961">
        <ele>164</ele>
        <time>2018-11-04T11:05:44Z</time>
      </trkpt>
      <trkpt lat="43.47508" lon="1.41961">
        <ele>164</ele>
        <time>2018-11-04T11:06:00Z</time>
      </trkpt>
      <trkpt lat="43.47506" lon="1.41962">
        <ele>164</ele>
        <time>2018-11-04T11:06:00Z</time>
      </trkpt>
      <trkpt lat="43.475" lon="1.41963">
        <ele>164</ele>
        <time>2018-11-04T11:06:00Z</time>
      </trkpt>
      <trkpt lat="43.47494" lon="1.41964">
        <ele>164</ele>
        <time>2018-11-04T11:06:00Z</time>
      </trkpt>
      <trkpt lat="43.47492" lon="1.41965">
        <ele>164</ele>
        <time>2018-11-04T11:06:20Z</time>
      </trkpt>
      <trkpt lat="43.47488" lon="1.41966">
        <ele>164</ele>
        <time>2018-11-04T11:06:20Z</time>
      </trkpt>
      <trkpt lat="43.47486" lon="1.41966">
        <ele>164</ele>
        <time>2018-11-04T11:06:20Z</time>
      </trkpt>
      <trkpt lat="43.47484" lon="1.41968">
        <ele>164</ele>
        <time>2018-11-04T11:06:20Z</time>
      </trkpt>
      <trkpt lat="43.47482" lon="1.41969">
        <ele>164</ele>
        <time>2018-11-04T11:06:20Z</time>
      </trkpt>
      <trkpt lat="43.47476" lon="1.41973">
        <ele>164</ele>
        <time>2018-11-04T11:06:36Z</time>
      </trkpt>
      <trkpt lat="43.47472" lon="1.41975">
        <ele>164</ele>
        <time>2018-11-04T11:06:36Z</time>
      </trkpt>
      <trkpt lat="43.47469" lon="1.41977">
        <ele>164</ele>
        <time>2018-11-04T11:06:36Z</time>
      </trkpt>
      <trkpt lat="43.47465" lon="1.41978">
        <ele>164</ele>
        <time>2018-11-04T11:06:36Z</time>
      </trkpt>
      <trkpt lat="43.47463" lon="1.41979">
        <ele>164</ele>
        <time>2018-11-04T11:06:52Z</time>
      </trkpt>
      <trkpt lat="43.47458" lon="1.41981">
        <ele>164</ele>
        <time>2018-11-04T11:06:52Z</time>
      </trkpt>
      <trkpt lat="43.47455" lon="1.41982">
        <ele>164</ele>
        <time>2018-11-04T11:06:52Z</time>
      </trkpt>
      <trkpt lat="43.4745" lon="1.41985">
        <ele>164</ele>
        <time>2018-11-04T11:06:52Z</time>
      </trkpt>
      <trkpt lat="43.47442" lon="1.41988">
        <ele>164</ele>
        <time>2018-11-04T11:07:08Z</time>
      </trkpt>
      <trkpt lat="43.47433" lon="1.41993">
        <ele>164</ele>
        <time>2018-11-04T11:07:08Z</time>
      </trkpt>
      <trkpt lat="43.47426" lon="1.41996">
        <ele>164</ele>
        <time>2018-11-04T11:07:08Z</time>
      </trkpt>
      <trkpt lat="43.47418" lon="1.41999">
        <ele>164</ele>
        <time>2018-11-04T11:07:08Z</time>
      </trkpt>
      <trkpt lat="43.47416" lon="1.42001">
        <ele>164</ele>
        <time>2018-11-04T11:07:44Z</time>
      </trkpt>
      <trkpt lat="43.47416" lon="1.42001">
        <ele>164</ele>
        <time>2018-11-04T11:07:44Z</time>
      </trkpt>
      <trkpt lat="43.47415" lon="1.42001">
        <ele>164</ele>
        <time>2018-11-04T11:07:44Z</time>
      </trkpt>
      <trkpt lat="43.47413" lon="1.42002">
        <ele>164</ele>
        <time>2018-11-04T11:07:44Z</time>
      </trkpt>
      <trkpt lat="43.47407" lon="1.42005">
        <ele>164</ele>
        <time>2018-11-04T11:07:44Z</time>
      </trkpt>
      <trkpt lat="43.474" lon="1.42009">
        <ele>164</ele>
        <time>2018-11-04T11:08:00Z</time>
      </trkpt>
      <trkpt lat="43.47392" lon="1.42009">
        <ele>164</ele>
        <time>2018-11-04T11:08:00Z</time>
      </trkpt>
      <trkpt lat="43.47386" lon="1.4201">
        <ele>164</ele>
        <time>2018-11-04T11:08:00Z</time>
      </trkpt>
      <trkpt lat="43.47381" lon="1.42011">
        <ele>164</ele>
        <time>2018-11-04T11:08:00Z</time>
      </trkpt>
      <trkpt lat="43.47375" lon="1.42013">
        <ele>164</ele>
        <time>2018-11-04T11:08:16Z</time>
      </trkpt>
      <trkpt lat="43.47369" lon="1.42013">
        <ele>162</ele>
        <time>2018-11-04T11:08:16Z</time>
      </trkpt>
      <trkpt lat="43.47365" lon="1.42015">
        <ele>162</ele>
        <time>2018-11-04T11:08:16Z</time>
      </trkpt>
      <trkpt lat="43.47357" lon="1.42017">
        <ele>162</ele>
        <time>2018-11-04T11:08:16Z</time>
      </trkpt>
      <trkpt lat="43.47352" lon="1.42021">
        <ele>162</ele>
        <time>2018-11-04T11:08:32Z</time>
      </trkpt>
      <trkpt lat="43.4735" lon="1.42021">
        <ele>162</ele>
        <time>2018-11-04T11:08:32Z</time>
      </trkpt>
      <trkpt lat="43.47343" lon="1.42021">
        <ele>162</ele>
        <time>2018-11-04T11:08:32Z</time>
      </trkpt>
      <trkpt lat="43.47335" lon="1.42022">
        <ele>162</ele>
        <time>2018-11-04T11:08:32Z</time>
      </trkpt>
      <trkpt lat="43.47329" lon="1.42023">
        <ele>162</ele>
        <time>2018-11-04T11:08:48Z</time>
      </trkpt>
      <trkpt lat="43.47322" lon="1.42024">
        <ele>162</ele>
        <time>2018-11-04T11:08:48Z</time>
      </trkpt>
      <trkpt lat="43.47316" lon="1.42024">
        <ele>162</ele>
        <time>2018-11-04T11:08:48Z</time>
      </trkpt>
      <trkpt lat="43.47311" lon="1.42023">
        <ele>162</ele>
        <time>2018-11-04T11:08:48Z</time>
      </trkpt>
      <trkpt lat="43.47304" lon="1.42024">
        <ele>162</ele>
        <time>2018-11-04T11:09:04Z</time>
      </trkpt>
      <trkpt lat="43.47297" lon="1.42024">
        <ele>162</ele>
        <time>2018-11-04T11:09:04Z</time>
      </trkpt>
      <trkpt lat="43.47292" lon="1.42027">
        <ele>162</ele>
        <time>2018-11-04T11:09:04Z</time>
      </trkpt>
      <trkpt lat="43.47286" lon="1.42027">
        <ele>159</ele>
        <time>2018-11-04T11:09:04Z</time>
      </trkpt>
      <trkpt lat="43.4728" lon="1.42028">
        <ele>159</ele>
        <time>2018-11-04T11:09:20Z</time>
      </trkpt>
      <trkpt lat="43.47273" lon="1.42028">
        <ele>159</ele>
        <time>2018-11-04T11:09:20Z</time>
      </trkpt>
      <trkpt lat="43.47268" lon="1.4203">
        <ele>159</ele>
        <time>2018-11-04T11:09:20Z</time>
      </trkpt>
      <trkpt lat="43.47264" lon="1.42032">
        <ele>159</ele>
        <time>2018-11-04T11:09:20Z</time>
      </trkpt>
      <trkpt lat="43.47261" lon="1.42032">
        <ele>159</ele>
        <time>2018-11-04T11:09:36Z</time>
      </trkpt>
      <trkpt lat="43.47257" lon="1.42032">
        <ele>159</ele>
        <time>2018-11-04T11:09:36Z</time>
      </trkpt>
      <trkpt lat="43.47252" lon="1.42033">
        <ele>159</ele>
        <time>2018-11-04T11:09:36Z</time>
      </trkpt>
      <trkpt lat="43.47247" lon="1.42035">
        <ele>159</ele>
        <time>2018-11-04T11:09:36Z</time>
      </trkpt>
      <trkpt lat="43.47241" lon="1.42036">
        <ele>159</ele>
        <time>2018-11-04T11:09:52Z</time>
      </trkpt>
      <trkpt lat="43.47235" lon="1.42038">
        <ele>159</ele>
        <time>2018-11-04T11:09:52Z</time>
      </trkpt>
      <trkpt lat="43.47229" lon="1.42038">
        <ele>159</ele>
        <time>2018-11-04T11:09:52Z</time>
      </trkpt>
      <trkpt lat="43.47223" lon="1.42038">
        <ele>159</ele>
        <time>2018-11-04T11:09:52Z</time>
      </trkpt>
      <trkpt lat="43.47217" lon="1.42037">
        <ele>159</ele>
        <time>2018-11-04T11:10:08Z</time>
      </trkpt>
      <trkpt lat="43.47212" lon="1.42036">
        <ele>159</ele>
        <time>2018-11-04T11:10:08Z</time>
      </trkpt>
      <trkpt lat="43.47207" lon="1.42037">
        <ele>157</ele>
        <time>2018-11-04T11:10:08Z</time>
      </trkpt>
      <trkpt lat="43.47201" lon="1.42038">
        <ele>157</ele>
        <time>2018-11-04T11:10:08Z</time>
      </trkpt>
      <trkpt lat="43.47196" lon="1.42039">
        <ele>157</ele>
        <time>2018-11-04T11:10:24Z</time>
      </trkpt>
      <trkpt lat="43.4719" lon="1.42041">
        <ele>157</ele>
        <time>2018-11-04T11:10:24Z</time>
      </trkpt>
      <trkpt lat="43.47185" lon="1.42042">
        <ele>164</ele>
        <time>2018-11-04T11:10:24Z</time>
      </trkpt>
      <trkpt lat="43.4718" lon="1.42044">
        <ele>164</ele>
        <time>2018-11-04T11:10:24Z</time>
      </trkpt>
      <trkpt lat="43.47175" lon="1.42044">
        <ele>164</ele>
        <time>2018-11-04T11:10:40Z</time>
      </trkpt>
      <trkpt lat="43.4717" lon="1.42046">
        <ele>164</ele>
        <time>2018-11-04T11:10:40Z</time>
      </trkpt>
      <trkpt lat="43.47165" lon="1.42048">
        <ele>164</ele>
        <time>2018-11-04T11:10:40Z</time>
      </trkpt>
      <trkpt lat="43.4716" lon="1.4205">
        <ele>164</ele>
        <time>2018-11-04T11:10:40Z</time>
      </trkpt>
      <trkpt lat="43.47155" lon="1.42052">
        <ele>164</ele>
        <time>2018-11-04T11:10:56Z</time>
      </trkpt>
      <trkpt lat="43.47149" lon="1.42056">
        <ele>164</ele>
        <time>2018-11-04T11:10:56Z</time>
      </trkpt>
      <trkpt lat="43.47145" lon="1.42058">
        <ele>164</ele>
        <time>2018-11-04T11:10:56Z</time>
      </trkpt>
      <trkpt lat="43.47143" lon="1.42059">
        <ele>164</ele>
        <time>2018-11-04T11:10:56Z</time>
      </trkpt>
      <trkpt lat="43.47143" lon="1.4206">
        <ele>164</ele>
        <time>2018-11-04T11:11:12Z</time>
      </trkpt>
      <trkpt lat="43.47141" lon="1.4206">
        <ele>164</ele>
        <time>2018-11-04T11:11:12Z</time>
      </trkpt>
      <trkpt lat="43.47135" lon="1.42062">
        <ele>164</ele>
        <time>2018-11-04T11:11:12Z</time>
      </trkpt>
      <trkpt lat="43.47129" lon="1.42064">
        <ele>164</ele>
        <time>2018-11-04T11:11:12Z</time>
      </trkpt>
      <trkpt lat="43.47124" lon="1.42066">
        <ele>161</ele>
        <time>2018-11-04T11:11:28Z</time>
      </trkpt>
      <trkpt lat="43.47118" lon="1.42068">
        <ele>161</ele>
        <time>2018-11-04T11:11:28Z</time>
      </trkpt>
      <trkpt lat="43.47111" lon="1.4207">
        <ele>161</ele>
        <time>2018-11-04T11:11:28Z</time>
      </trkpt>
      <trkpt lat="43.47104" lon="1.4207">
        <ele>161</ele>
        <time>2018-11-04T11:11:28Z</time>
      </trkpt>
      <trkpt lat="43.47098" lon="1.4207">
        <ele>161</ele>
        <time>2018-11-04T11:11:44Z</time>
      </trkpt>
      <trkpt lat="43.47093" lon="1.4207">
        <ele>161</ele>
        <time>2018-11-04T11:11:44Z</time>
      </trkpt>
      <trkpt lat="43.47087" lon="1.4207">
        <ele>161</ele>
        <time>2018-11-04T11:11:44Z</time>
      </trkpt>
      <trkpt lat="43.47082" lon="1.42071">
        <ele>161</ele>
        <time>2018-11-04T11:11:44Z</time>
      </trkpt>
      <trkpt lat="43.47077" lon="1.42071">
        <ele>161</ele>
        <time>2018-11-04T11:12:00Z</time>
      </trkpt>
      <trkpt lat="43.47073" lon="1.4207">
        <ele>161</ele>
        <time>2018-11-04T11:12:00Z</time>
      </trkpt>
      <trkpt lat="43.47068" lon="1.4207">
        <ele>161</ele>
        <time>2018-11-04T11:12:00Z</time>
      </trkpt>
      <trkpt lat="43.47063" lon="1.4207">
        <ele>161</ele>
        <time>2018-11-04T11:12:00Z</time>
      </trkpt>
      <trkpt lat="43.47058" lon="1.42069">
        <ele>161</ele>
        <time>2018-11-04T11:12:16Z</time>
      </trkpt>
      <trkpt lat="43.47053" lon="1.42068">
        <ele>161</ele>
        <time>2018-11-04T11:12:16Z</time>
      </trkpt>
      <trkpt lat="43.47048" lon="1.42068">
        <ele>161</ele>
        <time>2018-11-04T11:12:16Z</time>
      </trkpt>
      <trkpt lat="43.47043" lon="1.42067">
        <ele>161</ele>
        <time>2018-11-04T11:12:16Z</time>
      </trkpt>
      <trkpt lat="43.47038" lon="1.42067">
        <ele>162</ele>
        <time>2018-11-04T11:12:32Z</time>
      </trkpt>
      <trkpt lat="43.47032" lon="1.42068">
        <ele>162</ele>
        <time>2018-11-04T11:12:32Z</time>
      </trkpt>
      <trkpt lat="43.47027" lon="1.42068">
        <ele>162</ele>
        <time>2018-11-04T11:12:32Z</time>
      </trkpt>
      <trkpt lat="43.47025" lon="1.42069">
        <ele>162</ele>
        <time>2018-11-04T11:12:32Z</time>
      </trkpt>
      <trkpt lat="43.47024" lon="1.42069">
        <ele>162</ele>
        <time>2018-11-04T11:12:52Z</time>
      </trkpt>
      <trkpt lat="43.47022" lon="1.4207">
        <ele>162</ele>
        <time>2018-11-04T11:12:52Z</time>
      </trkpt>
      <trkpt lat="43.47019" lon="1.42072">
        <ele>162</ele>
        <time>2018-11-04T11:12:52Z</time>
      </trkpt>
      <trkpt lat="43.47017" lon="1.42073">
        <ele>162</ele>
        <time>2018-11-04T11:12:52Z</time>
      </trkpt>
      <trkpt lat="43.47014" lon="1.42075">
        <ele>162</ele>
        <time>2018-11-04T11:12:52Z</time>
      </trkpt>
      <trkpt lat="43.4701" lon="1.42077">
        <ele>162</ele>
        <time>2018-11-04T11:13:08Z</time>
      </trkpt>
      <trkpt lat="43.47008" lon="1.42078">
        <ele>162</ele>
        <time>2018-11-04T11:13:08Z</time>
      </trkpt>
      <trkpt lat="43.47003" lon="1.42081">
        <ele>162</ele>
        <time>2018-11-04T11:13:08Z</time>
      </trkpt>
      <trkpt lat="43.46996" lon="1.42084">
        <ele>162</ele>
        <time>2018-11-04T11:13:08Z</time>
      </trkpt>
      <trkpt lat="43.46988" lon="1.42089">
        <ele>162</ele>
        <time>2018-11-04T11:13:24Z</time>
      </trkpt>
      <trkpt lat="43.46981" lon="1.42091">
        <ele>162</ele>
        <time>2018-11-04T11:13:24Z</time>
      </trkpt>
      <trkpt lat="43.46974" lon="1.42095">
        <ele>162</ele>
        <time>2018-11-04T11:13:24Z</time>
      </trkpt>
      <trkpt lat="43.46968" lon="1.42096">
        <ele>162</ele>
        <time>2018-11-04T11:13:24Z</time>
      </trkpt>
      <trkpt lat="43.46961" lon="1.42096">
        <ele>162</ele>
        <time>2018-11-04T11:13:40Z</time>
      </trkpt>
      <trkpt lat="43.46955" lon="1.42098">
        <ele>157</ele>
        <time>2018-11-04T11:13:40Z</time>
      </trkpt>
      <trkpt lat="43.46948" lon="1.42099">
        <ele>157</ele>
        <time>2018-11-04T11:13:40Z</time>
      </trkpt>
      <trkpt lat="43.46942" lon="1.421">
        <ele>157</ele>
        <time>2018-11-04T11:13:40Z</time>
      </trkpt>
      <trkpt lat="43.46936" lon="1.42102">
        <ele>157</ele>
        <time>2018-11-04T11:13:56Z</time>
      </trkpt>
      <trkpt lat="43.4693" lon="1.42103">
        <ele>157</ele>
        <time>2018-11-04T11:13:56Z</time>
      </trkpt>
      <trkpt lat="43.46924" lon="1.42105">
        <ele>157</ele>
        <time>2018-11-04T11:13:56Z</time>
      </trkpt>
      <trkpt lat="43.46919" lon="1.42106">
        <ele>157</ele>
        <time>2018-11-04T11:13:56Z</time>
      </trkpt>
      <trkpt lat="43.46916" lon="1.42107">
        <ele>157</ele>
        <time>2018-11-04T11:14:12Z</time>
      </trkpt>
      <trkpt lat="43.46912" lon="1.42108">
        <ele>157</ele>
        <time>2018-11-04T11:14:12Z</time>
      </trkpt>
      <trkpt lat="43.46906" lon="1.4211">
        <ele>157</ele>
        <time>2018-11-04T11:14:12Z</time>
      </trkpt>
      <trkpt lat="43.469" lon="1.42111">
        <ele>157</ele>
        <time>2018-11-04T11:14:12Z</time>
      </trkpt>
      <trkpt lat="43.46895" lon="1.42112">
        <ele>157</ele>
        <time>2018-11-04T11:14:28Z</time>
      </trkpt>
      <trkpt lat="43.4689" lon="1.42112">
        <ele>157</ele>
        <time>2018-11-04T11:14:28Z</time>
      </trkpt>
      <trkpt lat="43.46885" lon="1.42112">
        <ele>157</ele>
        <time>2018-11-04T11:14:28Z</time>
      </trkpt>
      <trkpt lat="43.4688" lon="1.42112">
        <ele>157</ele>
        <time>2018-11-04T11:14:28Z</time>
      </trkpt>
      <trkpt lat="43.46875" lon="1.42112">
        <ele>157</ele>
        <time>2018-11-04T11:14:44Z</time>
      </trkpt>
      <trkpt lat="43.4687" lon="1.42112">
        <ele>157</ele>
        <time>2018-11-04T11:14:44Z</time>
      </trkpt>
      <trkpt lat="43.46864" lon="1.42111">
        <ele>157</ele>
        <time>2018-11-04T11:14:44Z</time>
      </trkpt>
      <trkpt lat="43.46859" lon="1.42111">
        <ele>157</ele>
        <time>2018-11-04T11:14:44Z</time>
      </trkpt>
      <trkpt lat="43.46853" lon="1.4211">
        <ele>157</ele>
        <time>2018-11-04T11:15:00Z</time>
      </trkpt>
      <trkpt lat="43.46848" lon="1.42109">
        <ele>157</ele>
        <time>2018-11-04T11:15:00Z</time>
      </trkpt>
      <trkpt lat="43.46842" lon="1.42108">
        <ele>157</ele>
        <time>2018-11-04T11:15:00Z</time>
      </trkpt>
      <trkpt lat="43.46837" lon="1.42108">
        <ele>157</ele>
        <time>2018-11-04T11:15:00Z</time>
      </trkpt>
      <trkpt lat="43.46831" lon="1.42108">
        <ele>157</ele>
        <time>2018-11-04T11:15:16Z</time>
      </trkpt>
      <trkpt lat="43.46827" lon="1.42108">
        <ele>157</ele>
        <time>2018-11-04T11:15:16Z</time>
      </trkpt>
      <trkpt lat="43.46821" lon="1.42107">
        <ele>157</ele>
        <time>2018-11-04T11:15:16Z</time>
      </trkpt>
      <trkpt lat="43.46816" lon="1.42106">
        <ele>157</ele>
        <time>2018-11-04T11:15:16Z</time>
      </trkpt>
      <trkpt lat="43.46811" lon="1.42106">
        <ele>157</ele>
        <time>2018-11-04T11:15:32Z</time>
      </trkpt>
      <trkpt lat="43.46807" lon="1.42106">
        <ele>157</ele>
        <time>2018-11-04T11:15:32Z</time>
      </trkpt>
      <trkpt lat="43.46803" lon="1.42107">
        <ele>157</ele>
        <time>2018-11-04T11:15:32Z</time>
      </trkpt>
      <trkpt lat="43.46799" lon="1.42108">
        <ele>157</ele>
        <time>2018-11-04T11:15:32Z</time>
      </trkpt>
      <trkpt lat="43.46795" lon="1.42108">
        <ele>157</ele>
        <time>2018-11-04T11:15:48Z</time>
      </trkpt>
      <trkpt lat="43.46792" lon="1.42109">
        <ele>157</ele>
        <time>2018-11-04T11:15:48Z</time>
      </trkpt>
      <trkpt lat="43.46786" lon="1.42109">
        <ele>157</ele>
        <time>2018-11-04T11:15:48Z</time>
      </trkpt>
      <trkpt lat="43.4678" lon="1.4211">
        <ele>157</ele>
        <time>2018-11-04T11:15:48Z</time>
      </trkpt>
      <trkpt lat="43.46776" lon="1.4211">
        <ele>157</ele>
        <time>2018-11-04T11:16:04Z</time>
      </trkpt>
      <trkpt lat="43.46772" lon="1.42113">
        <ele>157</ele>
        <time>2018-11-04T11:16:04Z</time>
      </trkpt>
      <trkpt lat="43.46767" lon="1.42115">
        <ele>157</ele>
        <time>2018-11-04T11:16:04Z</time>
      </trkpt>
      <trkpt lat="43.46759" lon="1.42116">
        <ele>157</ele>
        <time>2018-11-04T11:16:04Z</time>
      </trkpt>
      <trkpt lat="43.46753" lon="1.42118">
        <ele>157</ele>
        <time>2018-11-04T11:16:20Z</time>
      </trkpt>
      <trkpt lat="43.46747" lon="1.42119">
        <ele>157</ele>
        <time>2018-11-04T11:16:20Z</time>
      </trkpt>
      <trkpt lat="43.46741" lon="1.42121">
        <ele>157</ele>
        <time>2018-11-04T11:16:20Z</time>
      </trkpt>
      <trkpt lat="43.46737" lon="1.42123">
        <ele>157</ele>
        <time>2018-11-04T11:16:20Z</time>
      </trkpt>
      <trkpt lat="43.46731" lon="1.42124">
        <ele>157</ele>
        <time>2018-11-04T11:16:36Z</time>
      </trkpt>
      <trkpt lat="43.46726" lon="1.42125">
        <ele>159</ele>
        <time>2018-11-04T11:16:36Z</time>
      </trkpt>
      <trkpt lat="43.4672" lon="1.42128">
        <ele>159</ele>
        <time>2018-11-04T11:16:36Z</time>
      </trkpt>
      <trkpt lat="43.46713" lon="1.4213">
        <ele>159</ele>
        <time>2018-11-04T11:16:36Z</time>
      </trkpt>
      <trkpt lat="43.46707" lon="1.42132">
        <ele>158</ele>
        <time>2018-11-04T11:16:52Z</time>
      </trkpt>
      <trkpt lat="43.46702" lon="1.42135">
        <ele>158</ele>
        <time>2018-11-04T11:16:52Z</time>
      </trkpt>
      <trkpt lat="43.46696" lon="1.42138">
        <ele>158</ele>
        <time>2018-11-04T11:16:52Z</time>
      </trkpt>
      <trkpt lat="43.46691" lon="1.42141">
        <ele>158</ele>
        <time>2018-11-04T11:16:52Z</time>
      </trkpt>
      <trkpt lat="43.46685" lon="1.42142">
        <ele>158</ele>
        <time>2018-11-04T11:17:08Z</time>
      </trkpt>
      <trkpt lat="43.46681" lon="1.42143">
        <ele>158</ele>
        <time>2018-11-04T11:17:08Z</time>
      </trkpt>
      <trkpt lat="43.46676" lon="1.42142">
        <ele>158</ele>
        <time>2018-11-04T11:17:08Z</time>
      </trkpt>
      <trkpt lat="43.46671" lon="1.42141">
        <ele>158</ele>
        <time>2018-11-04T11:17:08Z</time>
      </trkpt>
      <trkpt lat="43.46666" lon="1.42143">
        <ele>158</ele>
        <time>2018-11-04T11:17:24Z</time>
      </trkpt>
      <trkpt lat="43.46662" lon="1.42145">
        <ele>158</ele>
        <time>2018-11-04T11:17:24Z</time>
      </trkpt>
      <trkpt lat="43.46658" lon="1.42148">
        <ele>158</ele>
        <time>2018-11-04T11:17:24Z</time>
      </trkpt>
      <trkpt lat="43.46655" lon="1.42151">
        <ele>158</ele>
        <time>2018-11-04T11:17:24Z</time>
      </trkpt>
      <trkpt lat="43.4665" lon="1.42154">
        <ele>158</ele>
        <time>2018-11-04T11:17:40Z</time>
      </trkpt>
      <trkpt lat="43.46645" lon="1.42156">
        <ele>158</ele>
        <time>2018-11-04T11:17:40Z</time>
      </trkpt>
      <trkpt lat="43.4664" lon="1.42157">
        <ele>158</ele>
        <time>2018-11-04T11:17:40Z</time>
      </trkpt>
      <trkpt lat="43.46635" lon="1.42159">
        <ele>158</ele>
        <time>2018-11-04T11:17:40Z</time>
      </trkpt>
      <trkpt lat="43.4663" lon="1.42162">
        <ele>158</ele>
        <time>2018-11-04T11:17:56Z</time>
      </trkpt>
      <trkpt lat="43.46625" lon="1.42164">
        <ele>158</ele>
        <time>2018-11-04T11:17:56Z</time>
      </trkpt>
      <trkpt lat="43.4662" lon="1.42166">
        <ele>158</ele>
        <time>2018-11-04T11:17:56Z</time>
      </trkpt>
      <trkpt lat="43.46615" lon="1.42168">
        <ele>158</ele>
        <time>2018-11-04T11:17:56Z</time>
      </trkpt>
      <trkpt lat="43.4661" lon="1.42169">
        <ele>158</ele>
        <time>2018-11-04T11:18:12Z</time>
      </trkpt>
      <trkpt lat="43.46603" lon="1.4217">
        <ele>158</ele>
        <time>2018-11-04T11:18:12Z</time>
      </trkpt>
      <trkpt lat="43.46598" lon="1.42171">
        <ele>158</ele>
        <time>2018-11-04T11:18:12Z</time>
      </trkpt>
      <trkpt lat="43.46594" lon="1.42173">
        <ele>158</ele>
        <time>2018-11-04T11:18:12Z</time>
      </trkpt>
      <trkpt lat="43.46589" lon="1.42174">
        <ele>158</ele>
        <time>2018-11-04T11:18:28Z</time>
      </trkpt>
      <trkpt lat="43.46585" lon="1.42177">
        <ele>158</ele>
        <time>2018-11-04T11:18:28Z</time>
      </trkpt>
      <trkpt lat="43.4658" lon="1.42178">
        <ele>158</ele>
        <time>2018-11-04T11:18:28Z</time>
      </trkpt>
      <trkpt lat="43.46576" lon="1.42182">
        <ele>158</ele>
        <time>2018-11-04T11:18:28Z</time>
      </trkpt>
      <trkpt lat="43.46571" lon="1.42183">
        <ele>158</ele>
        <time>2018-11-04T11:18:44Z</time>
      </trkpt>
      <trkpt lat="43.46565" lon="1.42183">
        <ele>158</ele>
        <time>2018-11-04T11:18:44Z</time>
      </trkpt>
      <trkpt lat="43.46559" lon="1.42184">
        <ele>158</ele>
        <time>2018-11-04T11:18:44Z</time>
      </trkpt>
      <trkpt lat="43.46556" lon="1.42185">
        <ele>158</ele>
        <time>2018-11-04T11:18:44Z</time>
      </trkpt>
      <trkpt lat="43.46551" lon="1.42186">
        <ele>158</ele>
        <time>2018-11-04T11:19:00Z</time>
      </trkpt>
      <trkpt lat="43.46547" lon="1.42189">
        <ele>158</ele>
        <time>2018-11-04T11:19:00Z</time>
      </trkpt>
      <trkpt lat="43.46542" lon="1.42191">
        <ele>158</ele>
        <time>2018-11-04T11:19:00Z</time>
      </trkpt>
      <trkpt lat="43.46537" lon="1.42192">
        <ele>158</ele>
        <time>2018-11-04T11:19:00Z</time>
      </trkpt>
      <trkpt lat="43.46532" lon="1.42194">
        <ele>158</ele>
        <time>2018-11-04T11:19:16Z</time>
      </trkpt>
      <trkpt lat="43.46527" lon="1.42196">
        <ele>158</ele>
        <time>2018-11-04T11:19:16Z</time>
      </trkpt>
      <trkpt lat="43.46522" lon="1.42198">
        <ele>158</ele>
        <time>2018-11-04T11:19:16Z</time>
      </trkpt>
      <trkpt lat="43.46517" lon="1.42199">
        <ele>158</ele>
        <time>2018-11-04T11:19:16Z</time>
      </trkpt>
      <trkpt lat="43.46512" lon="1.42201">
        <ele>158</ele>
        <time>2018-11-04T11:19:32Z</time>
      </trkpt>
      <trkpt lat="43.46508" lon="1.42204">
        <ele>158</ele>
        <time>2018-11-04T11:19:32Z</time>
      </trkpt>
      <trkpt lat="43.46504" lon="1.42207">
        <ele>158</ele>
        <time>2018-11-04T11:19:32Z</time>
      </trkpt>
      <trkpt lat="43.46499" lon="1.42209">
        <ele>158</ele>
        <time>2018-11-04T11:19:32Z</time>
      </trkpt>
      <trkpt lat="43.46494" lon="1.42211">
        <ele>158</ele>
        <time>2018-11-04T11:19:48Z</time>
      </trkpt>
      <trkpt lat="43.46491" lon="1.42213">
        <ele>158</ele>
        <time>2018-11-04T11:19:48Z</time>
      </trkpt>
      <trkpt lat="43.46486" lon="1.42213">
        <ele>158</ele>
        <time>2018-11-04T11:19:48Z</time>
      </trkpt>
      <trkpt lat="43.46481" lon="1.42213">
        <ele>158</ele>
        <time>2018-11-04T11:19:48Z</time>
      </trkpt>
      <trkpt lat="43.46477" lon="1.42214">
        <ele>158</ele>
        <time>2018-11-04T11:20:04Z</time>
      </trkpt>
      <trkpt lat="43.46471" lon="1.42214">
        <ele>158</ele>
        <time>2018-11-04T11:20:04Z</time>
      </trkpt>
      <trkpt lat="43.46465" lon="1.42214">
        <ele>158</ele>
        <time>2018-11-04T11:20:04Z</time>
      </trkpt>
      <trkpt lat="43.46459" lon="1.42214">
        <ele>158</ele>
        <time>2018-11-04T11:20:04Z</time>
      </trkpt>
      <trkpt lat="43.46454" lon="1.42215">
        <ele>158</ele>
        <time>2018-11-04T11:20:20Z</time>
      </trkpt>
      <trkpt lat="43.4645" lon="1.42215">
        <ele>158</ele>
        <time>2018-11-04T11:20:20Z</time>
      </trkpt>
      <trkpt lat="43.46446" lon="1.42217">
        <ele>158</ele>
        <time>2018-11-04T11:20:20Z</time>
      </trkpt>
      <trkpt lat="43.46442" lon="1.4222">
        <ele>158</ele>
        <time>2018-11-04T11:20:20Z</time>
      </trkpt>
      <trkpt lat="43.46438" lon="1.42224">
        <ele>158</ele>
        <time>2018-11-04T11:20:36Z</time>
      </trkpt>
      <trkpt lat="43.46433" lon="1.42227">
        <ele>158</ele>
        <time>2018-11-04T11:20:36Z</time>
      </trkpt>
      <trkpt lat="43.46429" lon="1.42231">
        <ele>158</ele>
        <time>2018-11-04T11:20:36Z</time>
      </trkpt>
      <trkpt lat="43.46425" lon="1.42235">
        <ele>158</ele>
        <time>2018-11-04T11:20:36Z</time>
      </trkpt>
      <trkpt lat="43.46421" lon="1.42238">
        <ele>158</ele>
        <time>2018-11-04T11:20:52Z</time>
      </trkpt>
      <trkpt lat="43.46417" lon="1.42242">
        <ele>158</ele>
        <time>2018-11-04T11:20:52Z</time>
      </trkpt>
      <trkpt lat="43.46413" lon="1.42246">
        <ele>158</ele>
        <time>2018-11-04T11:20:52Z</time>
      </trkpt>
      <trkpt lat="43.46409" lon="1.42252">
        <ele>158</ele>
        <time>2018-11-04T11:20:52Z</time>
      </trkpt>
      <trkpt lat="43.46404" lon="1.42257">
        <ele>158</ele>
        <time>2018-11-04T11:21:08Z</time>
      </trkpt>
      <trkpt lat="43.46399" lon="1.42261">
        <ele>158</ele>
        <time>2018-11-04T11:21:08Z</time>
      </trkpt>
      <trkpt lat="43.46394" lon="1.42264">
        <ele>158</ele>
        <time>2018-11-04T11:21:08Z</time>
      </trkpt>
      <trkpt lat="43.4639" lon="1.42266">
        <ele>158</ele>
        <time>2018-11-04T11:21:08Z</time>
      </trkpt>
      <trkpt lat="43.46386" lon="1.42269">
        <ele>158</ele>
        <time>2018-11-04T11:21:24Z</time>
      </trkpt>
      <trkpt lat="43.46382" lon="1.42273">
        <ele>158</ele>
        <time>2018-11-04T11:21:24Z</time>
      </trkpt>
      <trkpt lat="43.46378" lon="1.42275">
        <ele>158</ele>
        <time>2018-11-04T11:21:24Z</time>
      </trkpt>
      <trkpt lat="43.46374" lon="1.42278">
        <ele>158</ele>
        <time>2018-11-04T11:21:24Z</time>
      </trkpt>
      <trkpt lat="43.4637" lon="1.42281">
        <ele>158</ele>
        <time>2018-11-04T11:21:40Z</time>
      </trkpt>
      <trkpt lat="43.46366" lon="1.42284">
        <ele>158</ele>
        <time>2018-11-04T11:21:40Z</time>
      </trkpt>
      <trkpt lat="43.46362" lon="1.42288">
        <ele>158</ele>
        <time>2018-11-04T11:21:40Z</time>
      </trkpt>
      <trkpt lat="43.46359" lon="1.4229">
        <ele>158</ele>
        <time>2018-11-04T11:21:40Z</time>
      </trkpt>
      <trkpt lat="43.46355" lon="1.42295">
        <ele>159</ele>
        <time>2018-11-04T11:21:56Z</time>
      </trkpt>
      <trkpt lat="43.46351" lon="1.42298">
        <ele>159</ele>
        <time>2018-11-04T11:21:56Z</time>
      </trkpt>
      <trkpt lat="43.46346" lon="1.42302">
        <ele>159</ele>
        <time>2018-11-04T11:21:56Z</time>
      </trkpt>
      <trkpt lat="43.46343" lon="1.42307">
        <ele>159</ele>
        <time>2018-11-04T11:21:56Z</time>
      </trkpt>
      <trkpt lat="43.46338" lon="1.42312">
        <ele>159</ele>
        <time>2018-11-04T11:22:12Z</time>
      </trkpt>
      <trkpt lat="43.46334" lon="1.42317">
        <ele>159</ele>
        <time>2018-11-04T11:22:12Z</time>
      </trkpt>
      <trkpt lat="43.4633" lon="1.42322">
        <ele>159</ele>
        <time>2018-11-04T11:22:12Z</time>
      </trkpt>
      <trkpt lat="43.46326" lon="1.42326">
        <ele>159</ele>
        <time>2018-11-04T11:22:12Z</time>
      </trkpt>
      <trkpt lat="43.46321" lon="1.4233">
        <ele>159</ele>
        <time>2018-11-04T11:22:28Z</time>
      </trkpt>
      <trkpt lat="43.46317" lon="1.42333">
        <ele>159</ele>
        <time>2018-11-04T11:22:28Z</time>
      </trkpt>
      <trkpt lat="43.46313" lon="1.42337">
        <ele>159</ele>
        <time>2018-11-04T11:22:28Z</time>
      </trkpt>
      <trkpt lat="43.46309" lon="1.42339">
        <ele>159</ele>
        <time>2018-11-04T11:22:28Z</time>
      </trkpt>
      <trkpt lat="43.46304" lon="1.42341">
        <ele>159</ele>
        <time>2018-11-04T11:22:44Z</time>
      </trkpt>
      <trkpt lat="43.463" lon="1.42344">
        <ele>159</ele>
        <time>2018-11-04T11:22:44Z</time>
      </trkpt>
      <trkpt lat="43.46296" lon="1.42347">
        <ele>159</ele>
        <time>2018-11-04T11:22:44Z</time>
      </trkpt>
      <trkpt lat="43.46291" lon="1.42349">
        <ele>159</ele>
        <time>2018-11-04T11:22:44Z</time>
      </trkpt>
      <trkpt lat="43.46287" lon="1.42352">
        <ele>159</ele>
        <time>2018-11-04T11:23:00Z</time>
      </trkpt>
      <trkpt lat="43.46283" lon="1.42353">
        <ele>159</ele>
        <time>2018-11-04T11:23:00Z</time>
      </trkpt>
      <trkpt lat="43.46278" lon="1.42354">
        <ele>159</ele>
        <time>2018-11-04T11:23:00Z</time>
      </trkpt>
      <trkpt lat="43.46274" lon="1.42356">
        <ele>159</ele>
        <time>2018-11-04T11:23:00Z</time>
      </trkpt>
      <trkpt lat="43.46269" lon="1.4236">
        <ele>159</ele>
        <time>2018-11-04T11:23:16Z</time>
      </trkpt>
      <trkpt lat="43.46264" lon="1.42363">
        <ele>159</ele>
        <time>2018-11-04T11:23:16Z</time>
      </trkpt>
      <trkpt lat="43.4626" lon="1.42366">
        <ele>159</ele>
        <time>2018-11-04T11:23:16Z</time>
      </trkpt>
      <trkpt lat="43.46256" lon="1.42371">
        <ele>159</ele>
        <time>2018-11-04T11:23:16Z</time>
      </trkpt>
      <trkpt lat="43.46253" lon="1.42376">
        <ele>159</ele>
        <time>2018-11-04T11:23:32Z</time>
      </trkpt>
      <trkpt lat="43.46249" lon="1.4238">
        <ele>159</ele>
        <time>2018-11-04T11:23:32Z</time>
      </trkpt>
      <trkpt lat="43.46245" lon="1.42383">
        <ele>159</ele>
        <time>2018-11-04T11:23:32Z</time>
      </trkpt>
      <trkpt lat="43.46242" lon="1.4239">
        <ele>159</ele>
        <time>2018-11-04T11:23:32Z</time>
      </trkpt>
      <trkpt lat="43.4624" lon="1.42396">
        <ele>159</ele>
        <time>2018-11-04T11:23:48Z</time>
      </trkpt>
      <trkpt lat="43.46237" lon="1.42401">
        <ele>159</ele>
        <time>2018-11-04T11:23:48Z</time>
      </trkpt>
      <trkpt lat="43.46233" lon="1.42405">
        <ele>159</ele>
        <time>2018-11-04T11:23:48Z</time>
      </trkpt>
      <trkpt lat="43.46229" lon="1.4241">
        <ele>159</ele>
        <time>2018-11-04T11:23:48Z</time>
      </trkpt>
      <trkpt lat="43.46224" lon="1.42415">
        <ele>159</ele>
        <time>2018-11-04T11:24:04Z</time>
      </trkpt>
      <trkpt lat="43.4622" lon="1.42419">
        <ele>159</ele>
        <time>2018-11-04T11:24:04Z</time>
      </trkpt>
      <trkpt lat="43.46216" lon="1.42419">
        <ele>159</ele>
        <time>2018-11-04T11:24:04Z</time>
      </trkpt>
      <trkpt lat="43.46213" lon="1.42422">
        <ele>159</ele>
        <time>2018-11-04T11:24:04Z</time>
      </trkpt>
      <trkpt lat="43.4621" lon="1.42426">
        <ele>159</ele>
        <time>2018-11-04T11:24:20Z</time>
      </trkpt>
      <trkpt lat="43.46207" lon="1.4243">
        <ele>162</ele>
        <time>2018-11-04T11:24:20Z</time>
      </trkpt>
      <trkpt lat="43.46203" lon="1.42434">
        <ele>162</ele>
        <time>2018-11-04T11:24:20Z</time>
      </trkpt>
      <trkpt lat="43.46199" lon="1.42437">
        <ele>162</ele>
        <time>2018-11-04T11:24:20Z</time>
      </trkpt>
      <trkpt lat="43.46197" lon="1.42438">
        <ele>162</ele>
        <time>2018-11-04T11:24:36Z</time>
      </trkpt>
      <trkpt lat="43.46193" lon="1.4244">
        <ele>162</ele>
        <time>2018-11-04T11:24:36Z</time>
      </trkpt>
      <trkpt lat="43.46189" lon="1.42444">
        <ele>162</ele>
        <time>2018-11-04T11:24:36Z</time>
      </trkpt>
      <trkpt lat="43.46185" lon="1.42448">
        <ele>162</ele>
        <time>2018-11-04T11:24:36Z</time>
      </trkpt>
      <trkpt lat="43.46181" lon="1.42453">
        <ele>162</ele>
        <time>2018-11-04T11:24:52Z</time>
      </trkpt>
      <trkpt lat="43.46178" lon="1.42459">
        <ele>162</ele>
        <time>2018-11-04T11:24:52Z</time>
      </trkpt>
      <trkpt lat="43.46176" lon="1.42465">
        <ele>162</ele>
        <time>2018-11-04T11:24:52Z</time>
      </trkpt>
      <trkpt lat="43.46175" lon="1.42471">
        <ele>162</ele>
        <time>2018-11-04T11:24:52Z</time>
      </trkpt>
      <trkpt lat="43.46174" lon="1.42478">
        <ele>162</ele>
        <time>2018-11-04T11:25:08Z</time>
      </trkpt>
      <trkpt lat="43.46174" lon="1.42486">
        <ele>162</ele>
        <time>2018-11-04T11:25:08Z</time>
      </trkpt>
      <trkpt lat="43.46174" lon="1.42491">
        <ele>162</ele>
        <time>2018-11-04T11:25:08Z</time>
      </trkpt>
      <trkpt lat="43.46175" lon="1.42497">
        <ele>162</ele>
        <time>2018-11-04T11:25:08Z</time>
      </trkpt>
      <trkpt lat="43.46177" lon="1.42503">
        <ele>162</ele>
        <time>2018-11-04T11:25:24Z</time>
      </trkpt>
      <trkpt lat="43.46178" lon="1.42511">
        <ele>162</ele>
        <time>2018-11-04T11:25:24Z</time>
      </trkpt>
      <trkpt lat="43.46177" lon="1.42518">
        <ele>162</ele>
        <time>2018-11-04T11:25:24Z</time>
      </trkpt>
      <trkpt lat="43.46175" lon="1.42524">
        <ele>162</ele>
        <time>2018-11-04T11:25:24Z</time>
      </trkpt>
      <trkpt lat="43.46174" lon="1.42529">
        <ele>162</ele>
        <time>2018-11-04T11:25:40Z</time>
      </trkpt>
      <trkpt lat="43.46173" lon="1.42536">
        <ele>162</ele>
        <time>2018-11-04T11:25:40Z</time>
      </trkpt>
      <trkpt lat="43.46172" lon="1.42541">
        <ele>162</ele>
        <time>2018-11-04T11:25:40Z</time>
      </trkpt>
      <trkpt lat="43.4617" lon="1.42547">
        <ele>164</ele>
        <time>2018-11-04T11:25:40Z</time>
      </trkpt>
      <trkpt lat="43.46166" lon="1.42551">
        <ele>164</ele>
        <time>2018-11-04T11:25:56Z</time>
      </trkpt>
      <trkpt lat="43.46161" lon="1.42551">
        <ele>164</ele>
        <time>2018-11-04T11:25:56Z</time>
      </trkpt>
      <trkpt lat="43.46157" lon="1.42553">
        <ele>164</ele>
        <time>2018-11-04T11:25:56Z</time>
      </trkpt>
      <trkpt lat="43.46153" lon="1.42554">
        <ele>164</ele>
        <time>2018-11-04T11:25:56Z</time>
      </trkpt>
      <trkpt lat="43.46149" lon="1.42552">
        <ele>164</ele>
        <time>2018-11-04T11:29:00Z</time>
      </trkpt>
      <trkpt lat="43.46148" lon="1.42551">
        <ele>164</ele>
        <time>2018-11-04T11:29:00Z</time>
      </trkpt>
      <trkpt lat="43.46146" lon="1.4255">
        <ele>164</ele>
        <time>2018-11-04T11:29:00Z</time>
      </trkpt>
      <trkpt lat="43.46143" lon="1.42549">
        <ele>164</ele>
        <time>2018-11-04T11:29:00Z</time>
      </trkpt>
      <trkpt lat="43.46138" lon="1.42549">
        <ele>164</ele>
        <time>2018-11-04T11:29:00Z</time>
      </trkpt>
      <trkpt lat="43.46133" lon="1.4255">
        <ele>164</ele>
        <time>2018-11-04T11:29:16Z</time>
      </trkpt>
      <trkpt lat="43.46127" lon="1.4255">
        <ele>164</ele>
        <time>2018-11-04T11:29:16Z</time>
      </trkpt>
      <trkpt lat="43.46121" lon="1.42549">
        <ele>164</ele>
        <time>2018-11-04T11:29:16Z</time>
      </trkpt>
      <trkpt lat="43.46118" lon="1.42547">
        <ele>164</ele>
        <time>2018-11-04T11:29:16Z</time>
      </trkpt>
      <trkpt lat="43.46113" lon="1.42543">
        <ele>164</ele>
        <time>2018-11-04T11:29:32Z</time>
      </trkpt>
      <trkpt lat="43.46108" lon="1.42539">
        <ele>163</ele>
        <time>2018-11-04T11:29:32Z</time>
      </trkpt>
      <trkpt lat="43.46104" lon="1.42536">
        <ele>163</ele>
        <time>2018-11-04T11:29:32Z</time>
      </trkpt>
      <trkpt lat="43.46098" lon="1.42533">
        <ele>163</ele>
        <time>2018-11-04T11:29:32Z</time>
      </trkpt>
      <trkpt lat="43.46094" lon="1.42533">
        <ele>163</ele>
        <time>2018-11-04T11:29:48Z</time>
      </trkpt>
      <trkpt lat="43.4609" lon="1.42534">
        <ele>163</ele>
        <time>2018-11-04T11:29:48Z</time>
      </trkpt>
      <trkpt lat="43.46086" lon="1.42536">
        <ele>163</ele>
        <time>2018-11-04T11:29:48Z</time>
      </trkpt>
      <trkpt lat="43.4608" lon="1.42538">
        <ele>163</ele>
        <time>2018-11-04T11:29:48Z</time>
      </trkpt>
      <trkpt lat="43.46075" lon="1.42542">
        <ele>164</ele>
        <time>2018-11-04T11:30:04Z</time>
      </trkpt>
      <trkpt lat="43.4607" lon="1.42545">
        <ele>164</ele>
        <time>2018-11-04T11:30:04Z</time>
      </trkpt>
      <trkpt lat="43.46067" lon="1.42547">
        <ele>164</ele>
        <time>2018-11-04T11:30:04Z</time>
      </trkpt>
      <trkpt lat="43.46063" lon="1.4255">
        <ele>164</ele>
        <time>2018-11-04T11:30:04Z</time>
      </trkpt>
      <trkpt lat="43.46059" lon="1.42555">
        <ele>164</ele>
        <time>2018-11-04T11:30:20Z</time>
      </trkpt>
      <trkpt lat="43.46055" lon="1.42559">
        <ele>164</ele>
        <time>2018-11-04T11:30:20Z</time>
      </trkpt>
      <trkpt lat="43.46051" lon="1.42564">
        <ele>164</ele>
        <time>2018-11-04T11:30:20Z</time>
      </trkpt>
      <trkpt lat="43.46048" lon="1.4257">
        <ele>164</ele>
        <time>2018-11-04T11:30:20Z</time>
      </trkpt>
      <trkpt lat="43.46045" lon="1.42573">
        <ele>164</ele>
        <time>2018-11-04T11:30:36Z</time>
      </trkpt>
      <trkpt lat="43.46041" lon="1.42577">
        <ele>161</ele>
        <time>2018-11-04T11:30:36Z</time>
      </trkpt>
      <trkpt lat="43.46037" lon="1.42581">
        <ele>161</ele>
        <time>2018-11-04T11:30:36Z</time>
      </trkpt>
      <trkpt lat="43.46033" lon="1.42585">
        <ele>161</ele>
        <time>2018-11-04T11:30:36Z</time>
      </trkpt>
      <trkpt lat="43.46029" lon="1.42589">
        <ele>161</ele>
        <time>2018-11-04T11:30:52Z</time>
      </trkpt>
      <trkpt lat="43.46024" lon="1.42591">
        <ele>161</ele>
        <time>2018-11-04T11:30:52Z</time>
      </trkpt>
      <trkpt lat="43.46019" lon="1.42593">
        <ele>161</ele>
        <time>2018-11-04T11:30:52Z</time>
      </trkpt>
      <trkpt lat="43.46015" lon="1.42595">
        <ele>161</ele>
        <time>2018-11-04T11:30:52Z</time>
      </trkpt>
      <trkpt lat="43.4601" lon="1.42598">
        <ele>161</ele>
        <time>2018-11-04T11:31:08Z</time>
      </trkpt>
      <trkpt lat="43.46006" lon="1.42601">
        <ele>161</ele>
        <time>2018-11-04T11:31:08Z</time>
      </trkpt>
      <trkpt lat="43.46002" lon="1.42603">
        <ele>161</ele>
        <time>2018-11-04T11:31:08Z</time>
      </trkpt>
      <trkpt lat="43.45997" lon="1.42608">
        <ele>161</ele>
        <time>2018-11-04T11:31:08Z</time>
      </trkpt>
      <trkpt lat="43.45993" lon="1.4261">
        <ele>161</ele>
        <time>2018-11-04T11:31:24Z</time>
      </trkpt>
      <trkpt lat="43.4599" lon="1.42613">
        <ele>161</ele>
        <time>2018-11-04T11:31:24Z</time>
      </trkpt>
      <trkpt lat="43.45985" lon="1.42615">
        <ele>161</ele>
        <time>2018-11-04T11:31:24Z</time>
      </trkpt>
      <trkpt lat="43.45981" lon="1.42619">
        <ele>161</ele>
        <time>2018-11-04T11:31:24Z</time>
      </trkpt>
      <trkpt lat="43.45977" lon="1.42625">
        <ele>161</ele>
        <time>2018-11-04T11:31:40Z</time>
      </trkpt>
      <trkpt lat="43.45974" lon="1.42631">
        <ele>168</ele>
        <time>2018-11-04T11:31:40Z</time>
      </trkpt>
      <trkpt lat="43.45971" lon="1.42637">
        <ele>168</ele>
        <time>2018-11-04T11:31:40Z</time>
      </trkpt>
      <trkpt lat="43.45968" lon="1.42642">
        <ele>168</ele>
        <time>2018-11-04T11:31:40Z</time>
      </trkpt>
      <trkpt lat="43.45963" lon="1.42646">
        <ele>168</ele>
        <time>2018-11-04T11:31:56Z</time>
      </trkpt>
      <trkpt lat="43.4596" lon="1.42652">
        <ele>168</ele>
        <time>2018-11-04T11:31:56Z</time>
      </trkpt>
      <trkpt lat="43.45958" lon="1.42658">
        <ele>165</ele>
        <time>2018-11-04T11:31:56Z</time>
      </trkpt>
      <trkpt lat="43.45958" lon="1.42665">
        <ele>165</ele>
        <time>2018-11-04T11:31:56Z</time>
      </trkpt>
      <trkpt lat="43.45961" lon="1.42671">
        <ele>168</ele>
        <time>2018-11-04T11:32:12Z</time>
      </trkpt>
      <trkpt lat="43.45963" lon="1.42677">
        <ele>168</ele>
        <time>2018-11-04T11:32:12Z</time>
      </trkpt>
      <trkpt lat="43.45965" lon="1.42682">
        <ele>168</ele>
        <time>2018-11-04T11:32:12Z</time>
      </trkpt>
      <trkpt lat="43.4597" lon="1.42688">
        <ele>168</ele>
        <time>2018-11-04T11:32:12Z</time>
      </trkpt>
      <trkpt lat="43.45974" lon="1.42694">
        <ele>168</ele>
        <time>2018-11-04T11:32:28Z</time>
      </trkpt>
      <trkpt lat="43.45975" lon="1.427">
        <ele>168</ele>
        <time>2018-11-04T11:32:28Z</time>
      </trkpt>
      <trkpt lat="43.45975" lon="1.42706">
        <ele>168</ele>
        <time>2018-11-04T11:32:28Z</time>
      </trkpt>
      <trkpt lat="43.45978" lon="1.42709">
        <ele>180</ele>
        <time>2018-11-04T11:32:28Z</time>
      </trkpt>
      <trkpt lat="43.45984" lon="1.42714">
        <ele>180</ele>
        <time>2018-11-04T11:32:52Z</time>
      </trkpt>
      <trkpt lat="43.45985" lon="1.42714">
        <ele>180</ele>
        <time>2018-11-04T11:32:52Z</time>
      </trkpt>
      <trkpt lat="43.45986" lon="1.42714">
        <ele>180</ele>
        <time>2018-11-04T11:32:52Z</time>
      </trkpt>
      <trkpt lat="43.45987" lon="1.42715">
        <ele>180</ele>
        <time>2018-11-04T11:32:52Z</time>
      </trkpt>
      <trkpt lat="43.45994" lon="1.42718">
        <ele>180</ele>
        <time>2018-11-04T11:32:52Z</time>
      </trkpt>
      <trkpt lat="43.46" lon="1.42717">
        <ele>180</ele>
        <time>2018-11-04T11:33:08Z</time>
      </trkpt>
      <trkpt lat="43.46006" lon="1.4272">
        <ele>180</ele>
        <time>2018-11-04T11:33:08Z</time>
      </trkpt>
      <trkpt lat="43.4601" lon="1.4272">
        <ele>180</ele>
        <time>2018-11-04T11:33:08Z</time>
      </trkpt>
      <trkpt lat="43.46016" lon="1.42722">
        <ele>180</ele>
        <time>2018-11-04T11:33:08Z</time>
      </trkpt>
      <trkpt lat="43.46019" lon="1.42722">
        <ele>180</ele>
        <time>2018-11-04T11:33:24Z</time>
      </trkpt>
      <trkpt lat="43.46026" lon="1.42723">
        <ele>180</ele>
        <time>2018-11-04T11:33:24Z</time>
      </trkpt>
      <trkpt lat="43.46031" lon="1.42724">
        <ele>180</ele>
        <time>2018-11-04T11:33:24Z</time>
      </trkpt>
      <trkpt lat="43.46034" lon="1.42726">
        <ele>180</ele>
        <time>2018-11-04T11:33:24Z</time>
      </trkpt>
      <trkpt lat="43.46039" lon="1.42727">
        <ele>180</ele>
        <time>2018-11-04T11:33:40Z</time>
      </trkpt>
      <trkpt lat="43.46043" lon="1.42729">
        <ele>179</ele>
        <time>2018-11-04T11:33:40Z</time>
      </trkpt>
      <trkpt lat="43.46046" lon="1.42728">
        <ele>179</ele>
        <time>2018-11-04T11:33:40Z</time>
      </trkpt>
      <trkpt lat="43.46049" lon="1.42729">
        <ele>179</ele>
        <time>2018-11-04T11:33:40Z</time>
      </trkpt>
      <trkpt lat="43.46052" lon="1.42729">
        <ele>179</ele>
        <time>2018-11-04T11:33:56Z</time>
      </trkpt>
      <trkpt lat="43.46057" lon="1.42731">
        <ele>179</ele>
        <time>2018-11-04T11:33:56Z</time>
      </trkpt>
      <trkpt lat="43.46061" lon="1.42733">
        <ele>179</ele>
        <time>2018-11-04T11:33:56Z</time>
      </trkpt>
      <trkpt lat="43.46061" lon="1.42732">
        <ele>179</ele>
        <time>2018-11-04T11:33:56Z</time>
      </trkpt>
      <trkpt lat="43.46062" lon="1.42732">
        <ele>179</ele>
        <time>2018-11-04T11:34:36Z</time>
      </trkpt>
      <trkpt lat="43.46062" lon="1.42733">
        <ele>179</ele>
        <time>2018-11-04T11:34:36Z</time>
      </trkpt>
      <trkpt lat="43.46065" lon="1.42734">
        <ele>179</ele>
        <time>2018-11-04T11:34:36Z</time>
      </trkpt>
      <trkpt lat="43.46066" lon="1.42734">
        <ele>179</ele>
        <time>2018-11-04T11:34:36Z</time>
      </trkpt>
      <trkpt lat="43.46071" lon="1.42738">
        <ele>179</ele>
        <time>2018-11-04T11:34:36Z</time>
      </trkpt>
      <trkpt lat="43.46072" lon="1.42739">
        <ele>179</ele>
        <time>2018-11-04T11:34:52Z</time>
      </trkpt>
      <trkpt lat="43.46074" lon="1.42744">
        <ele>179</ele>
        <time>2018-11-04T11:34:52Z</time>
      </trkpt>
      <trkpt lat="43.46075" lon="1.42752">
        <ele>179</ele>
        <time>2018-11-04T11:34:52Z</time>
      </trkpt>
      <trkpt lat="43.46081" lon="1.42768">
        <ele>179</ele>
        <time>2018-11-04T11:34:52Z</time>
      </trkpt>
      <trkpt lat="43.46083" lon="1.42781">
        <ele>179</ele>
        <time>2018-11-04T11:35:08Z</time>
      </trkpt>
      <trkpt lat="43.46087" lon="1.42795">
        <ele>185</ele>
        <time>2018-11-04T11:35:08Z</time>
      </trkpt>
      <trkpt lat="43.46091" lon="1.42806">
        <ele>185</ele>
        <time>2018-11-04T11:35:08Z</time>
      </trkpt>
      <trkpt lat="43.46096" lon="1.42819">
        <ele>185</ele>
        <time>2018-11-04T11:35:08Z</time>
      </trkpt>
      <trkpt lat="43.46098" lon="1.42834">
        <ele>185</ele>
        <time>2018-11-04T11:35:24Z</time>
      </trkpt>
      <trkpt lat="43.46103" lon="1.42846">
        <ele>185</ele>
        <time>2018-11-04T11:35:24Z</time>
      </trkpt>
      <trkpt lat="43.46107" lon="1.42853">
        <ele>185</ele>
        <time>2018-11-04T11:35:24Z</time>
      </trkpt>
      <trkpt lat="43.46109" lon="1.42858">
        <ele>185</ele>
        <time>2018-11-04T11:35:24Z</time>
      </trkpt>
      <trkpt lat="43.46112" lon="1.42864">
        <ele>185</ele>
        <time>2018-11-04T11:35:40Z</time>
      </trkpt>
      <trkpt lat="43.46114" lon="1.42868">
        <ele>185</ele>
        <time>2018-11-04T11:35:40Z</time>
      </trkpt>
      <trkpt lat="43.46117" lon="1.4287">
        <ele>185</ele>
        <time>2018-11-04T11:35:40Z</time>
      </trkpt>
      <trkpt lat="43.4612" lon="1.42871">
        <ele>185</ele>
        <time>2018-11-04T11:35:40Z</time>
      </trkpt>
      <trkpt lat="43.46123" lon="1.4287">
        <ele>185</ele>
        <time>2018-11-04T11:36:00Z</time>
      </trkpt>
      <trkpt lat="43.46124" lon="1.42873">
        <ele>185</ele>
        <time>2018-11-04T11:36:00Z</time>
      </trkpt>
      <trkpt lat="43.46125" lon="1.42875">
        <ele>188</ele>
        <time>2018-11-04T11:36:00Z</time>
      </trkpt>
      <trkpt lat="43.46127" lon="1.42877">
        <ele>188</ele>
        <time>2018-11-04T11:36:00Z</time>
      </trkpt>
      <trkpt lat="43.46131" lon="1.4288">
        <ele>188</ele>
        <time>2018-11-04T11:36:00Z</time>
      </trkpt>
      <trkpt lat="43.46139" lon="1.42885">
        <ele>188</ele>
        <time>2018-11-04T11:36:16Z</time>
      </trkpt>
      <trkpt lat="43.4615" lon="1.42894">
        <ele>188</ele>
        <time>2018-11-04T11:36:16Z</time>
      </trkpt>
      <trkpt lat="43.46155" lon="1.42898">
        <ele>188</ele>
        <time>2018-11-04T11:36:16Z</time>
      </trkpt>
      <trkpt lat="43.46161" lon="1.42901">
        <ele>188</ele>
        <time>2018-11-04T11:36:16Z</time>
      </trkpt>
      <trkpt lat="43.46168" lon="1.42904">
        <ele>188</ele>
        <time>2018-11-04T11:36:32Z</time>
      </trkpt>
      <trkpt lat="43.46173" lon="1.42906">
        <ele>188</ele>
        <time>2018-11-04T11:36:32Z</time>
      </trkpt>
      <trkpt lat="43.46177" lon="1.42908">
        <ele>188</ele>
        <time>2018-11-04T11:36:32Z</time>
      </trkpt>
      <trkpt lat="43.46182" lon="1.42911">
        <ele>188</ele>
        <time>2018-11-04T11:36:32Z</time>
      </trkpt>
      <trkpt lat="43.46187" lon="1.42913">
        <ele>188</ele>
        <time>2018-11-04T11:36:48Z</time>
      </trkpt>
      <trkpt lat="43.46193" lon="1.42915">
        <ele>188</ele>
        <time>2018-11-04T11:36:48Z</time>
      </trkpt>
      <trkpt lat="43.46198" lon="1.42917">
        <ele>188</ele>
        <time>2018-11-04T11:36:48Z</time>
      </trkpt>
      <trkpt lat="43.46202" lon="1.42919">
        <ele>188</ele>
        <time>2018-11-04T11:36:48Z</time>
      </trkpt>
      <trkpt lat="43.46206" lon="1.42919">
        <ele>188</ele>
        <time>2018-11-04T11:37:04Z</time>
      </trkpt>
      <trkpt lat="43.46211" lon="1.42921">
        <ele>202</ele>
        <time>2018-11-04T11:37:04Z</time>
      </trkpt>
      <trkpt lat="43.46216" lon="1.42925">
        <ele>202</ele>
        <time>2018-11-04T11:37:04Z</time>
      </trkpt>
      <trkpt lat="43.4622" lon="1.42928">
        <ele>202</ele>
        <time>2018-11-04T11:37:04Z</time>
      </trkpt>
      <trkpt lat="43.46226" lon="1.4293">
        <ele>202</ele>
        <time>2018-11-04T11:37:20Z</time>
      </trkpt>
      <trkpt lat="43.46231" lon="1.42934">
        <ele>202</ele>
        <time>2018-11-04T11:37:20Z</time>
      </trkpt>
      <trkpt lat="43.46236" lon="1.42938">
        <ele>202</ele>
        <time>2018-11-04T11:37:20Z</time>
      </trkpt>
      <trkpt lat="43.46242" lon="1.42941">
        <ele>202</ele>
        <time>2018-11-04T11:37:20Z</time>
      </trkpt>
      <trkpt lat="43.46247" lon="1.42944">
        <ele>202</ele>
        <time>2018-11-04T11:37:36Z</time>
      </trkpt>
      <trkpt lat="43.46252" lon="1.42947">
        <ele>202</ele>
        <time>2018-11-04T11:37:36Z</time>
      </trkpt>
      <trkpt lat="43.46258" lon="1.42952">
        <ele>202</ele>
        <time>2018-11-04T11:37:36Z</time>
      </trkpt>
      <trkpt lat="43.46262" lon="1.42954">
        <ele>202</ele>
        <time>2018-11-04T11:37:36Z</time>
      </trkpt>
      <trkpt lat="43.46266" lon="1.42957">
        <ele>202</ele>
        <time>2018-11-04T11:37:52Z</time>
      </trkpt>
      <trkpt lat="43.4627" lon="1.42961">
        <ele>205</ele>
        <time>2018-11-04T11:37:52Z</time>
      </trkpt>
      <trkpt lat="43.46274" lon="1.42966">
        <ele>205</ele>
        <time>2018-11-04T11:37:52Z</time>
      </trkpt>
      <trkpt lat="43.46278" lon="1.42969">
        <ele>205</ele>
        <time>2018-11-04T11:37:52Z</time>
      </trkpt>
      <trkpt lat="43.46281" lon="1.42973">
        <ele>205</ele>
        <time>2018-11-04T11:38:08Z</time>
      </trkpt>
      <trkpt lat="43.46285" lon="1.42975">
        <ele>205</ele>
        <time>2018-11-04T11:38:08Z</time>
      </trkpt>
      <trkpt lat="43.46289" lon="1.42979">
        <ele>205</ele>
        <time>2018-11-04T11:38:08Z</time>
      </trkpt>
      <trkpt lat="43.46293" lon="1.42985">
        <ele>213</ele>
        <time>2018-11-04T11:38:08Z</time>
      </trkpt>
      <trkpt lat="43.46298" lon="1.42991">
        <ele>213</ele>
        <time>2018-11-04T11:38:24Z</time>
      </trkpt>
      <trkpt lat="43.46301" lon="1.42999">
        <ele>213</ele>
        <time>2018-11-04T11:38:24Z</time>
      </trkpt>
      <trkpt lat="43.46304" lon="1.43006">
        <ele>213</ele>
        <time>2018-11-04T11:38:24Z</time>
      </trkpt>
      <trkpt lat="43.46308" lon="1.43012">
        <ele>213</ele>
        <time>2018-11-04T11:38:24Z</time>
      </trkpt>
      <trkpt lat="43.4631" lon="1.43019">
        <ele>213</ele>
        <time>2018-11-04T11:38:40Z</time>
      </trkpt>
      <trkpt lat="43.46314" lon="1.43028">
        <ele>213</ele>
        <time>2018-11-04T11:38:40Z</time>
      </trkpt>
      <trkpt lat="43.46317" lon="1.43033">
        <ele>213</ele>
        <time>2018-11-04T11:38:40Z</time>
      </trkpt>
      <trkpt lat="43.46318" lon="1.4304">
        <ele>213</ele>
        <time>2018-11-04T11:38:40Z</time>
      </trkpt>
      <trkpt lat="43.46318" lon="1.43046">
        <ele>213</ele>
        <time>2018-11-04T11:38:56Z</time>
      </trkpt>
      <trkpt lat="43.46319" lon="1.43053">
        <ele>213</ele>
        <time>2018-11-04T11:38:56Z</time>
      </trkpt>
      <trkpt lat="43.46321" lon="1.43062">
        <ele>213</ele>
        <time>2018-11-04T11:38:56Z</time>
      </trkpt>
      <trkpt lat="43.46322" lon="1.43069">
        <ele>213</ele>
        <time>2018-11-04T11:38:56Z</time>
      </trkpt>
      <trkpt lat="43.46324" lon="1.43078">
        <ele>213</ele>
        <time>2018-11-04T11:39:12Z</time>
      </trkpt>
      <trkpt lat="43.46323" lon="1.43086">
        <ele>213</ele>
        <time>2018-11-04T11:39:12Z</time>
      </trkpt>
      <trkpt lat="43.46322" lon="1.43095">
        <ele>213</ele>
        <time>2018-11-04T11:39:12Z</time>
      </trkpt>
      <trkpt lat="43.46322" lon="1.43103">
        <ele>213</ele>
        <time>2018-11-04T11:39:12Z</time>
      </trkpt>
      <trkpt lat="43.46322" lon="1.43112">
        <ele>213</ele>
        <time>2018-11-04T11:39:28Z</time>
      </trkpt>
      <trkpt lat="43.46322" lon="1.43121">
        <ele>213</ele>
        <time>2018-11-04T11:39:28Z</time>
      </trkpt>
      <trkpt lat="43.46321" lon="1.43128">
        <ele>216</ele>
        <time>2018-11-04T11:39:28Z</time>
      </trkpt>
      <trkpt lat="43.46319" lon="1.43135">
        <ele>216</ele>
        <time>2018-11-04T11:39:28Z</time>
      </trkpt>
      <trkpt lat="43.46319" lon="1.43143">
        <ele>216</ele>
        <time>2018-11-04T11:39:44Z</time>
      </trkpt>
      <trkpt lat="43.46318" lon="1.43151">
        <ele>216</ele>
        <time>2018-11-04T11:39:44Z</time>
      </trkpt>
      <trkpt lat="43.46316" lon="1.4316">
        <ele>216</ele>
        <time>2018-11-04T11:39:44Z</time>
      </trkpt>
      <trkpt lat="43.46315" lon="1.43169">
        <ele>216</ele>
        <time>2018-11-04T11:39:44Z</time>
      </trkpt>
      <trkpt lat="43.46315" lon="1.43177">
        <ele>216</ele>
        <time>2018-11-04T11:40:00Z</time>
      </trkpt>
      <trkpt lat="43.46314" lon="1.43185">
        <ele>216</ele>
        <time>2018-11-04T11:40:00Z</time>
      </trkpt>
      <trkpt lat="43.46312" lon="1.43193">
        <ele>216</ele>
        <time>2018-11-04T11:40:00Z</time>
      </trkpt>
      <trkpt lat="43.4631" lon="1.43201">
        <ele>216</ele>
        <time>2018-11-04T11:40:00Z</time>
      </trkpt>
      <trkpt lat="43.4631" lon="1.4321">
        <ele>226</ele>
        <time>2018-11-04T11:40:16Z</time>
      </trkpt>
      <trkpt lat="43.46309" lon="1.43218">
        <ele>226</ele>
        <time>2018-11-04T11:40:16Z</time>
      </trkpt>
      <trkpt lat="43.46307" lon="1.43224">
        <ele>226</ele>
        <time>2018-11-04T11:40:16Z</time>
      </trkpt>
      <trkpt lat="43.46306" lon="1.43232">
        <ele>226</ele>
        <time>2018-11-04T11:40:16Z</time>
      </trkpt>
      <trkpt lat="43.46305" lon="1.4324">
        <ele>226</ele>
        <time>2018-11-04T11:40:32Z</time>
      </trkpt>
      <trkpt lat="43.46303" lon="1.43248">
        <ele>226</ele>
        <time>2018-11-04T11:40:32Z</time>
      </trkpt>
      <trkpt lat="43.46302" lon="1.43255">
        <ele>226</ele>
        <time>2018-11-04T11:40:32Z</time>
      </trkpt>
      <trkpt lat="43.46302" lon="1.43262">
        <ele>226</ele>
        <time>2018-11-04T11:40:32Z</time>
      </trkpt>
      <trkpt lat="43.46301" lon="1.43269">
        <ele>226</ele>
        <time>2018-11-04T11:40:48Z</time>
      </trkpt>
      <trkpt lat="43.46299" lon="1.43279">
        <ele>226</ele>
        <time>2018-11-04T11:40:48Z</time>
      </trkpt>
      <trkpt lat="43.46298" lon="1.43287">
        <ele>226</ele>
        <time>2018-11-04T11:40:48Z</time>
      </trkpt>
      <trkpt lat="43.46296" lon="1.43295">
        <ele>235</ele>
        <time>2018-11-04T11:40:48Z</time>
      </trkpt>
      <trkpt lat="43.46296" lon="1.43303">
        <ele>235</ele>
        <time>2018-11-04T11:41:04Z</time>
      </trkpt>
      <trkpt lat="43.46294" lon="1.43311">
        <ele>235</ele>
        <time>2018-11-04T11:41:04Z</time>
      </trkpt>
      <trkpt lat="43.46292" lon="1.43319">
        <ele>235</ele>
        <time>2018-11-04T11:41:04Z</time>
      </trkpt>
      <trkpt lat="43.46291" lon="1.43326">
        <ele>231</ele>
        <time>2018-11-04T11:41:04Z</time>
      </trkpt>
      <trkpt lat="43.46288" lon="1.43333">
        <ele>231</ele>
        <time>2018-11-04T11:41:20Z</time>
      </trkpt>
      <trkpt lat="43.46288" lon="1.43341">
        <ele>231</ele>
        <time>2018-11-04T11:41:20Z</time>
      </trkpt>
      <trkpt lat="43.46286" lon="1.43348">
        <ele>231</ele>
        <time>2018-11-04T11:41:20Z</time>
      </trkpt>
      <trkpt lat="43.46285" lon="1.43356">
        <ele>231</ele>
        <time>2018-11-04T11:41:20Z</time>
      </trkpt>
      <trkpt lat="43.46283" lon="1.43362">
        <ele>231</ele>
        <time>2018-11-04T11:41:36Z</time>
      </trkpt>
      <trkpt lat="43.46281" lon="1.43369">
        <ele>231</ele>
        <time>2018-11-04T11:41:36Z</time>
      </trkpt>
      <trkpt lat="43.46278" lon="1.43373">
        <ele>231</ele>
        <time>2018-11-04T11:41:36Z</time>
      </trkpt>
      <trkpt lat="43.46276" lon="1.43379">
        <ele>234</ele>
        <time>2018-11-04T11:41:36Z</time>
      </trkpt>
      <trkpt lat="43.46277" lon="1.43375">
        <ele>231</ele>
        <time>2018-11-04T11:46:04Z</time>
      </trkpt>
      <trkpt lat="43.46277" lon="1.43375">
        <ele>231</ele>
        <time>2018-11-04T11:46:04Z</time>
      </trkpt>
      <trkpt lat="43.46277" lon="1.43375">
        <ele>231</ele>
        <time>2018-11-04T11:46:04Z</time>
      </trkpt>
      <trkpt lat="43.46276" lon="1.43373">
        <ele>231</ele>
        <time>2018-11-04T11:46:04Z</time>
      </trkpt>
      <trkpt lat="43.46272" lon="1.43368">
        <ele>231</ele>
        <time>2018-11-04T11:46:04Z</time>
      </trkpt>
      <trkpt lat="43.46268" lon="1.43363">
        <ele>231</ele>
        <time>2018-11-04T11:46:20Z</time>
      </trkpt>
      <trkpt lat="43.46266" lon="1.43357">
        <ele>231</ele>
        <time>2018-11-04T11:46:20Z</time>
      </trkpt>
      <trkpt lat="43.46263" lon="1.43352">
        <ele>231</ele>
        <time>2018-11-04T11:46:20Z</time>
      </trkpt>
      <trkpt lat="43.4626" lon="1.43348">
        <ele>231</ele>
        <time>2018-11-04T11:46:20Z</time>
      </trkpt>
      <trkpt lat="43.46258" lon="1.43343">
        <ele>231</ele>
        <time>2018-11-04T11:46:36Z</time>
      </trkpt>
      <trkpt lat="43.46256" lon="1.43338">
        <ele>231</ele>
        <time>2018-11-04T11:46:36Z</time>
      </trkpt>
      <trkpt lat="43.46253" lon="1.43333">
        <ele>231</ele>
        <time>2018-11-04T11:46:36Z</time>
      </trkpt>
      <trkpt lat="43.4625" lon="1.43329">
        <ele>231</ele>
        <time>2018-11-04T11:46:36Z</time>
      </trkpt>
      <trkpt lat="43.46247" lon="1.43325">
        <ele>231</ele>
        <time>2018-11-04T11:46:52Z</time>
      </trkpt>
      <trkpt lat="43.46244" lon="1.43321">
        <ele>231</ele>
        <time>2018-11-04T11:46:52Z</time>
      </trkpt>
      <trkpt lat="43.4624" lon="1.43316">
        <ele>231</ele>
        <time>2018-11-04T11:46:52Z</time>
      </trkpt>
      <trkpt lat="43.46237" lon="1.43311">
        <ele>231</ele>
        <time>2018-11-04T11:46:52Z</time>
      </trkpt>
      <trkpt lat="43.46233" lon="1.43308">
        <ele>231</ele>
        <time>2018-11-04T11:47:08Z</time>
      </trkpt>
      <trkpt lat="43.46228" lon="1.43306">
        <ele>231</ele>
        <time>2018-11-04T11:47:08Z</time>
      </trkpt>
      <trkpt lat="43.46226" lon="1.43302">
        <ele>231</ele>
        <time>2018-11-04T11:47:08Z</time>
      </trkpt>
      <trkpt lat="43.46225" lon="1.433">
        <ele>231</ele>
        <time>2018-11-04T11:47:08Z</time>
      </trkpt>
      <trkpt lat="43.46222" lon="1.43301">
        <ele>231</ele>
        <time>2018-11-04T11:47:24Z</time>
      </trkpt>
      <trkpt lat="43.4622" lon="1.43302">
        <ele>231</ele>
        <time>2018-11-04T11:47:24Z</time>
      </trkpt>
      <trkpt lat="43.46217" lon="1.43306">
        <ele>231</ele>
        <time>2018-11-04T11:47:24Z</time>
      </trkpt>
      <trkpt lat="43.46216" lon="1.4331">
        <ele>231</ele>
        <time>2018-11-04T11:47:24Z</time>
      </trkpt>
      <trkpt lat="43.46215" lon="1.43316">
        <ele>231</ele>
        <time>2018-11-04T11:47:40Z</time>
      </trkpt>
      <trkpt lat="43.46213" lon="1.43321">
        <ele>231</ele>
        <time>2018-11-04T11:47:40Z</time>
      </trkpt>
      <trkpt lat="43.46212" lon="1.43327">
        <ele>231</ele>
        <time>2018-11-04T11:47:40Z</time>
      </trkpt>
      <trkpt lat="43.4621" lon="1.43332">
        <ele>231</ele>
        <time>2018-11-04T11:47:40Z</time>
      </trkpt>
      <trkpt lat="43.46208" lon="1.43337">
        <ele>237</ele>
        <time>2018-11-04T11:47:56Z</time>
      </trkpt>
      <trkpt lat="43.46206" lon="1.43342">
        <ele>237</ele>
        <time>2018-11-04T11:47:56Z</time>
      </trkpt>
      <trkpt lat="43.46206" lon="1.43348">
        <ele>237</ele>
        <time>2018-11-04T11:47:56Z</time>
      </trkpt>
      <trkpt lat="43.46204" lon="1.43353">
        <ele>237</ele>
        <time>2018-11-04T11:47:56Z</time>
      </trkpt>
      <trkpt lat="43.46202" lon="1.43358">
        <ele>237</ele>
        <time>2018-11-04T11:48:12Z</time>
      </trkpt>
      <trkpt lat="43.462" lon="1.43363">
        <ele>237</ele>
        <time>2018-11-04T11:48:12Z</time>
      </trkpt>
      <trkpt lat="43.46198" lon="1.43367">
        <ele>237</ele>
        <time>2018-11-04T11:48:12Z</time>
      </trkpt>
      <trkpt lat="43.46197" lon="1.43372">
        <ele>237</ele>
        <time>2018-11-04T11:48:12Z</time>
      </trkpt>
      <trkpt lat="43.46195" lon="1.43377">
        <ele>242</ele>
        <time>2018-11-04T11:48:28Z</time>
      </trkpt>
      <trkpt lat="43.46192" lon="1.43382">
        <ele>242</ele>
        <time>2018-11-04T11:48:28Z</time>
      </trkpt>
      <trkpt lat="43.46191" lon="1.43388">
        <ele>242</ele>
        <time>2018-11-04T11:48:28Z</time>
      </trkpt>
      <trkpt lat="43.4619" lon="1.43394">
        <ele>242</ele>
        <time>2018-11-04T11:48:28Z</time>
      </trkpt>
      <trkpt lat="43.46189" lon="1.43401">
        <ele>242</ele>
        <time>2018-11-04T11:48:44Z</time>
      </trkpt>
      <trkpt lat="43.46187" lon="1.43405">
        <ele>242</ele>
        <time>2018-11-04T11:48:44Z</time>
      </trkpt>
      <trkpt lat="43.46185" lon="1.43412">
        <ele>242</ele>
        <time>2018-11-04T11:48:44Z</time>
      </trkpt>
      <trkpt lat="43.46184" lon="1.43419">
        <ele>242</ele>
        <time>2018-11-04T11:48:44Z</time>
      </trkpt>
      <trkpt lat="43.46182" lon="1.43424">
        <ele>242</ele>
        <time>2018-11-04T11:49:00Z</time>
      </trkpt>
      <trkpt lat="43.4618" lon="1.43428">
        <ele>242</ele>
        <time>2018-11-04T11:49:00Z</time>
      </trkpt>
      <trkpt lat="43.46179" lon="1.43434">
        <ele>242</ele>
        <time>2018-11-04T11:49:00Z</time>
      </trkpt>
      <trkpt lat="43.46178" lon="1.43438">
        <ele>242</ele>
        <time>2018-11-04T11:49:00Z</time>
      </trkpt>
      <trkpt lat="43.46177" lon="1.43441">
        <ele>242</ele>
        <time>2018-11-04T11:49:16Z</time>
      </trkpt>
      <trkpt lat="43.46174" lon="1.43447">
        <ele>242</ele>
        <time>2018-11-04T11:49:16Z</time>
      </trkpt>
      <trkpt lat="43.46169" lon="1.43454">
        <ele>242</ele>
        <time>2018-11-04T11:49:16Z</time>
      </trkpt>
      <trkpt lat="43.46165" lon="1.43459">
        <ele>242</ele>
        <time>2018-11-04T11:49:16Z</time>
      </trkpt>
      <trkpt lat="43.46161" lon="1.43466">
        <ele>242</ele>
        <time>2018-11-04T11:49:32Z</time>
      </trkpt>
      <trkpt lat="43.46159" lon="1.43473">
        <ele>242</ele>
        <time>2018-11-04T11:49:32Z</time>
      </trkpt>
      <trkpt lat="43.46158" lon="1.43481">
        <ele>242</ele>
        <time>2018-11-04T11:49:32Z</time>
      </trkpt>
      <trkpt lat="43.46157" lon="1.4349">
        <ele>242</ele>
        <time>2018-11-04T11:49:32Z</time>
      </trkpt>
      <trkpt lat="43.46155" lon="1.43497">
        <ele>242</ele>
        <time>2018-11-04T11:49:48Z</time>
      </trkpt>
      <trkpt lat="43.46152" lon="1.43504">
        <ele>242</ele>
        <time>2018-11-04T11:49:48Z</time>
      </trkpt>
      <trkpt lat="43.46148" lon="1.43509">
        <ele>242</ele>
        <time>2018-11-04T11:49:48Z</time>
      </trkpt>
      <trkpt lat="43.46143" lon="1.43514">
        <ele>242</ele>
        <time>2018-11-04T11:49:48Z</time>
      </trkpt>
      <trkpt lat="43.4614" lon="1.43519">
        <ele>242</ele>
        <time>2018-11-04T11:50:04Z</time>
      </trkpt>
      <trkpt lat="43.46136" lon="1.43525">
        <ele>242</ele>
        <time>2018-11-04T11:50:04Z</time>
      </trkpt>
      <trkpt lat="43.46132" lon="1.43529">
        <ele>242</ele>
        <time>2018-11-04T11:50:04Z</time>
      </trkpt>
      <trkpt lat="43.46129" lon="1.43536">
        <ele>242</ele>
        <time>2018-11-04T11:50:04Z</time>
      </trkpt>
      <trkpt lat="43.46123" lon="1.43553">
        <ele>241</ele>
        <time>2018-11-04T11:50:36Z</time>
      </trkpt>
      <trkpt lat="43.46123" lon="1.43554">
        <ele>241</ele>
        <time>2018-11-04T11:50:36Z</time>
      </trkpt>
      <trkpt lat="43.46123" lon="1.43554">
        <ele>241</ele>
        <time>2018-11-04T11:50:36Z</time>
      </trkpt>
      <trkpt lat="43.46123" lon="1.43555">
        <ele>241</ele>
        <time>2018-11-04T11:50:36Z</time>
      </trkpt>
      <trkpt lat="43.46123" lon="1.43557">
        <ele>241</ele>
        <time>2018-11-04T11:50:36Z</time>
      </trkpt>
      <trkpt lat="43.46122" lon="1.4356">
        <ele>241</ele>
        <time>2018-11-04T11:54:00Z</time>
      </trkpt>
      <trkpt lat="43.46121" lon="1.43561">
        <ele>241</ele>
        <time>2018-11-04T11:54:00Z</time>
      </trkpt>
      <trkpt lat="43.4612" lon="1.43562">
        <ele>241</ele>
        <time>2018-11-04T11:54:00Z</time>
      </trkpt>
      <trkpt lat="43.46117" lon="1.43564">
        <ele>241</ele>
        <time>2018-11-04T11:54:00Z</time>
      </trkpt>
      <trkpt lat="43.46114" lon="1.43566">
        <ele>241</ele>
        <time>2018-11-04T11:54:00Z</time>
      </trkpt>
      <trkpt lat="43.4611" lon="1.4357">
        <ele>241</ele>
        <time>2018-11-04T11:54:16Z</time>
      </trkpt>
      <trkpt lat="43.46107" lon="1.43574">
        <ele>241</ele>
        <time>2018-11-04T11:54:16Z</time>
      </trkpt>
      <trkpt lat="43.46104" lon="1.43576">
        <ele>241</ele>
        <time>2018-11-04T11:54:16Z</time>
      </trkpt>
      <trkpt lat="43.46101" lon="1.43579">
        <ele>241</ele>
        <time>2018-11-04T11:54:16Z</time>
      </trkpt>
      <trkpt lat="43.46099" lon="1.43583">
        <ele>241</ele>
        <time>2018-11-04T11:54:32Z</time>
      </trkpt>
      <trkpt lat="43.46095" lon="1.43588">
        <ele>241</ele>
        <time>2018-11-04T11:54:32Z</time>
      </trkpt>
      <trkpt lat="43.46092" lon="1.43592">
        <ele>241</ele>
        <time>2018-11-04T11:54:32Z</time>
      </trkpt>
      <trkpt lat="43.46089" lon="1.43595">
        <ele>241</ele>
        <time>2018-11-04T11:54:32Z</time>
      </trkpt>
      <trkpt lat="43.46086" lon="1.436">
        <ele>241</ele>
        <time>2018-11-04T11:54:48Z</time>
      </trkpt>
      <trkpt lat="43.46084" lon="1.43607">
        <ele>241</ele>
        <time>2018-11-04T11:54:48Z</time>
      </trkpt>
      <trkpt lat="43.46083" lon="1.43615">
        <ele>241</ele>
        <time>2018-11-04T11:54:48Z</time>
      </trkpt>
      <trkpt lat="43.4608" lon="1.43622">
        <ele>241</ele>
        <time>2018-11-04T11:54:48Z</time>
      </trkpt>
      <trkpt lat="43.46077" lon="1.43629">
        <ele>245</ele>
        <time>2018-11-04T11:55:04Z</time>
      </trkpt>
      <trkpt lat="43.46075" lon="1.43635">
        <ele>245</ele>
        <time>2018-11-04T11:55:04Z</time>
      </trkpt>
      <trkpt lat="43.46075" lon="1.43642">
        <ele>245</ele>
        <time>2018-11-04T11:55:04Z</time>
      </trkpt>
      <trkpt lat="43.46075" lon="1.43647">
        <ele>245</ele>
        <time>2018-11-04T11:55:04Z</time>
      </trkpt>
      <trkpt lat="43.46074" lon="1.43655">
        <ele>245</ele>
        <time>2018-11-04T11:55:20Z</time>
      </trkpt>
      <trkpt lat="43.46072" lon="1.43663">
        <ele>245</ele>
        <time>2018-11-04T11:55:20Z</time>
      </trkpt>
      <trkpt lat="43.46071" lon="1.43671">
        <ele>245</ele>
        <time>2018-11-04T11:55:20Z</time>
      </trkpt>
      <trkpt lat="43.46069" lon="1.43679">
        <ele>245</ele>
        <time>2018-11-04T11:55:20Z</time>
      </trkpt>
      <trkpt lat="43.46068" lon="1.43687">
        <ele>245</ele>
        <time>2018-11-04T11:55:36Z</time>
      </trkpt>
      <trkpt lat="43.46066" lon="1.43695">
        <ele>245</ele>
        <time>2018-11-04T11:55:36Z</time>
      </trkpt>
      <trkpt lat="43.46065" lon="1.43702">
        <ele>245</ele>
        <time>2018-11-04T11:55:36Z</time>
      </trkpt>
      <trkpt lat="43.46063" lon="1.43706">
        <ele>245</ele>
        <time>2018-11-04T11:55:36Z</time>
      </trkpt>
      <trkpt lat="43.4606" lon="1.43714">
        <ele>246</ele>
        <time>2018-11-04T11:55:52Z</time>
      </trkpt>
      <trkpt lat="43.46058" lon="1.4372">
        <ele>246</ele>
        <time>2018-11-04T11:55:52Z</time>
      </trkpt>
      <trkpt lat="43.46056" lon="1.43727">
        <ele>246</ele>
        <time>2018-11-04T11:55:52Z</time>
      </trkpt>
      <trkpt lat="43.46054" lon="1.43734">
        <ele>246</ele>
        <time>2018-11-04T11:55:52Z</time>
      </trkpt>
      <trkpt lat="43.46052" lon="1.43741">
        <ele>246</ele>
        <time>2018-11-04T11:56:08Z</time>
      </trkpt>
      <trkpt lat="43.46051" lon="1.43746">
        <ele>246</ele>
        <time>2018-11-04T11:56:08Z</time>
      </trkpt>
      <trkpt lat="43.4605" lon="1.43751">
        <ele>246</ele>
        <time>2018-11-04T11:56:08Z</time>
      </trkpt>
      <trkpt lat="43.46051" lon="1.43757">
        <ele>246</ele>
        <time>2018-11-04T11:56:08Z</time>
      </trkpt>
      <trkpt lat="43.46054" lon="1.43763">
        <ele>246</ele>
        <time>2018-11-04T11:56:24Z</time>
      </trkpt>
      <trkpt lat="43.46055" lon="1.43767">
        <ele>246</ele>
        <time>2018-11-04T11:56:24Z</time>
      </trkpt>
      <trkpt lat="43.46058" lon="1.43769">
        <ele>246</ele>
        <time>2018-11-04T11:56:24Z</time>
      </trkpt>
      <trkpt lat="43.46062" lon="1.43771">
        <ele>246</ele>
        <time>2018-11-04T11:56:24Z</time>
      </trkpt>
      <trkpt lat="43.46067" lon="1.43772">
        <ele>246</ele>
        <time>2018-11-04T11:56:40Z</time>
      </trkpt>
      <trkpt lat="43.46071" lon="1.43774">
        <ele>246</ele>
        <time>2018-11-04T11:56:40Z</time>
      </trkpt>
      <trkpt lat="43.46075" lon="1.43776">
        <ele>246</ele>
        <time>2018-11-04T11:56:40Z</time>
      </trkpt>
      <trkpt lat="43.4608" lon="1.4378">
        <ele>246</ele>
        <time>2018-11-04T11:56:40Z</time>
      </trkpt>
      <trkpt lat="43.46085" lon="1.43783">
        <ele>246</ele>
        <time>2018-11-04T11:56:56Z</time>
      </trkpt>
      <trkpt lat="43.4609" lon="1.43786">
        <ele>246</ele>
        <time>2018-11-04T11:56:56Z</time>
      </trkpt>
      <trkpt lat="43.46093" lon="1.4379">
        <ele>246</ele>
        <time>2018-11-04T11:56:56Z</time>
      </trkpt>
      <trkpt lat="43.46097" lon="1.43794">
        <ele>244</ele>
        <time>2018-11-04T11:56:56Z</time>
      </trkpt>
      <trkpt lat="43.46101" lon="1.43797">
        <ele>244</ele>
        <time>2018-11-04T11:57:12Z</time>
      </trkpt>
      <trkpt lat="43.46105" lon="1.438">
        <ele>244</ele>
        <time>2018-11-04T11:57:12Z</time>
      </trkpt>
      <trkpt lat="43.46109" lon="1.43804">
        <ele>244</ele>
        <time>2018-11-04T11:57:12Z</time>
      </trkpt>
      <trkpt lat="43.46111" lon="1.43808">
        <ele>244</ele>
        <time>2018-11-04T11:57:12Z</time>
      </trkpt>
      <trkpt lat="43.46111" lon="1.43809">
        <ele>244</ele>
        <time>2018-11-04T11:57:28Z</time>
      </trkpt>
      <trkpt lat="43.46111" lon="1.43812">
        <ele>244</ele>
        <time>2018-11-04T11:57:28Z</time>
      </trkpt>
      <trkpt lat="43.4611" lon="1.43817">
        <ele>244</ele>
        <time>2018-11-04T11:57:28Z</time>
      </trkpt>
      <trkpt lat="43.46109" lon="1.43821">
        <ele>244</ele>
        <time>2018-11-04T11:57:28Z</time>
      </trkpt>
      <trkpt lat="43.46109" lon="1.43825">
        <ele>244</ele>
        <time>2018-11-04T11:57:44Z</time>
      </trkpt>
      <trkpt lat="43.46108" lon="1.43829">
        <ele>244</ele>
        <time>2018-11-04T11:57:44Z</time>
      </trkpt>
      <trkpt lat="43.46106" lon="1.43832">
        <ele>244</ele>
        <time>2018-11-04T11:57:44Z</time>
      </trkpt>
      <trkpt lat="43.46106" lon="1.43837">
        <ele>244</ele>
        <time>2018-11-04T11:57:44Z</time>
      </trkpt>
      <trkpt lat="43.46106" lon="1.43838">
        <ele>244</ele>
        <time>2018-11-04T11:58:00Z</time>
      </trkpt>
      <trkpt lat="43.46104" lon="1.4384">
        <ele>244</ele>
        <time>2018-11-04T11:58:00Z</time>
      </trkpt>
      <trkpt lat="43.46102" lon="1.43845">
        <ele>244</ele>
        <time>2018-11-04T11:58:00Z</time>
      </trkpt>
      <trkpt lat="43.461" lon="1.43852">
        <ele>244</ele>
        <time>2018-11-04T11:58:00Z</time>
      </trkpt>
      <trkpt lat="43.461" lon="1.43856">
        <ele>244</ele>
        <time>2018-11-04T11:58:16Z</time>
      </trkpt>
      <trkpt lat="43.46099" lon="1.4386">
        <ele>244</ele>
        <time>2018-11-04T11:58:16Z</time>
      </trkpt>
      <trkpt lat="43.46097" lon="1.43863">
        <ele>244</ele>
        <time>2018-11-04T11:58:16Z</time>
      </trkpt>
      <trkpt lat="43.46096" lon="1.43867">
        <ele>244</ele>
        <time>2018-11-04T11:58:16Z</time>
      </trkpt>
      <trkpt lat="43.46095" lon="1.43872">
        <ele>244</ele>
        <time>2018-11-04T11:58:32Z</time>
      </trkpt>
      <trkpt lat="43.46094" lon="1.43875">
        <ele>238</ele>
        <time>2018-11-04T11:58:32Z</time>
      </trkpt>
      <trkpt lat="43.46092" lon="1.43881">
        <ele>238</ele>
        <time>2018-11-04T11:58:32Z</time>
      </trkpt>
      <trkpt lat="43.4609" lon="1.43885">
        <ele>238</ele>
        <time>2018-11-04T11:58:32Z</time>
      </trkpt>
      <trkpt lat="43.46089" lon="1.43891">
        <ele>238</ele>
        <time>2018-11-04T11:58:48Z</time>
      </trkpt>
      <trkpt lat="43.46087" lon="1.43896">
        <ele>238</ele>
        <time>2018-11-04T11:58:48Z</time>
      </trkpt>
      <trkpt lat="43.46085" lon="1.43902">
        <ele>238</ele>
        <time>2018-11-04T11:58:48Z</time>
      </trkpt>
      <trkpt lat="43.46083" lon="1.43908">
        <ele>238</ele>
        <time>2018-11-04T11:58:48Z</time>
      </trkpt>
      <trkpt lat="43.46082" lon="1.43915">
        <ele>238</ele>
        <time>2018-11-04T11:59:04Z</time>
      </trkpt>
      <trkpt lat="43.46081" lon="1.43918">
        <ele>238</ele>
        <time>2018-11-04T11:59:04Z</time>
      </trkpt>
      <trkpt lat="43.4608" lon="1.43921">
        <ele>238</ele>
        <time>2018-11-04T11:59:04Z</time>
      </trkpt>
      <trkpt lat="43.46078" lon="1.43926">
        <ele>238</ele>
        <time>2018-11-04T11:59:04Z</time>
      </trkpt>
      <trkpt lat="43.46077" lon="1.43931">
        <ele>238</ele>
        <time>2018-11-04T11:59:20Z</time>
      </trkpt>
      <trkpt lat="43.46076" lon="1.43937">
        <ele>238</ele>
        <time>2018-11-04T11:59:20Z</time>
      </trkpt>
      <trkpt lat="43.46074" lon="1.43941">
        <ele>238</ele>
        <time>2018-11-04T11:59:20Z</time>
      </trkpt>
      <trkpt lat="43.46074" lon="1.43944">
        <ele>238</ele>
        <time>2018-11-04T11:59:20Z</time>
      </trkpt>
      <trkpt lat="43.46073" lon="1.43946">
        <ele>238</ele>
        <time>2018-11-04T11:59:48Z</time>
      </trkpt>
      <trkpt lat="43.46073" lon="1.43946">
        <ele>238</ele>
        <time>2018-11-04T11:59:48Z</time>
      </trkpt>
      <trkpt lat="43.46072" lon="1.4395">
        <ele>238</ele>
        <time>2018-11-04T11:59:48Z</time>
      </trkpt>
      <trkpt lat="43.46072" lon="1.43957">
        <ele>238</ele>
        <time>2018-11-04T11:59:48Z</time>
      </trkpt>
      <trkpt lat="43.46071" lon="1.43962">
        <ele>233</ele>
        <time>2018-11-04T11:59:48Z</time>
      </trkpt>
      <trkpt lat="43.46069" lon="1.43967">
        <ele>233</ele>
        <time>2018-11-04T12:00:04Z</time>
      </trkpt>
      <trkpt lat="43.46066" lon="1.43973">
        <ele>233</ele>
        <time>2018-11-04T12:00:04Z</time>
      </trkpt>
      <trkpt lat="43.46065" lon="1.43981">
        <ele>233</ele>
        <time>2018-11-04T12:00:04Z</time>
      </trkpt>
      <trkpt lat="43.46064" lon="1.43988">
        <ele>233</ele>
        <time>2018-11-04T12:00:04Z</time>
      </trkpt>
      <trkpt lat="43.46061" lon="1.43993">
        <ele>233</ele>
        <time>2018-11-04T12:00:20Z</time>
      </trkpt>
      <trkpt lat="43.46059" lon="1.43999">
        <ele>233</ele>
        <time>2018-11-04T12:00:20Z</time>
      </trkpt>
      <trkpt lat="43.46057" lon="1.44005">
        <ele>233</ele>
        <time>2018-11-04T12:00:20Z</time>
      </trkpt>
      <trkpt lat="43.46056" lon="1.44011">
        <ele>233</ele>
        <time>2018-11-04T12:00:20Z</time>
      </trkpt>
      <trkpt lat="43.46054" lon="1.44014">
        <ele>233</ele>
        <time>2018-11-04T12:00:36Z</time>
      </trkpt>
      <trkpt lat="43.46054" lon="1.44019">
        <ele>233</ele>
        <time>2018-11-04T12:00:36Z</time>
      </trkpt>
      <trkpt lat="43.46054" lon="1.44025">
        <ele>233</ele>
        <time>2018-11-04T12:00:36Z</time>
      </trkpt>
      <trkpt lat="43.46054" lon="1.44029">
        <ele>233</ele>
        <time>2018-11-04T12:00:36Z</time>
      </trkpt>
      <trkpt lat="43.46051" lon="1.44034">
        <ele>233</ele>
        <time>2018-11-04T12:00:52Z</time>
      </trkpt>
      <trkpt lat="43.46049" lon="1.4404">
        <ele>233</ele>
        <time>2018-11-04T12:00:52Z</time>
      </trkpt>
      <trkpt lat="43.46047" lon="1.44047">
        <ele>227</ele>
        <time>2018-11-04T12:00:52Z</time>
      </trkpt>
      <trkpt lat="43.46046" lon="1.44052">
        <ele>227</ele>
        <time>2018-11-04T12:00:52Z</time>
      </trkpt>
      <trkpt lat="43.46045" lon="1.44057">
        <ele>227</ele>
        <time>2018-11-04T12:01:08Z</time>
      </trkpt>
      <trkpt lat="43.46044" lon="1.44063">
        <ele>227</ele>
        <time>2018-11-04T12:01:08Z</time>
      </trkpt>
      <trkpt lat="43.46043" lon="1.44065">
        <ele>227</ele>
        <time>2018-11-04T12:01:08Z</time>
      </trkpt>
      <trkpt lat="43.46042" lon="1.4407">
        <ele>227</ele>
        <time>2018-11-04T12:01:08Z</time>
      </trkpt>
      <trkpt lat="43.46042" lon="1.44076">
        <ele>227</ele>
        <time>2018-11-04T12:01:28Z</time>
      </trkpt>
      <trkpt lat="43.46041" lon="1.44081">
        <ele>222</ele>
        <time>2018-11-04T12:01:28Z</time>
      </trkpt>
      <trkpt lat="43.4604" lon="1.44085">
        <ele>222</ele>
        <time>2018-11-04T12:01:28Z</time>
      </trkpt>
      <trkpt lat="43.46039" lon="1.44087">
        <ele>222</ele>
        <time>2018-11-04T12:01:28Z</time>
      </trkpt>
      <trkpt lat="43.46038" lon="1.4409">
        <ele>222</ele>
        <time>2018-11-04T12:01:28Z</time>
      </trkpt>
      <trkpt lat="43.46037" lon="1.44094">
        <ele>222</ele>
        <time>2018-11-04T12:01:44Z</time>
      </trkpt>
      <trkpt lat="43.46035" lon="1.44101">
        <ele>222</ele>
        <time>2018-11-04T12:01:44Z</time>
      </trkpt>
      <trkpt lat="43.46033" lon="1.44108">
        <ele>222</ele>
        <time>2018-11-04T12:01:44Z</time>
      </trkpt>
      <trkpt lat="43.46032" lon="1.44115">
        <ele>222</ele>
        <time>2018-11-04T12:01:44Z</time>
      </trkpt>
      <trkpt lat="43.46031" lon="1.44121">
        <ele>222</ele>
        <time>2018-11-04T12:02:00Z</time>
      </trkpt>
      <trkpt lat="43.4603" lon="1.44127">
        <ele>218</ele>
        <time>2018-11-04T12:02:00Z</time>
      </trkpt>
      <trkpt lat="43.46028" lon="1.44135">
        <ele>218</ele>
        <time>2018-11-04T12:02:00Z</time>
      </trkpt>
      <trkpt lat="43.46025" lon="1.44142">
        <ele>218</ele>
        <time>2018-11-04T12:02:00Z</time>
      </trkpt>
      <trkpt lat="43.46024" lon="1.4415">
        <ele>218</ele>
        <time>2018-11-04T12:02:24Z</time>
      </trkpt>
      <trkpt lat="43.46024" lon="1.44153">
        <ele>218</ele>
        <time>2018-11-04T12:02:24Z</time>
      </trkpt>
      <trkpt lat="43.46025" lon="1.44157">
        <ele>218</ele>
        <time>2018-11-04T12:02:24Z</time>
      </trkpt>
      <trkpt lat="43.46025" lon="1.44159">
        <ele>218</ele>
        <time>2018-11-04T12:02:24Z</time>
      </trkpt>
      <trkpt lat="43.46027" lon="1.44164">
        <ele>218</ele>
        <time>2018-11-04T12:02:24Z</time>
      </trkpt>
      <trkpt lat="43.46028" lon="1.44168">
        <ele>218</ele>
        <time>2018-11-04T12:02:40Z</time>
      </trkpt>
      <trkpt lat="43.46028" lon="1.4417">
        <ele>218</ele>
        <time>2018-11-04T12:02:40Z</time>
      </trkpt>
      <trkpt lat="43.4603" lon="1.44175">
        <ele>218</ele>
        <time>2018-11-04T12:02:40Z</time>
      </trkpt>
      <trkpt lat="43.46032" lon="1.44181">
        <ele>218</ele>
        <time>2018-11-04T12:02:40Z</time>
      </trkpt>
      <trkpt lat="43.46033" lon="1.44186">
        <ele>218</ele>
        <time>2018-11-04T12:02:56Z</time>
      </trkpt>
      <trkpt lat="43.46035" lon="1.44191">
        <ele>218</ele>
        <time>2018-11-04T12:02:56Z</time>
      </trkpt>
      <trkpt lat="43.46034" lon="1.44196">
        <ele>218</ele>
        <time>2018-11-04T12:02:56Z</time>
      </trkpt>
      <trkpt lat="43.46037" lon="1.44201">
        <ele>218</ele>
        <time>2018-11-04T12:02:56Z</time>
      </trkpt>
      <trkpt lat="43.46038" lon="1.44208">
        <ele>218</ele>
        <time>2018-11-04T12:03:12Z</time>
      </trkpt>
      <trkpt lat="43.46038" lon="1.4421">
        <ele>220</ele>
        <time>2018-11-04T12:03:12Z</time>
      </trkpt>
      <trkpt lat="43.4604" lon="1.44215">
        <ele>220</ele>
        <time>2018-11-04T12:03:12Z</time>
      </trkpt>
      <trkpt lat="43.46043" lon="1.44218">
        <ele>225</ele>
        <time>2018-11-04T12:03:12Z</time>
      </trkpt>
      <trkpt lat="43.46043" lon="1.44221">
        <ele>225</ele>
        <time>2018-11-04T12:03:32Z</time>
      </trkpt>
      <trkpt lat="43.46043" lon="1.44223">
        <ele>225</ele>
        <time>2018-11-04T12:03:32Z</time>
      </trkpt>
      <trkpt lat="43.46043" lon="1.44226">
        <ele>225</ele>
        <time>2018-11-04T12:03:32Z</time>
      </trkpt>
      <trkpt lat="43.46044" lon="1.4423">
        <ele>225</ele>
        <time>2018-11-04T12:03:32Z</time>
      </trkpt>
      <trkpt lat="43.46046" lon="1.44236">
        <ele>225</ele>
        <time>2018-11-04T12:03:32Z</time>
      </trkpt>
      <trkpt lat="43.46047" lon="1.44238">
        <ele>225</ele>
        <time>2018-11-04T12:03:52Z</time>
      </trkpt>
      <trkpt lat="43.46048" lon="1.44241">
        <ele>225</ele>
        <time>2018-11-04T12:03:52Z</time>
      </trkpt>
      <trkpt lat="43.46049" lon="1.44243">
        <ele>225</ele>
        <time>2018-11-04T12:03:52Z</time>
      </trkpt>
      <trkpt lat="43.46052" lon="1.44248">
        <ele>225</ele>
        <time>2018-11-04T12:03:52Z</time>
      </trkpt>
      <trkpt lat="43.46053" lon="1.44252">
        <ele>225</ele>
        <time>2018-11-04T12:03:52Z</time>
      </trkpt>
      <trkpt lat="43.46056" lon="1.4426">
        <ele>225</ele>
        <time>2018-11-04T12:04:16Z</time>
      </trkpt>
      <trkpt lat="43.46057" lon="1.44261">
        <ele>225</ele>
        <time>2018-11-04T12:04:16Z</time>
      </trkpt>
      <trkpt lat="43.46058" lon="1.44264">
        <ele>225</ele>
        <time>2018-11-04T12:04:16Z</time>
      </trkpt>
      <trkpt lat="43.46059" lon="1.44266">
        <ele>225</ele>
        <time>2018-11-04T12:04:16Z</time>
      </trkpt>
      <trkpt lat="43.4606" lon="1.44267">
        <ele>225</ele>
        <time>2018-11-04T12:04:16Z</time>
      </trkpt>
      <trkpt lat="43.46063" lon="1.4428">
        <ele>225</ele>
        <time>2018-11-04T12:05:08Z</time>
      </trkpt>
      <trkpt lat="43.46065" lon="1.44281">
        <ele>225</ele>
        <time>2018-11-04T12:05:08Z</time>
      </trkpt>
      <trkpt lat="43.46066" lon="1.44283">
        <ele>225</ele>
        <time>2018-11-04T12:05:08Z</time>
      </trkpt>
      <trkpt lat="43.46067" lon="1.44286">
        <ele>225</ele>
        <time>2018-11-04T12:05:08Z</time>
      </trkpt>
      <trkpt lat="43.46069" lon="1.44289">
        <ele>225</ele>
        <time>2018-11-04T12:05:08Z</time>
      </trkpt>
      <trkpt lat="43.46069" lon="1.44292">
        <ele>237</ele>
        <time>2018-11-04T12:05:28Z</time>
      </trkpt>
      <trkpt lat="43.46069" lon="1.44293">
        <ele>237</ele>
        <time>2018-11-04T12:05:28Z</time>
      </trkpt>
      <trkpt lat="43.4607" lon="1.44296">
        <ele>237</ele>
        <time>2018-11-04T12:05:28Z</time>
      </trkpt>
      <trkpt lat="43.4607" lon="1.44299">
        <ele>237</ele>
        <time>2018-11-04T12:05:28Z</time>
      </trkpt>
      <trkpt lat="43.46071" lon="1.44305">
        <ele>237</ele>
        <time>2018-11-04T12:05:28Z</time>
      </trkpt>
      <trkpt lat="43.46071" lon="1.44312">
        <ele>237</ele>
        <time>2018-11-04T12:05:48Z</time>
      </trkpt>
      <trkpt lat="43.46072" lon="1.44315">
        <ele>237</ele>
        <time>2018-11-04T12:05:48Z</time>
      </trkpt>
      <trkpt lat="43.46071" lon="1.44318">
        <ele>237</ele>
        <time>2018-11-04T12:05:48Z</time>
      </trkpt>
      <trkpt lat="43.46071" lon="1.44323">
        <ele>237</ele>
        <time>2018-11-04T12:05:48Z</time>
      </trkpt>
      <trkpt lat="43.46072" lon="1.44328">
        <ele>237</ele>
        <time>2018-11-04T12:05:48Z</time>
      </trkpt>
      <trkpt lat="43.46071" lon="1.44333">
        <ele>237</ele>
        <time>2018-11-04T12:06:08Z</time>
      </trkpt>
      <trkpt lat="43.46073" lon="1.44337">
        <ele>237</ele>
        <time>2018-11-04T12:06:08Z</time>
      </trkpt>
      <trkpt lat="43.46073" lon="1.44341">
        <ele>237</ele>
        <time>2018-11-04T12:06:08Z</time>
      </trkpt>
      <trkpt lat="43.46074" lon="1.44344">
        <ele>237</ele>
        <time>2018-11-04T12:06:08Z</time>
      </trkpt>
      <trkpt lat="43.46073" lon="1.44352">
        <ele>237</ele>
        <time>2018-11-04T12:06:08Z</time>
      </trkpt>
      <trkpt lat="43.46074" lon="1.44358">
        <ele>237</ele>
        <time>2018-11-04T12:06:24Z</time>
      </trkpt>
      <trkpt lat="43.46075" lon="1.4436">
        <ele>237</ele>
        <time>2018-11-04T12:06:24Z</time>
      </trkpt>
      <trkpt lat="43.46076" lon="1.44364">
        <ele>237</ele>
        <time>2018-11-04T12:06:24Z</time>
      </trkpt>
      <trkpt lat="43.46077" lon="1.4437">
        <ele>237</ele>
        <time>2018-11-04T12:06:24Z</time>
      </trkpt>
      <trkpt lat="43.46079" lon="1.44377">
        <ele>242</ele>
        <time>2018-11-04T12:06:40Z</time>
      </trkpt>
      <trkpt lat="43.4608" lon="1.44383">
        <ele>242</ele>
        <time>2018-11-04T12:06:40Z</time>
      </trkpt>
      <trkpt lat="43.46082" lon="1.44386">
        <ele>242</ele>
        <time>2018-11-04T12:06:40Z</time>
      </trkpt>
      <trkpt lat="43.46085" lon="1.4439">
        <ele>242</ele>
        <time>2018-11-04T12:06:40Z</time>
      </trkpt>
      <trkpt lat="43.4609" lon="1.44391">
        <ele>242</ele>
        <time>2018-11-04T12:06:56Z</time>
      </trkpt>
      <trkpt lat="43.46094" lon="1.4439">
        <ele>242</ele>
        <time>2018-11-04T12:06:56Z</time>
      </trkpt>
      <trkpt lat="43.46096" lon="1.44388">
        <ele>242</ele>
        <time>2018-11-04T12:06:56Z</time>
      </trkpt>
      <trkpt lat="43.46098" lon="1.44386">
        <ele>242</ele>
        <time>2018-11-04T12:06:56Z</time>
      </trkpt>
      <trkpt lat="43.461" lon="1.44383">
        <ele>242</ele>
        <time>2018-11-04T12:07:12Z</time>
      </trkpt>
      <trkpt lat="43.46105" lon="1.44383">
        <ele>242</ele>
        <time>2018-11-04T12:07:12Z</time>
      </trkpt>
      <trkpt lat="43.4611" lon="1.44383">
        <ele>242</ele>
        <time>2018-11-04T12:07:12Z</time>
      </trkpt>
      <trkpt lat="43.46116" lon="1.4438">
        <ele>242</ele>
        <time>2018-11-04T12:07:12Z</time>
      </trkpt>
      <trkpt lat="43.46122" lon="1.44377">
        <ele>242</ele>
        <time>2018-11-04T12:07:28Z</time>
      </trkpt>
      <trkpt lat="43.46127" lon="1.44376">
        <ele>250</ele>
        <time>2018-11-04T12:07:28Z</time>
      </trkpt>
      <trkpt lat="43.46131" lon="1.44376">
        <ele>250</ele>
        <time>2018-11-04T12:07:28Z</time>
      </trkpt>
      <trkpt lat="43.46136" lon="1.44374">
        <ele>242</ele>
        <time>2018-11-04T12:07:28Z</time>
      </trkpt>
      <trkpt lat="43.46141" lon="1.44372">
        <ele>242</ele>
        <time>2018-11-04T12:07:44Z</time>
      </trkpt>
      <trkpt lat="43.46146" lon="1.44369">
        <ele>242</ele>
        <time>2018-11-04T12:07:44Z</time>
      </trkpt>
      <trkpt lat="43.4615" lon="1.44366">
        <ele>242</ele>
        <time>2018-11-04T12:07:44Z</time>
      </trkpt>
      <trkpt lat="43.46152" lon="1.44363">
        <ele>242</ele>
        <time>2018-11-04T12:07:44Z</time>
      </trkpt>
      <trkpt lat="43.46155" lon="1.4436">
        <ele>242</ele>
        <time>2018-11-04T12:08:00Z</time>
      </trkpt>
      <trkpt lat="43.4616" lon="1.44363">
        <ele>242</ele>
        <time>2018-11-04T12:08:00Z</time>
      </trkpt>
      <trkpt lat="43.46165" lon="1.44365">
        <ele>242</ele>
        <time>2018-11-04T12:08:00Z</time>
      </trkpt>
      <trkpt lat="43.46169" lon="1.44365">
        <ele>242</ele>
        <time>2018-11-04T12:08:00Z</time>
      </trkpt>
      <trkpt lat="43.46173" lon="1.44366">
        <ele>242</ele>
        <time>2018-11-04T12:08:16Z</time>
      </trkpt>
      <trkpt lat="43.46177" lon="1.44366">
        <ele>242</ele>
        <time>2018-11-04T12:08:16Z</time>
      </trkpt>
      <trkpt lat="43.46183" lon="1.44363">
        <ele>242</ele>
        <time>2018-11-04T12:08:16Z</time>
      </trkpt>
      <trkpt lat="43.46188" lon="1.4436">
        <ele>242</ele>
        <time>2018-11-04T12:08:16Z</time>
      </trkpt>
      <trkpt lat="43.46193" lon="1.44356">
        <ele>242</ele>
        <time>2018-11-04T12:08:32Z</time>
      </trkpt>
      <trkpt lat="43.46198" lon="1.44352">
        <ele>242</ele>
        <time>2018-11-04T12:08:32Z</time>
      </trkpt>
      <trkpt lat="43.46203" lon="1.44351">
        <ele>242</ele>
        <time>2018-11-04T12:08:32Z</time>
      </trkpt>
      <trkpt lat="43.46208" lon="1.4435">
        <ele>242</ele>
        <time>2018-11-04T12:08:32Z</time>
      </trkpt>
      <trkpt lat="43.46214" lon="1.44348">
        <ele>249</ele>
        <time>2018-11-04T12:08:48Z</time>
      </trkpt>
      <trkpt lat="43.46219" lon="1.44347">
        <ele>249</ele>
        <time>2018-11-04T12:08:48Z</time>
      </trkpt>
      <trkpt lat="43.46222" lon="1.44341">
        <ele>249</ele>
        <time>2018-11-04T12:08:48Z</time>
      </trkpt>
      <trkpt lat="43.46225" lon="1.44335">
        <ele>249</ele>
        <time>2018-11-04T12:08:48Z</time>
      </trkpt>
      <trkpt lat="43.4623" lon="1.44333">
        <ele>249</ele>
        <time>2018-11-04T12:09:04Z</time>
      </trkpt>
      <trkpt lat="43.46234" lon="1.4433">
        <ele>249</ele>
        <time>2018-11-04T12:09:04Z</time>
      </trkpt>
      <trkpt lat="43.46239" lon="1.44332">
        <ele>249</ele>
        <time>2018-11-04T12:09:04Z</time>
      </trkpt>
      <trkpt lat="43.46241" lon="1.44332">
        <ele>249</ele>
        <time>2018-11-04T12:09:04Z</time>
      </trkpt>
      <trkpt lat="43.46241" lon="1.44331">
        <ele>249</ele>
        <time>2018-11-04T12:09:24Z</time>
      </trkpt>
      <trkpt lat="43.46241" lon="1.4433">
        <ele>249</ele>
        <time>2018-11-04T12:09:24Z</time>
      </trkpt>
      <trkpt lat="43.46242" lon="1.44329">
        <ele>249</ele>
        <time>2018-11-04T12:09:24Z</time>
      </trkpt>
      <trkpt lat="43.46246" lon="1.44325">
        <ele>249</ele>
        <time>2018-11-04T12:09:24Z</time>
      </trkpt>
      <trkpt lat="43.46251" lon="1.44321">
        <ele>249</ele>
        <time>2018-11-04T12:09:24Z</time>
      </trkpt>
      <trkpt lat="43.46256" lon="1.4432">
        <ele>249</ele>
        <time>2018-11-04T12:09:40Z</time>
      </trkpt>
      <trkpt lat="43.4626" lon="1.44317">
        <ele>249</ele>
        <time>2018-11-04T12:09:40Z</time>
      </trkpt>
      <trkpt lat="43.46266" lon="1.44315">
        <ele>249</ele>
        <time>2018-11-04T12:09:40Z</time>
      </trkpt>
      <trkpt lat="43.46271" lon="1.44311">
        <ele>249</ele>
        <time>2018-11-04T12:09:40Z</time>
      </trkpt>
      <trkpt lat="43.46275" lon="1.44308">
        <ele>249</ele>
        <time>2018-11-04T12:09:56Z</time>
      </trkpt>
      <trkpt lat="43.46279" lon="1.44303">
        <ele>249</ele>
        <time>2018-11-04T12:09:56Z</time>
      </trkpt>
      <trkpt lat="43.46283" lon="1.44299">
        <ele>249</ele>
        <time>2018-11-04T12:09:56Z</time>
      </trkpt>
      <trkpt lat="43.46287" lon="1.44296">
        <ele>249</ele>
        <time>2018-11-04T12:09:56Z</time>
      </trkpt>
      <trkpt lat="43.46292" lon="1.44293">
        <ele>262</ele>
        <time>2018-11-04T12:10:12Z</time>
      </trkpt>
      <trkpt lat="43.46297" lon="1.44289">
        <ele>260</ele>
        <time>2018-11-04T12:10:12Z</time>
      </trkpt>
      <trkpt lat="43.46301" lon="1.44285">
        <ele>260</ele>
        <time>2018-11-04T12:10:12Z</time>
      </trkpt>
      <trkpt lat="43.46302" lon="1.44281">
        <ele>260</ele>
        <time>2018-11-04T12:10:12Z</time>
      </trkpt>
      <trkpt lat="43.46307" lon="1.4428">
        <ele>260</ele>
        <time>2018-11-04T12:10:28Z</time>
      </trkpt>
      <trkpt lat="43.46309" lon="1.44276">
        <ele>260</ele>
        <time>2018-11-04T12:10:28Z</time>
      </trkpt>
      <trkpt lat="43.46315" lon="1.44271">
        <ele>260</ele>
        <time>2018-11-04T12:10:28Z</time>
      </trkpt>
      <trkpt lat="43.46317" lon="1.44266">
        <ele>260</ele>
        <time>2018-11-04T12:10:28Z</time>
      </trkpt>
      <trkpt lat="43.46321" lon="1.44263">
        <ele>260</ele>
        <time>2018-11-04T12:10:44Z</time>
      </trkpt>
      <trkpt lat="43.46325" lon="1.44258">
        <ele>260</ele>
        <time>2018-11-04T12:10:44Z</time>
      </trkpt>
      <trkpt lat="43.46328" lon="1.44254">
        <ele>260</ele>
        <time>2018-11-04T12:10:44Z</time>
      </trkpt>
      <trkpt lat="43.46333" lon="1.44251">
        <ele>260</ele>
        <time>2018-11-04T12:10:44Z</time>
      </trkpt>
      <trkpt lat="43.46337" lon="1.44247">
        <ele>260</ele>
        <time>2018-11-04T12:11:00Z</time>
      </trkpt>
      <trkpt lat="43.46339" lon="1.44244">
        <ele>260</ele>
        <time>2018-11-04T12:11:00Z</time>
      </trkpt>
      <trkpt lat="43.46343" lon="1.44238">
        <ele>260</ele>
        <time>2018-11-04T12:11:00Z</time>
      </trkpt>
      <trkpt lat="43.46347" lon="1.44234">
        <ele>260</ele>
        <time>2018-11-04T12:11:00Z</time>
      </trkpt>
      <trkpt lat="43.46348" lon="1.44232">
        <ele>260</ele>
        <time>2018-11-04T12:11:32Z</time>
      </trkpt>
      <trkpt lat="43.46349" lon="1.44232">
        <ele>260</ele>
        <time>2018-11-04T12:11:32Z</time>
      </trkpt>
      <trkpt lat="43.46351" lon="1.4423">
        <ele>260</ele>
        <time>2018-11-04T12:11:32Z</time>
      </trkpt>
      <trkpt lat="43.46353" lon="1.44228">
        <ele>260</ele>
        <time>2018-11-04T12:11:32Z</time>
      </trkpt>
      <trkpt lat="43.46356" lon="1.44225">
        <ele>260</ele>
        <time>2018-11-04T12:11:32Z</time>
      </trkpt>
      <trkpt lat="43.46359" lon="1.44222">
        <ele>260</ele>
        <time>2018-11-04T12:11:52Z</time>
      </trkpt>
      <trkpt lat="43.46361" lon="1.44218">
        <ele>260</ele>
        <time>2018-11-04T12:11:52Z</time>
      </trkpt>
      <trkpt lat="43.46362" lon="1.44216">
        <ele>260</ele>
        <time>2018-11-04T12:11:52Z</time>
      </trkpt>
      <trkpt lat="43.46365" lon="1.44218">
        <ele>260</ele>
        <time>2018-11-04T12:11:52Z</time>
      </trkpt>
      <trkpt lat="43.46368" lon="1.44222">
        <ele>260</ele>
        <time>2018-11-04T12:11:52Z</time>
      </trkpt>
      <trkpt lat="43.46372" lon="1.44225">
        <ele>260</ele>
        <time>2018-11-04T12:12:08Z</time>
      </trkpt>
      <trkpt lat="43.46374" lon="1.44228">
        <ele>260</ele>
        <time>2018-11-04T12:12:08Z</time>
      </trkpt>
      <trkpt lat="43.46377" lon="1.44233">
        <ele>265</ele>
        <time>2018-11-04T12:12:08Z</time>
      </trkpt>
      <trkpt lat="43.4638" lon="1.44238">
        <ele>265</ele>
        <time>2018-11-04T12:12:08Z</time>
      </trkpt>
      <trkpt lat="43.46382" lon="1.44243">
        <ele>265</ele>
        <time>2018-11-04T12:12:24Z</time>
      </trkpt>
      <trkpt lat="43.46384" lon="1.4425">
        <ele>265</ele>
        <time>2018-11-04T12:12:24Z</time>
      </trkpt>
      <trkpt lat="43.46387" lon="1.44256">
        <ele>265</ele>
        <time>2018-11-04T12:12:24Z</time>
      </trkpt>
      <trkpt lat="43.4639" lon="1.44261">
        <ele>265</ele>
        <time>2018-11-04T12:12:24Z</time>
      </trkpt>
      <trkpt lat="43.46393" lon="1.44266">
        <ele>265</ele>
        <time>2018-11-04T12:12:40Z</time>
      </trkpt>
      <trkpt lat="43.46396" lon="1.44271">
        <ele>265</ele>
        <time>2018-11-04T12:12:40Z</time>
      </trkpt>
      <trkpt lat="43.46398" lon="1.44276">
        <ele>265</ele>
        <time>2018-11-04T12:12:40Z</time>
      </trkpt>
      <trkpt lat="43.46401" lon="1.44282">
        <ele>265</ele>
        <time>2018-11-04T12:12:40Z</time>
      </trkpt>
      <trkpt lat="43.46403" lon="1.44287">
        <ele>265</ele>
        <time>2018-11-04T12:12:56Z</time>
      </trkpt>
      <trkpt lat="43.46406" lon="1.44293">
        <ele>264</ele>
        <time>2018-11-04T12:12:56Z</time>
      </trkpt>
      <trkpt lat="43.46408" lon="1.44299">
        <ele>264</ele>
        <time>2018-11-04T12:12:56Z</time>
      </trkpt>
      <trkpt lat="43.46408" lon="1.44305">
        <ele>264</ele>
        <time>2018-11-04T12:12:56Z</time>
      </trkpt>
      <trkpt lat="43.46411" lon="1.4431">
        <ele>264</ele>
        <time>2018-11-04T12:13:12Z</time>
      </trkpt>
      <trkpt lat="43.46415" lon="1.44316">
        <ele>264</ele>
        <time>2018-11-04T12:13:12Z</time>
      </trkpt>
      <trkpt lat="43.46419" lon="1.44321">
        <ele>264</ele>
        <time>2018-11-04T12:13:12Z</time>
      </trkpt>
      <trkpt lat="43.46421" lon="1.44326">
        <ele>264</ele>
        <time>2018-11-04T12:13:12Z</time>
      </trkpt>
      <trkpt lat="43.46424" lon="1.44333">
        <ele>264</ele>
        <time>2018-11-04T12:13:28Z</time>
      </trkpt>
      <trkpt lat="43.46427" lon="1.44338">
        <ele>264</ele>
        <time>2018-11-04T12:13:28Z</time>
      </trkpt>
      <trkpt lat="43.46429" lon="1.44345">
        <ele>264</ele>
        <time>2018-11-04T12:13:28Z</time>
      </trkpt>
      <trkpt lat="43.46431" lon="1.44352">
        <ele>264</ele>
        <time>2018-11-04T12:13:28Z</time>
      </trkpt>
      <trkpt lat="43.46435" lon="1.44357">
        <ele>264</ele>
        <time>2018-11-04T12:13:44Z</time>
      </trkpt>
      <trkpt lat="43.46436" lon="1.44362">
        <ele>264</ele>
        <time>2018-11-04T12:13:44Z</time>
      </trkpt>
      <trkpt lat="43.46437" lon="1.44371">
        <ele>264</ele>
        <time>2018-11-04T12:13:44Z</time>
      </trkpt>
      <trkpt lat="43.46439" lon="1.44377">
        <ele>258</ele>
        <time>2018-11-04T12:13:44Z</time>
      </trkpt>
      <trkpt lat="43.4644" lon="1.44383">
        <ele>258</ele>
        <time>2018-11-04T12:14:00Z</time>
      </trkpt>
      <trkpt lat="43.46444" lon="1.44389">
        <ele>258</ele>
        <time>2018-11-04T12:14:00Z</time>
      </trkpt>
      <trkpt lat="43.46447" lon="1.44394">
        <ele>258</ele>
        <time>2018-11-04T12:14:00Z</time>
      </trkpt>
      <trkpt lat="43.46451" lon="1.444">
        <ele>258</ele>
        <time>2018-11-04T12:14:00Z</time>
      </trkpt>
      <trkpt lat="43.46454" lon="1.44407">
        <ele>258</ele>
        <time>2018-11-04T12:14:16Z</time>
      </trkpt>
      <trkpt lat="43.46458" lon="1.44414">
        <ele>258</ele>
        <time>2018-11-04T12:14:16Z</time>
      </trkpt>
      <trkpt lat="43.4646" lon="1.44419">
        <ele>254</ele>
        <time>2018-11-04T12:14:16Z</time>
      </trkpt>
      <trkpt lat="43.46463" lon="1.44425">
        <ele>254</ele>
        <time>2018-11-04T12:14:16Z</time>
      </trkpt>
      <trkpt lat="43.46466" lon="1.44431">
        <ele>254</ele>
        <time>2018-11-04T12:14:32Z</time>
      </trkpt>
      <trkpt lat="43.46469" lon="1.44437">
        <ele>254</ele>
        <time>2018-11-04T12:14:32Z</time>
      </trkpt>
      <trkpt lat="43.46471" lon="1.44443">
        <ele>254</ele>
        <time>2018-11-04T12:14:32Z</time>
      </trkpt>
      <trkpt lat="43.46473" lon="1.4445">
        <ele>254</ele>
        <time>2018-11-04T12:14:32Z</time>
      </trkpt>
      <trkpt lat="43.46475" lon="1.44456">
        <ele>254</ele>
        <time>2018-11-04T12:14:48Z</time>
      </trkpt>
      <trkpt lat="43.46478" lon="1.44462">
        <ele>253</ele>
        <time>2018-11-04T12:14:48Z</time>
      </trkpt>
      <trkpt lat="43.4648" lon="1.44469">
        <ele>253</ele>
        <time>2018-11-04T12:14:49Z</time>
      </trkpt>
      <trkpt lat="43.46483" lon="1.44475">
        <ele>253</ele>
        <time>2018-11-04T12:14:49Z</time>
      </trkpt>
      <trkpt lat="43.46485" lon="1.4448">
        <ele>253</ele>
        <time>2018-11-04T12:15:04Z</time>
      </trkpt>
      <trkpt lat="43.46487" lon="1.44487">
        <ele>253</ele>
        <time>2018-11-04T12:15:04Z</time>
      </trkpt>
      <trkpt lat="43.4649" lon="1.44494">
        <ele>253</ele>
        <time>2018-11-04T12:15:04Z</time>
      </trkpt>
      <trkpt lat="43.46494" lon="1.44499">
        <ele>253</ele>
        <time>2018-11-04T12:15:04Z</time>
      </trkpt>
      <trkpt lat="43.46496" lon="1.44505">
        <ele>253</ele>
        <time>2018-11-04T12:15:20Z</time>
      </trkpt>
      <trkpt lat="43.46499" lon="1.44509">
        <ele>253</ele>
        <time>2018-11-04T12:15:20Z</time>
      </trkpt>
      <trkpt lat="43.46501" lon="1.44515">
        <ele>253</ele>
        <time>2018-11-04T12:15:20Z</time>
      </trkpt>
      <trkpt lat="43.46502" lon="1.44522">
        <ele>253</ele>
        <time>2018-11-04T12:15:20Z</time>
      </trkpt>
      <trkpt lat="43.46504" lon="1.44529">
        <ele>253</ele>
        <time>2018-11-04T12:15:36Z</time>
      </trkpt>
      <trkpt lat="43.46506" lon="1.44535">
        <ele>253</ele>
        <time>2018-11-04T12:15:36Z</time>
      </trkpt>
      <trkpt lat="43.46507" lon="1.44542">
        <ele>256</ele>
        <time>2018-11-04T12:15:36Z</time>
      </trkpt>
      <trkpt lat="43.46509" lon="1.44548">
        <ele>256</ele>
        <time>2018-11-04T12:15:36Z</time>
      </trkpt>
      <trkpt lat="43.46512" lon="1.44553">
        <ele>256</ele>
        <time>2018-11-04T12:15:52Z</time>
      </trkpt>
      <trkpt lat="43.46515" lon="1.44559">
        <ele>256</ele>
        <time>2018-11-04T12:15:52Z</time>
      </trkpt>
      <trkpt lat="43.46518" lon="1.44564">
        <ele>256</ele>
        <time>2018-11-04T12:15:52Z</time>
      </trkpt>
      <trkpt lat="43.46521" lon="1.44571">
        <ele>256</ele>
        <time>2018-11-04T12:15:52Z</time>
      </trkpt>
      <trkpt lat="43.46524" lon="1.44578">
        <ele>256</ele>
        <time>2018-11-04T12:16:08Z</time>
      </trkpt>
      <trkpt lat="43.46526" lon="1.44584">
        <ele>256</ele>
        <time>2018-11-04T12:16:08Z</time>
      </trkpt>
      <trkpt lat="43.46528" lon="1.44591">
        <ele>256</ele>
        <time>2018-11-04T12:16:08Z</time>
      </trkpt>
      <trkpt lat="43.4653" lon="1.44597">
        <ele>256</ele>
        <time>2018-11-04T12:16:08Z</time>
      </trkpt>
      <trkpt lat="43.46533" lon="1.44604">
        <ele>256</ele>
        <time>2018-11-04T12:16:24Z</time>
      </trkpt>
      <trkpt lat="43.46535" lon="1.4461">
        <ele>256</ele>
        <time>2018-11-04T12:16:24Z</time>
      </trkpt>
      <trkpt lat="43.46536" lon="1.44616">
        <ele>256</ele>
        <time>2018-11-04T12:16:24Z</time>
      </trkpt>
      <trkpt lat="43.46537" lon="1.44622">
        <ele>256</ele>
        <time>2018-11-04T12:16:24Z</time>
      </trkpt>
      <trkpt lat="43.46539" lon="1.44627">
        <ele>258</ele>
        <time>2018-11-04T12:16:40Z</time>
      </trkpt>
      <trkpt lat="43.46541" lon="1.44632">
        <ele>258</ele>
        <time>2018-11-04T12:16:40Z</time>
      </trkpt>
      <trkpt lat="43.4654" lon="1.44639">
        <ele>258</ele>
        <time>2018-11-04T12:16:40Z</time>
      </trkpt>
      <trkpt lat="43.46539" lon="1.44647">
        <ele>258</ele>
        <time>2018-11-04T12:16:40Z</time>
      </trkpt>
      <trkpt lat="43.46538" lon="1.44654">
        <ele>258</ele>
        <time>2018-11-04T12:16:56Z</time>
      </trkpt>
      <trkpt lat="43.46537" lon="1.4466">
        <ele>258</ele>
        <time>2018-11-04T12:16:56Z</time>
      </trkpt>
      <trkpt lat="43.46535" lon="1.44665">
        <ele>258</ele>
        <time>2018-11-04T12:16:56Z</time>
      </trkpt>
      <trkpt lat="43.46535" lon="1.44671">
        <ele>258</ele>
        <time>2018-11-04T12:16:56Z</time>
      </trkpt>
      <trkpt lat="43.46534" lon="1.44677">
        <ele>258</ele>
        <time>2018-11-04T12:17:12Z</time>
      </trkpt>
      <trkpt lat="43.46533" lon="1.44684">
        <ele>258</ele>
        <time>2018-11-04T12:17:12Z</time>
      </trkpt>
      <trkpt lat="43.46533" lon="1.44691">
        <ele>258</ele>
        <time>2018-11-04T12:17:12Z</time>
      </trkpt>
      <trkpt lat="43.46533" lon="1.44696">
        <ele>258</ele>
        <time>2018-11-04T12:17:12Z</time>
      </trkpt>
      <trkpt lat="43.46533" lon="1.44703">
        <ele>258</ele>
        <time>2018-11-04T12:17:28Z</time>
      </trkpt>
      <trkpt lat="43.4653" lon="1.44709">
        <ele>262</ele>
        <time>2018-11-04T12:17:28Z</time>
      </trkpt>
      <trkpt lat="43.4653" lon="1.44714">
        <ele>262</ele>
        <time>2018-11-04T12:17:28Z</time>
      </trkpt>
      <trkpt lat="43.4653" lon="1.44719">
        <ele>262</ele>
        <time>2018-11-04T12:17:28Z</time>
      </trkpt>
      <trkpt lat="43.46531" lon="1.44724">
        <ele>262</ele>
        <time>2018-11-04T12:17:44Z</time>
      </trkpt>
      <trkpt lat="43.46531" lon="1.4473">
        <ele>262</ele>
        <time>2018-11-04T12:17:44Z</time>
      </trkpt>
      <trkpt lat="43.46531" lon="1.44736">
        <ele>262</ele>
        <time>2018-11-04T12:17:44Z</time>
      </trkpt>
      <trkpt lat="43.46533" lon="1.4474">
        <ele>262</ele>
        <time>2018-11-04T12:17:44Z</time>
      </trkpt>
      <trkpt lat="43.46535" lon="1.44746">
        <ele>262</ele>
        <time>2018-11-04T12:18:00Z</time>
      </trkpt>
      <trkpt lat="43.46537" lon="1.44751">
        <ele>262</ele>
        <time>2018-11-04T12:18:00Z</time>
      </trkpt>
      <trkpt lat="43.46541" lon="1.44754">
        <ele>262</ele>
        <time>2018-11-04T12:18:00Z</time>
      </trkpt>
      <trkpt lat="43.46545" lon="1.4476">
        <ele>260</ele>
        <time>2018-11-04T12:18:00Z</time>
      </trkpt>
      <trkpt lat="43.46549" lon="1.44766">
        <ele>260</ele>
        <time>2018-11-04T12:18:16Z</time>
      </trkpt>
      <trkpt lat="43.46553" lon="1.44771">
        <ele>260</ele>
        <time>2018-11-04T12:18:16Z</time>
      </trkpt>
      <trkpt lat="43.46557" lon="1.44776">
        <ele>260</ele>
        <time>2018-11-04T12:18:16Z</time>
      </trkpt>
      <trkpt lat="43.46562" lon="1.44781">
        <ele>260</ele>
        <time>2018-11-04T12:18:16Z</time>
      </trkpt>
      <trkpt lat="43.46565" lon="1.44786">
        <ele>260</ele>
        <time>2018-11-04T12:18:36Z</time>
      </trkpt>
      <trkpt lat="43.46567" lon="1.4479">
        <ele>260</ele>
        <time>2018-11-04T12:18:36Z</time>
      </trkpt>
      <trkpt lat="43.46567" lon="1.44793">
        <ele>260</ele>
        <time>2018-11-04T12:18:36Z</time>
      </trkpt>
      <trkpt lat="43.46569" lon="1.44797">
        <ele>260</ele>
        <time>2018-11-04T12:18:36Z</time>
      </trkpt>
      <trkpt lat="43.46572" lon="1.44802">
        <ele>260</ele>
        <time>2018-11-04T12:18:36Z</time>
      </trkpt>
      <trkpt lat="43.46576" lon="1.44806">
        <ele>260</ele>
        <time>2018-11-04T12:18:52Z</time>
      </trkpt>
      <trkpt lat="43.46577" lon="1.44808">
        <ele>260</ele>
        <time>2018-11-04T12:18:52Z</time>
      </trkpt>
      <trkpt lat="43.4658" lon="1.44812">
        <ele>260</ele>
        <time>2018-11-04T12:18:52Z</time>
      </trkpt>
      <trkpt lat="43.46583" lon="1.44815">
        <ele>260</ele>
        <time>2018-11-04T12:18:52Z</time>
      </trkpt>
      <trkpt lat="43.46586" lon="1.4482">
        <ele>260</ele>
        <time>2018-11-04T12:19:08Z</time>
      </trkpt>
      <trkpt lat="43.46589" lon="1.44824">
        <ele>260</ele>
        <time>2018-11-04T12:19:08Z</time>
      </trkpt>
      <trkpt lat="43.46592" lon="1.44828">
        <ele>260</ele>
        <time>2018-11-04T12:19:08Z</time>
      </trkpt>
      <trkpt lat="43.46595" lon="1.44832">
        <ele>260</ele>
        <time>2018-11-04T12:19:08Z</time>
      </trkpt>
      <trkpt lat="43.466" lon="1.44847">
        <ele>260</ele>
        <time>2018-11-04T12:20:24Z</time>
      </trkpt>
      <trkpt lat="43.466" lon="1.44847">
        <ele>260</ele>
        <time>2018-11-04T12:20:24Z</time>
      </trkpt>
      <trkpt lat="43.46601" lon="1.44848">
        <ele>260</ele>
        <time>2018-11-04T12:20:24Z</time>
      </trkpt>
      <trkpt lat="43.46601" lon="1.44849">
        <ele>260</ele>
        <time>2018-11-04T12:20:24Z</time>
      </trkpt>
      <trkpt lat="43.46601" lon="1.44849">
        <ele>260</ele>
        <time>2018-11-04T12:20:24Z</time>
      </trkpt>
      <trkpt lat="43.46601" lon="1.44849">
        <ele>260</ele>
        <time>2018-11-04T12:23:16Z</time>
      </trkpt>
      <trkpt lat="43.46602" lon="1.44852">
        <ele>260</ele>
        <time>2018-11-04T12:23:16Z</time>
      </trkpt>
      <trkpt lat="43.46603" lon="1.44858">
        <ele>260</ele>
        <time>2018-11-04T12:23:16Z</time>
      </trkpt>
      <trkpt lat="43.46604" lon="1.44865">
        <ele>260</ele>
        <time>2018-11-04T12:23:16Z</time>
      </trkpt>
      <trkpt lat="43.46605" lon="1.44872">
        <ele>260</ele>
        <time>2018-11-04T12:23:16Z</time>
      </trkpt>
      <trkpt lat="43.46605" lon="1.4488">
        <ele>255</ele>
        <time>2018-11-04T12:23:44Z</time>
      </trkpt>
      <trkpt lat="43.46604" lon="1.44884">
        <ele>255</ele>
        <time>2018-11-04T12:23:44Z</time>
      </trkpt>
      <trkpt lat="43.46605" lon="1.44889">
        <ele>255</ele>
        <time>2018-11-04T12:23:44Z</time>
      </trkpt>
      <trkpt lat="43.46604" lon="1.44894">
        <ele>255</ele>
        <time>2018-11-04T12:23:44Z</time>
      </trkpt>
      <trkpt lat="43.46604" lon="1.449">
        <ele>255</ele>
        <time>2018-11-04T12:23:44Z</time>
      </trkpt>
      <trkpt lat="43.46603" lon="1.44905">
        <ele>255</ele>
        <time>2018-11-04T12:24:00Z</time>
      </trkpt>
      <trkpt lat="43.46601" lon="1.4491">
        <ele>255</ele>
        <time>2018-11-04T12:24:00Z</time>
      </trkpt>
      <trkpt lat="43.46599" lon="1.44916">
        <ele>255</ele>
        <time>2018-11-04T12:24:00Z</time>
      </trkpt>
      <trkpt lat="43.46598" lon="1.44921">
        <ele>255</ele>
        <time>2018-11-04T12:24:00Z</time>
      </trkpt>
      <trkpt lat="43.46597" lon="1.44927">
        <ele>255</ele>
        <time>2018-11-04T12:24:16Z</time>
      </trkpt>
      <trkpt lat="43.46595" lon="1.44934">
        <ele>255</ele>
        <time>2018-11-04T12:24:16Z</time>
      </trkpt>
      <trkpt lat="43.46593" lon="1.44939">
        <ele>255</ele>
        <time>2018-11-04T12:24:16Z</time>
      </trkpt>
      <trkpt lat="43.4659" lon="1.44944">
        <ele>255</ele>
        <time>2018-11-04T12:24:16Z</time>
      </trkpt>
      <trkpt lat="43.46588" lon="1.44949">
        <ele>255</ele>
        <time>2018-11-04T12:24:32Z</time>
      </trkpt>
      <trkpt lat="43.46585" lon="1.44953">
        <ele>255</ele>
        <time>2018-11-04T12:24:32Z</time>
      </trkpt>
      <trkpt lat="43.46584" lon="1.44956">
        <ele>255</ele>
        <time>2018-11-04T12:24:32Z</time>
      </trkpt>
      <trkpt lat="43.46582" lon="1.4496">
        <ele>255</ele>
        <time>2018-11-04T12:24:32Z</time>
      </trkpt>
      <trkpt lat="43.46578" lon="1.44965">
        <ele>255</ele>
        <time>2018-11-04T12:24:48Z</time>
      </trkpt>
      <trkpt lat="43.46575" lon="1.4497">
        <ele>255</ele>
        <time>2018-11-04T12:24:48Z</time>
      </trkpt>
      <trkpt lat="43.46572" lon="1.44976">
        <ele>255</ele>
        <time>2018-11-04T12:24:48Z</time>
      </trkpt>
      <trkpt lat="43.4657" lon="1.44981">
        <ele>255</ele>
        <time>2018-11-04T12:24:48Z</time>
      </trkpt>
      <trkpt lat="43.46568" lon="1.44988">
        <ele>255</ele>
        <time>2018-11-04T12:25:04Z</time>
      </trkpt>
      <trkpt lat="43.46565" lon="1.44993">
        <ele>255</ele>
        <time>2018-11-04T12:25:04Z</time>
      </trkpt>
      <trkpt lat="43.46564" lon="1.44999">
        <ele>255</ele>
        <time>2018-11-04T12:25:04Z</time>
      </trkpt>
      <trkpt lat="43.46563" lon="1.45005">
        <ele>255</ele>
        <time>2018-11-04T12:25:04Z</time>
      </trkpt>
      <trkpt lat="43.46562" lon="1.45011">
        <ele>255</ele>
        <time>2018-11-04T12:25:20Z</time>
      </trkpt>
      <trkpt lat="43.46558" lon="1.45016">
        <ele>255</ele>
        <time>2018-11-04T12:25:20Z</time>
      </trkpt>
      <trkpt lat="43.46556" lon="1.45023">
        <ele>255</ele>
        <time>2018-11-04T12:25:20Z</time>
      </trkpt>
      <trkpt lat="43.46554" lon="1.45028">
        <ele>255</ele>
        <time>2018-11-04T12:25:20Z</time>
      </trkpt>
      <trkpt lat="43.4655" lon="1.45034">
        <ele>255</ele>
        <time>2018-11-04T12:25:36Z</time>
      </trkpt>
      <trkpt lat="43.46548" lon="1.4504">
        <ele>255</ele>
        <time>2018-11-04T12:25:36Z</time>
      </trkpt>
      <trkpt lat="43.46545" lon="1.45044">
        <ele>255</ele>
        <time>2018-11-04T12:25:36Z</time>
      </trkpt>
      <trkpt lat="43.46543" lon="1.45048">
        <ele>255</ele>
        <time>2018-11-04T12:25:36Z</time>
      </trkpt>
      <trkpt lat="43.4654" lon="1.45054">
        <ele>239</ele>
        <time>2018-11-04T12:25:52Z</time>
      </trkpt>
      <trkpt lat="43.46538" lon="1.4506">
        <ele>239</ele>
        <time>2018-11-04T12:25:52Z</time>
      </trkpt>
      <trkpt lat="43.46535" lon="1.45065">
        <ele>239</ele>
        <time>2018-11-04T12:25:52Z</time>
      </trkpt>
      <trkpt lat="43.46534" lon="1.45069">
        <ele>239</ele>
        <time>2018-11-04T12:25:52Z</time>
      </trkpt>
      <trkpt lat="43.46533" lon="1.45075">
        <ele>239</ele>
        <time>2018-11-04T12:26:08Z</time>
      </trkpt>
      <trkpt lat="43.46532" lon="1.45079">
        <ele>239</ele>
        <time>2018-11-04T12:26:08Z</time>
      </trkpt>
      <trkpt lat="43.46528" lon="1.45083">
        <ele>239</ele>
        <time>2018-11-04T12:26:08Z</time>
      </trkpt>
      <trkpt lat="43.46524" lon="1.45086">
        <ele>239</ele>
        <time>2018-11-04T12:26:08Z</time>
      </trkpt>
      <trkpt lat="43.46518" lon="1.4509">
        <ele>239</ele>
        <time>2018-11-04T12:26:24Z</time>
      </trkpt>
      <trkpt lat="43.46513" lon="1.45094">
        <ele>239</ele>
        <time>2018-11-04T12:26:24Z</time>
      </trkpt>
      <trkpt lat="43.46508" lon="1.451">
        <ele>239</ele>
        <time>2018-11-04T12:26:24Z</time>
      </trkpt>
      <trkpt lat="43.46506" lon="1.45106">
        <ele>239</ele>
        <time>2018-11-04T12:26:24Z</time>
      </trkpt>
      <trkpt lat="43.46504" lon="1.45112">
        <ele>239</ele>
        <time>2018-11-04T12:26:40Z</time>
      </trkpt>
      <trkpt lat="43.46502" lon="1.45117">
        <ele>239</ele>
        <time>2018-11-04T12:26:40Z</time>
      </trkpt>
      <trkpt lat="43.465" lon="1.45123">
        <ele>239</ele>
        <time>2018-11-04T12:26:40Z</time>
      </trkpt>
      <trkpt lat="43.46499" lon="1.45128">
        <ele>241</ele>
        <time>2018-11-04T12:26:40Z</time>
      </trkpt>
      <trkpt lat="43.46498" lon="1.45133">
        <ele>241</ele>
        <time>2018-11-04T12:26:56Z</time>
      </trkpt>
      <trkpt lat="43.46496" lon="1.45138">
        <ele>241</ele>
        <time>2018-11-04T12:26:56Z</time>
      </trkpt>
      <trkpt lat="43.46495" lon="1.45143">
        <ele>241</ele>
        <time>2018-11-04T12:26:56Z</time>
      </trkpt>
      <trkpt lat="43.46494" lon="1.4515">
        <ele>241</ele>
        <time>2018-11-04T12:26:56Z</time>
      </trkpt>
      <trkpt lat="43.46492" lon="1.45156">
        <ele>241</ele>
        <time>2018-11-04T12:27:12Z</time>
      </trkpt>
      <trkpt lat="43.46491" lon="1.45162">
        <ele>241</ele>
        <time>2018-11-04T12:27:12Z</time>
      </trkpt>
      <trkpt lat="43.4649" lon="1.4517">
        <ele>241</ele>
        <time>2018-11-04T12:27:12Z</time>
      </trkpt>
      <trkpt lat="43.46488" lon="1.45172">
        <ele>241</ele>
        <time>2018-11-04T12:27:12Z</time>
      </trkpt>
      <trkpt lat="43.46487" lon="1.45178">
        <ele>241</ele>
        <time>2018-11-04T12:27:28Z</time>
      </trkpt>
      <trkpt lat="43.46485" lon="1.45185">
        <ele>241</ele>
        <time>2018-11-04T12:27:28Z</time>
      </trkpt>
      <trkpt lat="43.46481" lon="1.45192">
        <ele>241</ele>
        <time>2018-11-04T12:27:28Z</time>
      </trkpt>
      <trkpt lat="43.46478" lon="1.45199">
        <ele>241</ele>
        <time>2018-11-04T12:27:28Z</time>
      </trkpt>
      <trkpt lat="43.46477" lon="1.45206">
        <ele>241</ele>
        <time>2018-11-04T12:27:44Z</time>
      </trkpt>
      <trkpt lat="43.46478" lon="1.45211">
        <ele>244</ele>
        <time>2018-11-04T12:27:44Z</time>
      </trkpt>
      <trkpt lat="43.46478" lon="1.45215">
        <ele>244</ele>
        <time>2018-11-04T12:27:44Z</time>
      </trkpt>
      <trkpt lat="43.46477" lon="1.45219">
        <ele>244</ele>
        <time>2018-11-04T12:27:44Z</time>
      </trkpt>
      <trkpt lat="43.46474" lon="1.45225">
        <ele>244</ele>
        <time>2018-11-04T12:28:00Z</time>
      </trkpt>
      <trkpt lat="43.46471" lon="1.45231">
        <ele>244</ele>
        <time>2018-11-04T12:28:00Z</time>
      </trkpt>
      <trkpt lat="43.46467" lon="1.45237">
        <ele>244</ele>
        <time>2018-11-04T12:28:00Z</time>
      </trkpt>
      <trkpt lat="43.46465" lon="1.45242">
        <ele>244</ele>
        <time>2018-11-04T12:28:00Z</time>
      </trkpt>
      <trkpt lat="43.46464" lon="1.45248">
        <ele>244</ele>
        <time>2018-11-04T12:28:16Z</time>
      </trkpt>
      <trkpt lat="43.46462" lon="1.45252">
        <ele>244</ele>
        <time>2018-11-04T12:28:16Z</time>
      </trkpt>
      <trkpt lat="43.46458" lon="1.45259">
        <ele>244</ele>
        <time>2018-11-04T12:28:16Z</time>
      </trkpt>
      <trkpt lat="43.46457" lon="1.45265">
        <ele>244</ele>
        <time>2018-11-04T12:28:16Z</time>
      </trkpt>
      <trkpt lat="43.46454" lon="1.45269">
        <ele>244</ele>
        <time>2018-11-04T12:28:32Z</time>
      </trkpt>
      <trkpt lat="43.46453" lon="1.45274">
        <ele>244</ele>
        <time>2018-11-04T12:28:32Z</time>
      </trkpt>
      <trkpt lat="43.46453" lon="1.4528">
        <ele>244</ele>
        <time>2018-11-04T12:28:32Z</time>
      </trkpt>
      <trkpt lat="43.46452" lon="1.45286">
        <ele>244</ele>
        <time>2018-11-04T12:28:32Z</time>
      </trkpt>
      <trkpt lat="43.46454" lon="1.45291">
        <ele>244</ele>
        <time>2018-11-04T12:28:48Z</time>
      </trkpt>
      <trkpt lat="43.46457" lon="1.45295">
        <ele>244</ele>
        <time>2018-11-04T12:28:48Z</time>
      </trkpt>
      <trkpt lat="43.46458" lon="1.45301">
        <ele>244</ele>
        <time>2018-11-04T12:28:48Z</time>
      </trkpt>
      <trkpt lat="43.46459" lon="1.45307">
        <ele>248</ele>
        <time>2018-11-04T12:28:48Z</time>
      </trkpt>
      <trkpt lat="43.46457" lon="1.45315">
        <ele>244</ele>
        <time>2018-11-04T12:29:24Z</time>
      </trkpt>
      <trkpt lat="43.46457" lon="1.45318">
        <ele>244</ele>
        <time>2018-11-04T12:29:24Z</time>
      </trkpt>
      <trkpt lat="43.46457" lon="1.4532">
        <ele>244</ele>
        <time>2018-11-04T12:29:24Z</time>
      </trkpt>
      <trkpt lat="43.46456" lon="1.45324">
        <ele>244</ele>
        <time>2018-11-04T12:29:24Z</time>
      </trkpt>
      <trkpt lat="43.46453" lon="1.45332">
        <ele>244</ele>
        <time>2018-11-04T12:29:24Z</time>
      </trkpt>
      <trkpt lat="43.46451" lon="1.45339">
        <ele>244</ele>
        <time>2018-11-04T12:29:40Z</time>
      </trkpt>
      <trkpt lat="43.4645" lon="1.45348">
        <ele>244</ele>
        <time>2018-11-04T12:29:40Z</time>
      </trkpt>
      <trkpt lat="43.46447" lon="1.45354">
        <ele>244</ele>
        <time>2018-11-04T12:29:40Z</time>
      </trkpt>
      <trkpt lat="43.46444" lon="1.4536">
        <ele>244</ele>
        <time>2018-11-04T12:29:40Z</time>
      </trkpt>
      <trkpt lat="43.46443" lon="1.45366">
        <ele>244</ele>
        <time>2018-11-04T12:29:56Z</time>
      </trkpt>
      <trkpt lat="43.4644" lon="1.45372">
        <ele>244</ele>
        <time>2018-11-04T12:29:56Z</time>
      </trkpt>
      <trkpt lat="43.46437" lon="1.45379">
        <ele>249</ele>
        <time>2018-11-04T12:29:56Z</time>
      </trkpt>
      <trkpt lat="43.46435" lon="1.45384">
        <ele>249</ele>
        <time>2018-11-04T12:29:56Z</time>
      </trkpt>
      <trkpt lat="43.46434" lon="1.45391">
        <ele>249</ele>
        <time>2018-11-04T12:30:12Z</time>
      </trkpt>
      <trkpt lat="43.46431" lon="1.45396">
        <ele>249</ele>
        <time>2018-11-04T12:30:12Z</time>
      </trkpt>
      <trkpt lat="43.46428" lon="1.45401">
        <ele>249</ele>
        <time>2018-11-04T12:30:12Z</time>
      </trkpt>
      <trkpt lat="43.46425" lon="1.45406">
        <ele>249</ele>
        <time>2018-11-04T12:30:12Z</time>
      </trkpt>
      <trkpt lat="43.46422" lon="1.45412">
        <ele>249</ele>
        <time>2018-11-04T12:30:28Z</time>
      </trkpt>
      <trkpt lat="43.46421" lon="1.45418">
        <ele>249</ele>
        <time>2018-11-04T12:30:28Z</time>
      </trkpt>
      <trkpt lat="43.4642" lon="1.45424">
        <ele>249</ele>
        <time>2018-11-04T12:30:28Z</time>
      </trkpt>
      <trkpt lat="43.46419" lon="1.4543">
        <ele>249</ele>
        <time>2018-11-04T12:30:28Z</time>
      </trkpt>
      <trkpt lat="43.46416" lon="1.45435">
        <ele>249</ele>
        <time>2018-11-04T12:30:44Z</time>
      </trkpt>
      <trkpt lat="43.46413" lon="1.4544">
        <ele>249</ele>
        <time>2018-11-04T12:30:44Z</time>
      </trkpt>
      <trkpt lat="43.46409" lon="1.45447">
        <ele>249</ele>
        <time>2018-11-04T12:30:44Z</time>
      </trkpt>
      <trkpt lat="43.46406" lon="1.45452">
        <ele>249</ele>
        <time>2018-11-04T12:30:44Z</time>
      </trkpt>
      <trkpt lat="43.46403" lon="1.45458">
        <ele>249</ele>
        <time>2018-11-04T12:31:00Z</time>
      </trkpt>
      <trkpt lat="43.46404" lon="1.45465">
        <ele>258</ele>
        <time>2018-11-04T12:31:00Z</time>
      </trkpt>
      <trkpt lat="43.46401" lon="1.45472">
        <ele>258</ele>
        <time>2018-11-04T12:31:00Z</time>
      </trkpt>
      <trkpt lat="43.46398" lon="1.45476">
        <ele>258</ele>
        <time>2018-11-04T12:31:00Z</time>
      </trkpt>
      <trkpt lat="43.46397" lon="1.45477">
        <ele>258</ele>
        <time>2018-11-04T12:31:56Z</time>
      </trkpt>
      <trkpt lat="43.46397" lon="1.45477">
        <ele>258</ele>
        <time>2018-11-04T12:31:56Z</time>
      </trkpt>
      <trkpt lat="43.46396" lon="1.45478">
        <ele>258</ele>
        <time>2018-11-04T12:31:56Z</time>
      </trkpt>
      <trkpt lat="43.46393" lon="1.45481">
        <ele>258</ele>
        <time>2018-11-04T12:31:56Z</time>
      </trkpt>
      <trkpt lat="43.46389" lon="1.45487">
        <ele>258</ele>
        <time>2018-11-04T12:31:56Z</time>
      </trkpt>
      <trkpt lat="43.46384" lon="1.45495">
        <ele>258</ele>
        <time>2018-11-04T12:32:12Z</time>
      </trkpt>
      <trkpt lat="43.4638" lon="1.455">
        <ele>258</ele>
        <time>2018-11-04T12:32:12Z</time>
      </trkpt>
      <trkpt lat="43.46377" lon="1.45506">
        <ele>258</ele>
        <time>2018-11-04T12:32:12Z</time>
      </trkpt>
      <trkpt lat="43.46376" lon="1.45511">
        <ele>258</ele>
        <time>2018-11-04T12:32:12Z</time>
      </trkpt>
      <trkpt lat="43.46372" lon="1.45517">
        <ele>255</ele>
        <time>2018-11-04T12:32:28Z</time>
      </trkpt>
      <trkpt lat="43.4637" lon="1.45524">
        <ele>255</ele>
        <time>2018-11-04T12:32:28Z</time>
      </trkpt>
      <trkpt lat="43.46366" lon="1.45531">
        <ele>255</ele>
        <time>2018-11-04T12:32:28Z</time>
      </trkpt>
      <trkpt lat="43.46365" lon="1.45537">
        <ele>255</ele>
        <time>2018-11-04T12:32:28Z</time>
      </trkpt>
      <trkpt lat="43.46361" lon="1.45542">
        <ele>256</ele>
        <time>2018-11-04T12:32:44Z</time>
      </trkpt>
      <trkpt lat="43.46362" lon="1.45541">
        <ele>255</ele>
        <time>2018-11-04T12:32:44Z</time>
      </trkpt>
      <trkpt lat="43.4636" lon="1.45545">
        <ele>256</ele>
        <time>2018-11-04T12:32:44Z</time>
      </trkpt>
      <trkpt lat="43.46356" lon="1.45552">
        <ele>256</ele>
        <time>2018-11-04T12:32:44Z</time>
      </trkpt>
      <trkpt lat="43.46352" lon="1.45557">
        <ele>256</ele>
        <time>2018-11-04T12:33:00Z</time>
      </trkpt>
      <trkpt lat="43.46349" lon="1.45562">
        <ele>256</ele>
        <time>2018-11-04T12:33:00Z</time>
      </trkpt>
      <trkpt lat="43.46347" lon="1.45569">
        <ele>256</ele>
        <time>2018-11-04T12:33:00Z</time>
      </trkpt>
      <trkpt lat="43.46345" lon="1.45572">
        <ele>256</ele>
        <time>2018-11-04T12:33:00Z</time>
      </trkpt>
      <trkpt lat="43.46344" lon="1.45578">
        <ele>256</ele>
        <time>2018-11-04T12:33:16Z</time>
      </trkpt>
      <trkpt lat="43.46341" lon="1.45586">
        <ele>256</ele>
        <time>2018-11-04T12:33:16Z</time>
      </trkpt>
      <trkpt lat="43.46338" lon="1.45594">
        <ele>256</ele>
        <time>2018-11-04T12:33:16Z</time>
      </trkpt>
      <trkpt lat="43.46337" lon="1.45598">
        <ele>256</ele>
        <time>2018-11-04T12:33:16Z</time>
      </trkpt>
      <trkpt lat="43.46335" lon="1.45605">
        <ele>256</ele>
        <time>2018-11-04T12:33:32Z</time>
      </trkpt>
      <trkpt lat="43.46332" lon="1.45613">
        <ele>256</ele>
        <time>2018-11-04T12:33:32Z</time>
      </trkpt>
      <trkpt lat="43.46328" lon="1.45622">
        <ele>256</ele>
        <time>2018-11-04T12:33:32Z</time>
      </trkpt>
      <trkpt lat="43.46324" lon="1.45629">
        <ele>259</ele>
        <time>2018-11-04T12:33:32Z</time>
      </trkpt>
      <trkpt lat="43.46322" lon="1.45637">
        <ele>259</ele>
        <time>2018-11-04T12:33:48Z</time>
      </trkpt>
      <trkpt lat="43.4632" lon="1.45645">
        <ele>259</ele>
        <time>2018-11-04T12:33:48Z</time>
      </trkpt>
      <trkpt lat="43.46316" lon="1.45651">
        <ele>259</ele>
        <time>2018-11-04T12:33:48Z</time>
      </trkpt>
      <trkpt lat="43.46314" lon="1.45658">
        <ele>259</ele>
        <time>2018-11-04T12:33:48Z</time>
      </trkpt>
      <trkpt lat="43.46312" lon="1.45665">
        <ele>259</ele>
        <time>2018-11-04T12:34:04Z</time>
      </trkpt>
      <trkpt lat="43.46311" lon="1.45672">
        <ele>259</ele>
        <time>2018-11-04T12:34:04Z</time>
      </trkpt>
      <trkpt lat="43.46307" lon="1.45677">
        <ele>259</ele>
        <time>2018-11-04T12:34:04Z</time>
      </trkpt>
      <trkpt lat="43.46305" lon="1.45682">
        <ele>259</ele>
        <time>2018-11-04T12:34:04Z</time>
      </trkpt>
      <trkpt lat="43.46302" lon="1.45687">
        <ele>259</ele>
        <time>2018-11-04T12:34:20Z</time>
      </trkpt>
      <trkpt lat="43.46303" lon="1.45693">
        <ele>259</ele>
        <time>2018-11-04T12:34:20Z</time>
      </trkpt>
      <trkpt lat="43.46303" lon="1.45699">
        <ele>259</ele>
        <time>2018-11-04T12:34:20Z</time>
      </trkpt>
      <trkpt lat="43.46302" lon="1.45704">
        <ele>259</ele>
        <time>2018-11-04T12:34:20Z</time>
      </trkpt>
      <trkpt lat="43.463" lon="1.45711">
        <ele>266</ele>
        <time>2018-11-04T12:34:36Z</time>
      </trkpt>
      <trkpt lat="43.46297" lon="1.45718">
        <ele>266</ele>
        <time>2018-11-04T12:34:36Z</time>
      </trkpt>
      <trkpt lat="43.46294" lon="1.45725">
        <ele>266</ele>
        <time>2018-11-04T12:34:36Z</time>
      </trkpt>
      <trkpt lat="43.4629" lon="1.45732">
        <ele>254</ele>
        <time>2018-11-04T12:34:36Z</time>
      </trkpt>
      <trkpt lat="43.46286" lon="1.45737">
        <ele>254</ele>
        <time>2018-11-04T12:34:52Z</time>
      </trkpt>
      <trkpt lat="43.46283" lon="1.45743">
        <ele>254</ele>
        <time>2018-11-04T12:34:52Z</time>
      </trkpt>
      <trkpt lat="43.46279" lon="1.4575">
        <ele>254</ele>
        <time>2018-11-04T12:34:52Z</time>
      </trkpt>
      <trkpt lat="43.46275" lon="1.45758">
        <ele>254</ele>
        <time>2018-11-04T12:34:52Z</time>
      </trkpt>
      <trkpt lat="43.46272" lon="1.45764">
        <ele>254</ele>
        <time>2018-11-04T12:35:08Z</time>
      </trkpt>
      <trkpt lat="43.4627" lon="1.45768">
        <ele>254</ele>
        <time>2018-11-04T12:35:08Z</time>
      </trkpt>
      <trkpt lat="43.46266" lon="1.45773">
        <ele>254</ele>
        <time>2018-11-04T12:35:08Z</time>
      </trkpt>
      <trkpt lat="43.46263" lon="1.45778">
        <ele>254</ele>
        <time>2018-11-04T12:35:08Z</time>
      </trkpt>
      <trkpt lat="43.46259" lon="1.45782">
        <ele>254</ele>
        <time>2018-11-04T12:35:24Z</time>
      </trkpt>
      <trkpt lat="43.46254" lon="1.45788">
        <ele>254</ele>
        <time>2018-11-04T12:35:24Z</time>
      </trkpt>
      <trkpt lat="43.46249" lon="1.45792">
        <ele>258</ele>
        <time>2018-11-04T12:35:24Z</time>
      </trkpt>
      <trkpt lat="43.46245" lon="1.45798">
        <ele>258</ele>
        <time>2018-11-04T12:35:24Z</time>
      </trkpt>
      <trkpt lat="43.46243" lon="1.45805">
        <ele>258</ele>
        <time>2018-11-04T12:35:40Z</time>
      </trkpt>
      <trkpt lat="43.46241" lon="1.45809">
        <ele>258</ele>
        <time>2018-11-04T12:35:40Z</time>
      </trkpt>
      <trkpt lat="43.46239" lon="1.45814">
        <ele>258</ele>
        <time>2018-11-04T12:35:40Z</time>
      </trkpt>
      <trkpt lat="43.46234" lon="1.45818">
        <ele>258</ele>
        <time>2018-11-04T12:35:40Z</time>
      </trkpt>
      <trkpt lat="43.46231" lon="1.45823">
        <ele>258</ele>
        <time>2018-11-04T12:35:56Z</time>
      </trkpt>
      <trkpt lat="43.46227" lon="1.45827">
        <ele>258</ele>
        <time>2018-11-04T12:35:56Z</time>
      </trkpt>
      <trkpt lat="43.46226" lon="1.45832">
        <ele>258</ele>
        <time>2018-11-04T12:35:56Z</time>
      </trkpt>
      <trkpt lat="43.46223" lon="1.45838">
        <ele>258</ele>
        <time>2018-11-04T12:35:56Z</time>
      </trkpt>
      <trkpt lat="43.46219" lon="1.45844">
        <ele>258</ele>
        <time>2018-11-04T12:36:12Z</time>
      </trkpt>
      <trkpt lat="43.46215" lon="1.4585">
        <ele>258</ele>
        <time>2018-11-04T12:36:12Z</time>
      </trkpt>
      <trkpt lat="43.46211" lon="1.45856">
        <ele>258</ele>
        <time>2018-11-04T12:36:12Z</time>
      </trkpt>
      <trkpt lat="43.46207" lon="1.45862">
        <ele>247</ele>
        <time>2018-11-04T12:36:12Z</time>
      </trkpt>
      <trkpt lat="43.46204" lon="1.45868">
        <ele>247</ele>
        <time>2018-11-04T12:36:28Z</time>
      </trkpt>
      <trkpt lat="43.46201" lon="1.45875">
        <ele>247</ele>
        <time>2018-11-04T12:36:28Z</time>
      </trkpt>
      <trkpt lat="43.46198" lon="1.45881">
        <ele>251</ele>
        <time>2018-11-04T12:36:28Z</time>
      </trkpt>
      <trkpt lat="43.46195" lon="1.45888">
        <ele>251</ele>
        <time>2018-11-04T12:36:28Z</time>
      </trkpt>
      <trkpt lat="43.4619" lon="1.45894">
        <ele>251</ele>
        <time>2018-11-04T12:36:44Z</time>
      </trkpt>
      <trkpt lat="43.46187" lon="1.45901">
        <ele>251</ele>
        <time>2018-11-04T12:36:44Z</time>
      </trkpt>
      <trkpt lat="43.46185" lon="1.45907">
        <ele>251</ele>
        <time>2018-11-04T12:36:44Z</time>
      </trkpt>
      <trkpt lat="43.46181" lon="1.45913">
        <ele>251</ele>
        <time>2018-11-04T12:36:44Z</time>
      </trkpt>
      <trkpt lat="43.46178" lon="1.4592">
        <ele>251</ele>
        <time>2018-11-04T12:37:00Z</time>
      </trkpt>
      <trkpt lat="43.46174" lon="1.45925">
        <ele>251</ele>
        <time>2018-11-04T12:37:00Z</time>
      </trkpt>
      <trkpt lat="43.46172" lon="1.4593">
        <ele>251</ele>
        <time>2018-11-04T12:37:00Z</time>
      </trkpt>
      <trkpt lat="43.46169" lon="1.45937">
        <ele>251</ele>
        <time>2018-11-04T12:37:00Z</time>
      </trkpt>
      <trkpt lat="43.46165" lon="1.45944">
        <ele>251</ele>
        <time>2018-11-04T12:37:16Z</time>
      </trkpt>
      <trkpt lat="43.46163" lon="1.4595">
        <ele>251</ele>
        <time>2018-11-04T12:37:16Z</time>
      </trkpt>
      <trkpt lat="43.46159" lon="1.45955">
        <ele>251</ele>
        <time>2018-11-04T12:37:16Z</time>
      </trkpt>
      <trkpt lat="43.46156" lon="1.45962">
        <ele>256</ele>
        <time>2018-11-04T12:37:16Z</time>
      </trkpt>
      <trkpt lat="43.46152" lon="1.45968">
        <ele>256</ele>
        <time>2018-11-04T12:37:32Z</time>
      </trkpt>
      <trkpt lat="43.46149" lon="1.45974">
        <ele>256</ele>
        <time>2018-11-04T12:37:32Z</time>
      </trkpt>
      <trkpt lat="43.46146" lon="1.45981">
        <ele>256</ele>
        <time>2018-11-04T12:37:32Z</time>
      </trkpt>
      <trkpt lat="43.46143" lon="1.45987">
        <ele>256</ele>
        <time>2018-11-04T12:37:32Z</time>
      </trkpt>
      <trkpt lat="43.4614" lon="1.45993">
        <ele>256</ele>
        <time>2018-11-04T12:37:48Z</time>
      </trkpt>
      <trkpt lat="43.46137" lon="1.46">
        <ele>256</ele>
        <time>2018-11-04T12:37:48Z</time>
      </trkpt>
      <trkpt lat="43.46134" lon="1.46007">
        <ele>256</ele>
        <time>2018-11-04T12:37:48Z</time>
      </trkpt>
      <trkpt lat="43.46131" lon="1.46013">
        <ele>256</ele>
        <time>2018-11-04T12:37:48Z</time>
      </trkpt>
      <trkpt lat="43.4613" lon="1.46019">
        <ele>256</ele>
        <time>2018-11-04T12:38:04Z</time>
      </trkpt>
      <trkpt lat="43.46128" lon="1.46026">
        <ele>256</ele>
        <time>2018-11-04T12:38:04Z</time>
      </trkpt>
      <trkpt lat="43.46125" lon="1.46031">
        <ele>245</ele>
        <time>2018-11-04T12:38:04Z</time>
      </trkpt>
      <trkpt lat="43.46121" lon="1.46037">
        <ele>245</ele>
        <time>2018-11-04T12:38:04Z</time>
      </trkpt>
      <trkpt lat="43.46118" lon="1.46043">
        <ele>252</ele>
        <time>2018-11-04T12:38:20Z</time>
      </trkpt>
      <trkpt lat="43.46115" lon="1.46049">
        <ele>252</ele>
        <time>2018-11-04T12:38:20Z</time>
      </trkpt>
      <trkpt lat="43.46112" lon="1.46054">
        <ele>252</ele>
        <time>2018-11-04T12:38:20Z</time>
      </trkpt>
      <trkpt lat="43.4611" lon="1.46057">
        <ele>252</ele>
        <time>2018-11-04T12:38:20Z</time>
      </trkpt>
      <trkpt lat="43.46107" lon="1.46063">
        <ele>252</ele>
        <time>2018-11-04T12:38:36Z</time>
      </trkpt>
      <trkpt lat="43.46103" lon="1.4607">
        <ele>252</ele>
        <time>2018-11-04T12:38:36Z</time>
      </trkpt>
      <trkpt lat="43.461" lon="1.46077">
        <ele>252</ele>
        <time>2018-11-04T12:38:36Z</time>
      </trkpt>
      <trkpt lat="43.46097" lon="1.46084">
        <ele>252</ele>
        <time>2018-11-04T12:38:36Z</time>
      </trkpt>
      <trkpt lat="43.46094" lon="1.46089">
        <ele>252</ele>
        <time>2018-11-04T12:38:52Z</time>
      </trkpt>
      <trkpt lat="43.46091" lon="1.46094">
        <ele>252</ele>
        <time>2018-11-04T12:38:52Z</time>
      </trkpt>
      <trkpt lat="43.46088" lon="1.461">
        <ele>252</ele>
        <time>2018-11-04T12:38:52Z</time>
      </trkpt>
      <trkpt lat="43.46085" lon="1.46106">
        <ele>252</ele>
        <time>2018-11-04T12:38:52Z</time>
      </trkpt>
      <trkpt lat="43.46083" lon="1.46111">
        <ele>252</ele>
        <time>2018-11-04T12:39:08Z</time>
      </trkpt>
      <trkpt lat="43.46081" lon="1.46117">
        <ele>252</ele>
        <time>2018-11-04T12:39:08Z</time>
      </trkpt>
      <trkpt lat="43.46078" lon="1.46123">
        <ele>252</ele>
        <time>2018-11-04T12:39:08Z</time>
      </trkpt>
      <trkpt lat="43.46076" lon="1.4613">
        <ele>256</ele>
        <time>2018-11-04T12:39:08Z</time>
      </trkpt>
      <trkpt lat="43.46073" lon="1.46136">
        <ele>256</ele>
        <time>2018-11-04T12:39:24Z</time>
      </trkpt>
      <trkpt lat="43.46071" lon="1.46143">
        <ele>256</ele>
        <time>2018-11-04T12:39:24Z</time>
      </trkpt>
      <trkpt lat="43.46068" lon="1.4615">
        <ele>256</ele>
        <time>2018-11-04T12:39:24Z</time>
      </trkpt>
      <trkpt lat="43.46065" lon="1.46156">
        <ele>256</ele>
        <time>2018-11-04T12:39:24Z</time>
      </trkpt>
      <trkpt lat="43.46063" lon="1.46162">
        <ele>256</ele>
        <time>2018-11-04T12:39:40Z</time>
      </trkpt>
      <trkpt lat="43.46061" lon="1.46168">
        <ele>256</ele>
        <time>2018-11-04T12:39:40Z</time>
      </trkpt>
      <trkpt lat="43.46058" lon="1.46175">
        <ele>256</ele>
        <time>2018-11-04T12:39:40Z</time>
      </trkpt>
      <trkpt lat="43.46056" lon="1.46182">
        <ele>256</ele>
        <time>2018-11-04T12:39:40Z</time>
      </trkpt>
      <trkpt lat="43.46054" lon="1.46188">
        <ele>256</ele>
        <time>2018-11-04T12:39:56Z</time>
      </trkpt>
      <trkpt lat="43.46051" lon="1.46193">
        <ele>256</ele>
        <time>2018-11-04T12:39:56Z</time>
      </trkpt>
      <trkpt lat="43.46049" lon="1.46199">
        <ele>256</ele>
        <time>2018-11-04T12:39:56Z</time>
      </trkpt>
      <trkpt lat="43.46046" lon="1.46205">
        <ele>256</ele>
        <time>2018-11-04T12:39:56Z</time>
      </trkpt>
      <trkpt lat="43.46043" lon="1.46212">
        <ele>262</ele>
        <time>2018-11-04T12:40:12Z</time>
      </trkpt>
      <trkpt lat="43.4604" lon="1.46218">
        <ele>257</ele>
        <time>2018-11-04T12:40:12Z</time>
      </trkpt>
      <trkpt lat="43.46037" lon="1.46223">
        <ele>257</ele>
        <time>2018-11-04T12:40:12Z</time>
      </trkpt>
      <trkpt lat="43.46035" lon="1.46229">
        <ele>257</ele>
        <time>2018-11-04T12:40:12Z</time>
      </trkpt>
      <trkpt lat="43.46033" lon="1.46236">
        <ele>257</ele>
        <time>2018-11-04T12:40:28Z</time>
      </trkpt>
      <trkpt lat="43.46031" lon="1.46242">
        <ele>257</ele>
        <time>2018-11-04T12:40:28Z</time>
      </trkpt>
      <trkpt lat="43.46029" lon="1.46248">
        <ele>257</ele>
        <time>2018-11-04T12:40:28Z</time>
      </trkpt>
      <trkpt lat="43.46026" lon="1.46254">
        <ele>257</ele>
        <time>2018-11-04T12:40:28Z</time>
      </trkpt>
      <trkpt lat="43.46024" lon="1.4626">
        <ele>257</ele>
        <time>2018-11-04T12:40:44Z</time>
      </trkpt>
      <trkpt lat="43.46022" lon="1.46266">
        <ele>257</ele>
        <time>2018-11-04T12:40:44Z</time>
      </trkpt>
      <trkpt lat="43.4602" lon="1.46272">
        <ele>257</ele>
        <time>2018-11-04T12:40:44Z</time>
      </trkpt>
      <trkpt lat="43.46018" lon="1.46278">
        <ele>257</ele>
        <time>2018-11-04T12:40:44Z</time>
      </trkpt>
      <trkpt lat="43.46016" lon="1.46284">
        <ele>257</ele>
        <time>2018-11-04T12:41:00Z</time>
      </trkpt>
      <trkpt lat="43.46014" lon="1.4629">
        <ele>257</ele>
        <time>2018-11-04T12:41:00Z</time>
      </trkpt>
      <trkpt lat="43.46013" lon="1.46296">
        <ele>260</ele>
        <time>2018-11-04T12:41:00Z</time>
      </trkpt>
      <trkpt lat="43.46011" lon="1.46303">
        <ele>260</ele>
        <time>2018-11-04T12:41:00Z</time>
      </trkpt>
      <trkpt lat="43.46009" lon="1.46309">
        <ele>260</ele>
        <time>2018-11-04T12:41:16Z</time>
      </trkpt>
      <trkpt lat="43.46008" lon="1.46316">
        <ele>260</ele>
        <time>2018-11-04T12:41:16Z</time>
      </trkpt>
      <trkpt lat="43.46006" lon="1.46322">
        <ele>260</ele>
        <time>2018-11-04T12:41:16Z</time>
      </trkpt>
      <trkpt lat="43.46005" lon="1.46329">
        <ele>260</ele>
        <time>2018-11-04T12:41:16Z</time>
      </trkpt>
      <trkpt lat="43.46004" lon="1.46336">
        <ele>260</ele>
        <time>2018-11-04T12:41:32Z</time>
      </trkpt>
      <trkpt lat="43.46003" lon="1.46342">
        <ele>260</ele>
        <time>2018-11-04T12:41:32Z</time>
      </trkpt>
      <trkpt lat="43.46003" lon="1.46349">
        <ele>260</ele>
        <time>2018-11-04T12:41:32Z</time>
      </trkpt>
      <trkpt lat="43.46003" lon="1.46355">
        <ele>260</ele>
        <time>2018-11-04T12:41:32Z</time>
      </trkpt>
      <trkpt lat="43.46003" lon="1.46362">
        <ele>260</ele>
        <time>2018-11-04T12:41:48Z</time>
      </trkpt>
      <trkpt lat="43.46003" lon="1.4637">
        <ele>260</ele>
        <time>2018-11-04T12:41:48Z</time>
      </trkpt>
      <trkpt lat="43.46003" lon="1.46377">
        <ele>260</ele>
        <time>2018-11-04T12:41:48Z</time>
      </trkpt>
      <trkpt lat="43.46003" lon="1.46384">
        <ele>260</ele>
        <time>2018-11-04T12:41:48Z</time>
      </trkpt>
      <trkpt lat="43.46002" lon="1.46392">
        <ele>260</ele>
        <time>2018-11-04T12:42:04Z</time>
      </trkpt>
      <trkpt lat="43.46001" lon="1.46399">
        <ele>260</ele>
        <time>2018-11-04T12:42:04Z</time>
      </trkpt>
      <trkpt lat="43.46001" lon="1.46406">
        <ele>260</ele>
        <time>2018-11-04T12:42:04Z</time>
      </trkpt>
      <trkpt lat="43.46" lon="1.46412">
        <ele>260</ele>
        <time>2018-11-04T12:42:04Z</time>
      </trkpt>
      <trkpt lat="43.46001" lon="1.46417">
        <ele>260</ele>
        <time>2018-11-04T12:42:20Z</time>
      </trkpt>
      <trkpt lat="43.46001" lon="1.46424">
        <ele>260</ele>
        <time>2018-11-04T12:42:20Z</time>
      </trkpt>
      <trkpt lat="43.46001" lon="1.46433">
        <ele>260</ele>
        <time>2018-11-04T12:42:20Z</time>
      </trkpt>
      <trkpt lat="43.46002" lon="1.4644">
        <ele>260</ele>
        <time>2018-11-04T12:42:20Z</time>
      </trkpt>
      <trkpt lat="43.46002" lon="1.46447">
        <ele>260</ele>
        <time>2018-11-04T12:42:36Z</time>
      </trkpt>
      <trkpt lat="43.46002" lon="1.46453">
        <ele>260</ele>
        <time>2018-11-04T12:42:36Z</time>
      </trkpt>
      <trkpt lat="43.46003" lon="1.4646">
        <ele>260</ele>
        <time>2018-11-04T12:42:36Z</time>
      </trkpt>
      <trkpt lat="43.46003" lon="1.46466">
        <ele>260</ele>
        <time>2018-11-04T12:42:36Z</time>
      </trkpt>
      <trkpt lat="43.46004" lon="1.46474">
        <ele>260</ele>
        <time>2018-11-04T12:42:52Z</time>
      </trkpt>
      <trkpt lat="43.46004" lon="1.46482">
        <ele>260</ele>
        <time>2018-11-04T12:42:52Z</time>
      </trkpt>
      <trkpt lat="43.46004" lon="1.46488">
        <ele>260</ele>
        <time>2018-11-04T12:42:52Z</time>
      </trkpt>
      <trkpt lat="43.46005" lon="1.46495">
        <ele>260</ele>
        <time>2018-11-04T12:42:52Z</time>
      </trkpt>
      <trkpt lat="43.46005" lon="1.46502">
        <ele>260</ele>
        <time>2018-11-04T12:43:08Z</time>
      </trkpt>
      <trkpt lat="43.46006" lon="1.46509">
        <ele>260</ele>
        <time>2018-11-04T12:43:08Z</time>
      </trkpt>
      <trkpt lat="43.46007" lon="1.46515">
        <ele>260</ele>
        <time>2018-11-04T12:43:08Z</time>
      </trkpt>
      <trkpt lat="43.46007" lon="1.46522">
        <ele>260</ele>
        <time>2018-11-04T12:43:08Z</time>
      </trkpt>
      <trkpt lat="43.46008" lon="1.46532">
        <ele>260</ele>
        <time>2018-11-04T12:43:32Z</time>
      </trkpt>
      <trkpt lat="43.46007" lon="1.46533">
        <ele>260</ele>
        <time>2018-11-04T12:43:32Z</time>
      </trkpt>
      <trkpt lat="43.46007" lon="1.46534">
        <ele>260</ele>
        <time>2018-11-04T12:43:32Z</time>
      </trkpt>
      <trkpt lat="43.46008" lon="1.46539">
        <ele>260</ele>
        <time>2018-11-04T12:43:32Z</time>
      </trkpt>
      <trkpt lat="43.46008" lon="1.4655">
        <ele>261</ele>
        <time>2018-11-04T12:43:32Z</time>
      </trkpt>
      <trkpt lat="43.4601" lon="1.46559">
        <ele>261</ele>
        <time>2018-11-04T12:43:48Z</time>
      </trkpt>
      <trkpt lat="43.46011" lon="1.46568">
        <ele>261</ele>
        <time>2018-11-04T12:43:48Z</time>
      </trkpt>
      <trkpt lat="43.46012" lon="1.46573">
        <ele>261</ele>
        <time>2018-11-04T12:43:48Z</time>
      </trkpt>
      <trkpt lat="43.46014" lon="1.4658">
        <ele>261</ele>
        <time>2018-11-04T12:43:48Z</time>
      </trkpt>
      <trkpt lat="43.46015" lon="1.46588">
        <ele>261</ele>
        <time>2018-11-04T12:44:04Z</time>
      </trkpt>
      <trkpt lat="43.46016" lon="1.46595">
        <ele>261</ele>
        <time>2018-11-04T12:44:04Z</time>
      </trkpt>
      <trkpt lat="43.46017" lon="1.46603">
        <ele>261</ele>
        <time>2018-11-04T12:44:04Z</time>
      </trkpt>
      <trkpt lat="43.46018" lon="1.46608">
        <ele>261</ele>
        <time>2018-11-04T12:44:04Z</time>
      </trkpt>
      <trkpt lat="43.46014" lon="1.46621">
        <ele>261</ele>
        <time>2018-11-04T12:47:16Z</time>
      </trkpt>
      <trkpt lat="43.46015" lon="1.46624">
        <ele>261</ele>
        <time>2018-11-04T12:47:16Z</time>
      </trkpt>
      <trkpt lat="43.46017" lon="1.46628">
        <ele>261</ele>
        <time>2018-11-04T12:47:16Z</time>
      </trkpt>
      <trkpt lat="43.46021" lon="1.46637">
        <ele>261</ele>
        <time>2018-11-04T12:47:16Z</time>
      </trkpt>
      <trkpt lat="43.46024" lon="1.46642">
        <ele>261</ele>
        <time>2018-11-04T12:47:16Z</time>
      </trkpt>
      <trkpt lat="43.46026" lon="1.46648">
        <ele>261</ele>
        <time>2018-11-04T12:47:32Z</time>
      </trkpt>
      <trkpt lat="43.46029" lon="1.46654">
        <ele>261</ele>
        <time>2018-11-04T12:47:32Z</time>
      </trkpt>
      <trkpt lat="43.46031" lon="1.46661">
        <ele>261</ele>
        <time>2018-11-04T12:47:32Z</time>
      </trkpt>
      <trkpt lat="43.46035" lon="1.46667">
        <ele>261</ele>
        <time>2018-11-04T12:47:32Z</time>
      </trkpt>
      <trkpt lat="43.46037" lon="1.46674">
        <ele>261</ele>
        <time>2018-11-04T12:47:48Z</time>
      </trkpt>
      <trkpt lat="43.4604" lon="1.46681">
        <ele>261</ele>
        <time>2018-11-04T12:47:48Z</time>
      </trkpt>
      <trkpt lat="43.46042" lon="1.46687">
        <ele>271</ele>
        <time>2018-11-04T12:47:48Z</time>
      </trkpt>
      <trkpt lat="43.46044" lon="1.46693">
        <ele>271</ele>
        <time>2018-11-04T12:47:48Z</time>
      </trkpt>
      <trkpt lat="43.46046" lon="1.46699">
        <ele>271</ele>
        <time>2018-11-04T12:48:04Z</time>
      </trkpt>
      <trkpt lat="43.46049" lon="1.46706">
        <ele>271</ele>
        <time>2018-11-04T12:48:04Z</time>
      </trkpt>
      <trkpt lat="43.46051" lon="1.46712">
        <ele>266</ele>
        <time>2018-11-04T12:48:04Z</time>
      </trkpt>
      <trkpt lat="43.46054" lon="1.46718">
        <ele>266</ele>
        <time>2018-11-04T12:48:04Z</time>
      </trkpt>
      <trkpt lat="43.46056" lon="1.46724">
        <ele>266</ele>
        <time>2018-11-04T12:48:20Z</time>
      </trkpt>
      <trkpt lat="43.46058" lon="1.46731">
        <ele>266</ele>
        <time>2018-11-04T12:48:20Z</time>
      </trkpt>
      <trkpt lat="43.46061" lon="1.46738">
        <ele>266</ele>
        <time>2018-11-04T12:48:20Z</time>
      </trkpt>
      <trkpt lat="43.46064" lon="1.46744">
        <ele>266</ele>
        <time>2018-11-04T12:48:20Z</time>
      </trkpt>
      <trkpt lat="43.46068" lon="1.46751">
        <ele>266</ele>
        <time>2018-11-04T12:48:36Z</time>
      </trkpt>
      <trkpt lat="43.4607" lon="1.46758">
        <ele>266</ele>
        <time>2018-11-04T12:48:36Z</time>
      </trkpt>
      <trkpt lat="43.46073" lon="1.46764">
        <ele>266</ele>
        <time>2018-11-04T12:48:36Z</time>
      </trkpt>
      <trkpt lat="43.46075" lon="1.46771">
        <ele>266</ele>
        <time>2018-11-04T12:48:36Z</time>
      </trkpt>
    </trkseg>
  </trk>
</gpx>